[[{"header":{"parameterUnit":"m.s-1","parameterCategory":1,"la1":30.6,"la2":29.2853,"lo1":-89.7004,"lo2":-87.6739,"dy":0.0162,"dx":0.0183,"nx":112,"ny":82,"refTime":"2023-10-25T12:00:00:Z","depth":0,"parameterNumber":2,"parameterNumberName":"U-component_of_WINDS"},"data":[0.0,0.0,0.0,0.0,0.0,0.0,0.0,0.0,0.0,0.0,0.0,0.0,0.0,0.0,0.0,0.0,0.0,0.0,0.0,0.0,0.0,0.0,0.0,0.0,0.0,0.0,0.0,0.0,0.0,0.0,0.0,0.0,0.0,0.0,0.0,0.0,0.0,0.0,0.0,0.0,0.0,0.0,0.0,0.0,0.0,0.0,0.0,0.0,0.0,0.0,0.0,0.0,0.0,0.0,0.0,0.0,0.0,0.0,0.0,0.0,0.0,0.0,0.0,0.0,0.0,0.0,0.0,0.0,0.0,0.0,0.0,0.0,0.0,0.0,0.0,0.0,0.0,0.0,0.0,0.0,0.0,0.0,0.0,0.0,0.0,0.0,0.0,0.0,0.0,0.0,0.0,4.101,4.1068,4.1101,4.1097,4.1049,4.098,4.0902,0.0,0.0,0.0,0.0,0.0,0.0,0.0,0.0,0.0,0.0,0.0,0.0,0.0,0.0,0.0,0.0,0.0,0.0,0.0,0.0,0.0,0.0,0.0,0.0,0.0,0.0,0.0,0.0,0.0,0.0,0.0,0.0,0.0,0.0,0.0,0.0,0.0,0.0,0.0,0.0,0.0,0.0,0.0,0.0,0.0,0.0,0.0,0.0,0.0,0.0,0.0,0.0,0.0,0.0,0.0,0.0,0.0,0.0,0.0,0.0,0.0,0.0,0.0,0.0,0.0,0.0,0.0,0.0,0.0,0.0,0.0,0.0,0.0,0.0,0.0,0.0,0.0,0.0,0.0,0.0,0.0,0.0,0.0,0.0,0.0,0.0,0.0,0.0,0.0,0.0,0.0,0.0,0.0,0.0,0.0,0.0,0.0,0.0,0.0,0.0,0.0,0.0,0.0,0.0,4.1108,4.1088,4.1094,4.1101,4.1097,4.1089,4.1031,4.0916,0.0,0.0,0.0,0.0,0.0,0.0,0.0,0.0,0.0,0.0,0.0,0.0,0.0,0.0,0.0,0.0,0.0,0.0,0.0,0.0,0.0,0.0,0.0,0.0,0.0,0.0,0.0,0.0,0.0,0.0,0.0,0.0,0.0,0.0,0.0,0.0,0.0,0.0,0.0,0.0,0.0,0.0,0.0,0.0,0.0,0.0,0.0,0.0,0.0,0.0,0.0,0.0,0.0,0.0,0.0,0.0,0.0,0.0,0.0,0.0,0.0,0.0,0.0,0.0,0.0,0.0,0.0,0.0,0.0,0.0,0.0,0.0,0.0,0.0,0.0,0.0,0.0,0.0,0.0,0.0,0.0,0.0,0.0,0.0,0.0,0.0,0.0,0.0,0.0,0.0,0.0,0.0,0.0,0.0,0.0,0.0,0.0,0.0,0.0,0.0,0.0,0.0,0.0,4.1108,4.1108,4.1108,4.1106,4.1104,4.111,4.111,4.1033,4.0857,4.0436,0.0,0.0,0.0,0.0,0.0,0.0,0.0,0.0,0.0,0.0,0.0,0.0,0.0,0.0,0.0,0.0,0.0,0.0,0.0,0.0,0.0,0.0,0.0,0.0,0.0,0.0,0.0,0.0,0.0,0.0,0.0,0.0,0.0,0.0,0.0,0.0,0.0,0.0,0.0,0.0,0.0,0.0,0.0,0.0,0.0,0.0,0.0,0.0,0.0,0.0,0.0,0.0,0.0,0.0,0.0,0.0,0.0,0.0,0.0,0.0,0.0,0.0,0.0,0.0,0.0,0.0,0.0,0.0,0.0,0.0,0.0,0.0,0.0,0.0,0.0,0.0,0.0,0.0,0.0,0.0,0.0,0.0,0.0,0.0,0.0,0.0,0.0,0.0,0.0,0.0,0.0,0.0,0.0,0.0,0.0,0.0,0.0,0.0,0.0,0.0,0.0,0.0,4.0912,4.0873,4.1088,4.1103,4.1096,4.1109,4.1097,4.1013,4.0812,4.0796,0.0,0.0,0.0,0.0,0.0,0.0,0.0,0.0,0.0,0.0,0.0,0.0,0.0,0.0,0.0,0.0,0.0,0.0,0.0,0.0,0.0,0.0,0.0,0.0,0.0,0.0,0.0,0.0,0.0,0.0,0.0,0.0,0.0,0.0,0.0,0.0,0.0,0.0,0.0,0.0,0.0,0.0,0.0,0.0,0.0,0.0,0.0,0.0,0.0,0.0,0.0,0.0,0.0,0.0,0.0,0.0,0.0,0.0,0.0,0.0,0.0,0.0,0.0,0.0,0.0,0.0,0.0,0.0,0.0,0.0,0.0,0.0,0.0,0.0,0.0,0.0,0.0,0.0,0.0,0.0,0.0,0.0,0.0,0.0,0.0,0.0,0.0,0.0,0.0,0.0,0.0,0.0,0.0,0.0,0.0,0.0,0.0,0.0,0.0,0.0,0.0,0.0,4.0385,4.019,4.101,4.1104,4.1101,4.1104,4.1106,4.1013,4.0812,4.0796,0.0,0.0,0.0,0.0,0.0,0.0,0.0,0.0,0.0,0.0,0.0,0.0,0.0,0.0,0.0,0.0,0.0,0.0,0.0,0.0,0.0,0.0,0.0,0.0,0.0,0.0,0.0,0.0,0.0,0.0,0.0,0.0,0.0,0.0,0.0,0.0,0.0,0.0,0.0,0.0,0.0,0.0,0.0,0.0,0.0,0.0,0.0,0.0,0.0,0.0,0.0,0.0,0.0,0.0,0.0,0.0,0.0,0.0,0.0,0.0,0.0,0.0,0.0,0.0,0.0,0.0,0.0,0.0,0.0,0.0,0.0,0.0,0.0,0.0,0.0,0.0,0.0,0.0,0.0,0.0,0.0,0.0,0.0,0.0,0.0,0.0,0.0,0.0,0.0,0.0,0.0,0.0,0.0,0.0,0.0,0.0,0.0,0.0,0.0,0.0,0.0,0.0,4.1618,4.1342,0.0,4.1108,4.1108,4.1108,4.1097,4.1042,4.0935,0.0,0.0,0.0,0.0,0.0,0.0,0.0,0.0,0.0,0.0,0.0,0.0,0.0,0.0,0.0,0.0,0.0,0.0,0.0,0.0,0.0,0.0,0.0,0.0,0.0,0.0,0.0,0.0,0.0,0.0,0.0,0.0,0.0,0.0,0.0,0.0,0.0,0.0,0.0,0.0,0.0,0.0,0.0,0.0,0.0,0.0,0.0,0.0,0.0,0.0,0.0,0.0,0.0,0.0,0.0,0.0,0.0,0.0,0.0,0.0,0.0,0.0,0.0,0.0,0.0,0.0,0.0,0.0,0.0,0.0,0.0,0.0,0.0,0.0,0.0,0.0,0.0,0.0,0.0,0.0,0.0,0.0,0.0,0.0,0.0,0.0,0.0,0.0,0.0,0.0,0.0,0.0,0.0,0.0,0.0,0.0,0.0,0.0,0.0,0.0,0.0,0.0,4.2848,4.2321,4.1872,0.0,4.1264,4.1108,4.1108,4.111,4.1071,4.0992,0.0,0.0,0.0,0.0,0.0,0.0,0.0,0.0,0.0,0.0,0.0,0.0,0.0,0.0,0.0,0.0,0.0,0.0,0.0,0.0,0.0,0.0,0.0,0.0,0.0,0.0,0.0,0.0,0.0,0.0,0.0,0.0,0.0,0.0,0.0,0.0,0.0,0.0,0.0,0.0,0.0,0.0,0.0,0.0,0.0,0.0,0.0,0.0,0.0,0.0,0.0,0.0,0.0,0.0,0.0,0.0,0.0,0.0,0.0,0.0,0.0,0.0,0.0,0.0,0.0,0.0,0.0,0.0,0.0,0.0,0.0,0.0,0.0,0.0,0.0,0.0,0.0,0.0,0.0,0.0,0.0,0.0,0.0,0.0,0.0,0.0,0.0,0.0,0.0,0.0,0.0,0.0,0.0,0.0,0.0,0.0,0.0,0.0,0.0,0.0,0.0,0.0,4.3603,4.2201,4.1462,4.2321,4.1638,4.1108,4.1108,4.111,4.1074,0.0,0.0,0.0,0.0,0.0,0.0,0.0,0.0,0.0,0.0,0.0,0.0,0.0,0.0,0.0,0.0,0.0,0.0,0.0,0.0,0.0,0.0,0.0,0.0,0.0,0.0,0.0,0.0,0.0,0.0,0.0,0.0,0.0,0.0,0.0,0.0,0.0,0.0,0.0,0.0,0.0,0.0,0.0,0.0,0.0,0.0,0.0,0.0,0.0,0.0,0.0,0.0,0.0,0.0,0.0,0.0,0.0,0.0,0.0,0.0,0.0,0.0,0.0,0.0,0.0,0.0,0.0,0.0,0.0,0.0,0.0,0.0,0.0,0.0,0.0,0.0,0.0,0.0,0.0,0.0,0.0,0.0,0.0,0.0,0.0,0.0,0.0,0.0,0.0,0.0,0.0,0.0,0.0,0.0,0.0,0.0,0.0,0.0,0.0,0.0,0.0,0.0,0.0,4.466,4.4172,4.3704,4.3356,4.2536,4.2028,4.2028,4.1442,4.1094,4.1074,0.0,0.0,0.0,0.0,0.0,0.0,0.0,0.0,0.0,0.0,0.0,0.0,0.0,0.0,0.0,0.0,0.0,0.0,0.0,0.0,0.0,0.0,0.0,0.0,0.0,0.0,0.0,0.0,0.0,0.0,0.0,0.0,0.0,0.0,0.0,0.0,0.0,0.0,0.0,0.0,0.0,0.0,0.0,0.0,0.0,0.0,0.0,0.0,0.0,0.0,0.0,0.0,0.0,0.0,0.0,0.0,0.0,0.0,0.0,0.0,0.0,0.0,0.0,0.0,0.0,0.0,0.0,0.0,0.0,0.0,0.0,0.0,0.0,0.0,0.0,0.0,0.0,0.0,0.0,0.0,0.0,0.0,0.0,0.0,0.0,0.0,0.0,0.0,0.0,0.0,0.0,0.0,0.0,0.0,0.0,0.0,0.0,0.0,0.0,0.0,0.0,0.0,4.5597,4.5226,4.4797,4.4273,4.343,4.2786,4.2438,4.191,4.1465,4.1113,0.0,0.0,0.0,0.0,0.0,0.0,0.0,0.0,0.0,0.0,0.0,0.0,0.0,0.0,0.0,0.0,0.0,0.0,0.0,0.0,0.0,0.0,0.0,0.0,0.0,0.0,0.0,0.0,0.0,0.0,0.0,0.0,0.0,0.0,0.0,0.0,0.0,0.0,0.0,0.0,0.0,0.0,0.0,0.0,0.0,0.0,0.0,0.0,0.0,0.0,0.0,0.0,0.0,0.0,0.0,0.0,0.0,0.0,0.0,0.0,0.0,0.0,0.0,0.0,0.0,0.0,0.0,0.0,0.0,0.0,0.0,0.0,0.0,0.0,0.0,0.0,0.0,0.0,0.0,0.0,0.0,0.0,0.0,0.0,0.0,0.0,0.0,0.0,0.0,0.0,0.0,0.0,0.0,0.0,0.0,0.0,0.0,0.0,0.0,0.0,0.0,0.0,4.63,4.5617,4.5129,4.5129,4.4344,4.3469,4.2594,4.2457,4.2031,4.1152,0.0,0.0,0.0,0.0,0.0,0.0,0.0,0.0,0.0,0.0,0.0,0.0,0.0,0.0,0.0,0.0,0.0,0.0,0.0,0.0,0.0,0.0,0.0,0.0,0.0,0.0,0.0,0.0,0.0,0.0,0.0,0.0,0.0,0.0,0.0,0.0,0.0,0.0,0.0,0.0,0.0,0.0,0.0,0.0,0.0,0.0,0.0,0.0,0.0,0.0,0.0,0.0,0.0,0.0,0.0,0.0,0.0,0.0,0.0,0.0,4.3183,0.0,0.0,0.0,0.0,0.0,0.0,0.0,0.0,0.0,0.0,0.0,0.0,0.0,0.0,0.0,0.0,0.0,0.0,0.0,0.0,0.0,0.0,0.0,0.0,0.0,0.0,0.0,0.0,0.0,0.0,0.0,0.0,0.0,0.0,0.0,0.0,0.0,0.0,0.0,0.0,0.0,4.63,4.6144,4.6027,4.6027,4.5246,4.4367,4.3509,4.2789,4.2031,4.1152,4.1094,0.0,0.0,0.0,0.0,0.0,0.0,0.0,0.0,0.0,0.0,0.0,0.0,0.0,0.0,0.0,0.0,0.0,0.0,0.0,0.0,0.0,0.0,0.0,0.0,0.0,0.0,0.0,0.0,0.0,0.0,0.0,0.0,0.0,0.0,0.0,0.0,0.0,0.0,0.0,0.0,0.0,0.0,0.0,0.0,0.0,0.0,0.0,0.0,0.0,0.0,0.0,0.0,0.0,0.0,0.0,0.0,0.0,0.0,0.0,0.0,4.3262,0.0,0.0,0.0,0.0,0.0,0.0,0.0,0.0,0.0,0.0,0.0,0.0,0.0,0.0,0.0,0.0,0.0,0.0,0.0,0.0,0.0,0.0,0.0,0.0,0.0,0.0,0.0,0.0,0.0,0.0,0.0,0.0,0.0,0.0,0.0,0.0,0.0,0.0,0.0,0.0,4.63,4.63,4.63,4.63,4.589,4.5265,4.4403,4.3523,4.2651,4.1772,4.1327,0.0,0.0,0.0,0.0,0.0,0.0,0.0,0.0,0.0,0.0,0.0,0.0,0.0,0.0,0.0,0.0,0.0,0.0,0.0,0.0,0.0,0.0,0.0,0.0,0.0,0.0,0.0,0.0,0.0,0.0,0.0,0.0,0.0,0.0,0.0,0.0,0.0,0.0,0.0,0.0,0.0,0.0,0.0,0.0,0.0,0.0,0.0,0.0,0.0,0.0,0.0,0.0,0.0,0.0,0.0,4.4141,4.4141,4.4551,4.5195,4.4473,4.4473,4.4883,0.0,0.0,0.0,0.0,0.0,0.0,0.0,0.0,0.0,0.0,0.0,0.0,0.0,0.0,0.0,0.0,0.0,0.0,0.0,0.0,0.0,0.0,0.0,0.0,0.0,4.6309,4.6306,0.0,0.0,0.0,0.0,0.0,0.0,0.0,0.0,0.0,0.0,0.0,0.0,4.63,4.63,4.63,4.63,4.63,4.5948,4.507,4.4351,4.3492,4.2458,4.1715,4.1289,0.0,0.0,0.0,0.0,0.0,0.0,0.0,0.0,0.0,0.0,0.0,0.0,0.0,0.0,0.0,0.0,0.0,0.0,0.0,0.0,0.0,0.0,0.0,0.0,0.0,0.0,0.0,0.0,0.0,0.0,0.0,0.0,4.3535,4.3535,0.0,0.0,0.0,0.0,0.0,0.0,0.0,0.0,0.0,0.0,0.0,0.0,0.0,0.0,4.3691,4.4453,4.4824,4.4844,4.5605,4.5957,4.5957,4.5957,4.6016,4.6113,4.6016,0.0,4.498,4.4746,0.0,0.0,0.0,0.0,0.0,0.0,0.0,0.0,0.0,0.0,0.0,0.0,0.0,0.0,0.0,0.0,0.0,0.0,0.0,0.0,0.0,0.0,4.6308,4.6308,4.6308,4.6306,0.0,4.63,4.63,4.63,0.0,0.0,0.0,0.0,0.0,0.0,0.0,0.0,4.63,4.63,4.63,4.63,4.63,4.5948,4.507,4.4894,4.4133,4.2497,4.2281,4.1914,4.123,4.1191,0.0,0.0,0.0,0.0,0.0,0.0,0.0,0.0,0.0,0.0,0.0,0.0,0.0,0.0,0.0,0.0,0.0,0.0,0.0,0.0,0.0,0.0,0.0,0.0,0.0,0.0,0.0,0.0,0.0,4.3456,4.3887,4.4375,4.3652,4.3476,0.0,0.0,0.0,0.0,0.0,0.0,0.0,0.0,0.0,4.5156,4.5156,4.5156,4.5156,4.5547,4.5723,4.5742,4.6113,4.6308,4.6308,4.6308,4.6303,4.6292,4.6292,4.6354,4.6387,4.5391,4.4785,4.4375,0.0,0.0,0.0,0.0,0.0,4.5156,4.5156,0.0,0.0,0.0,0.0,0.0,0.0,0.0,0.0,0.0,0.0,0.0,0.0,0.0,0.0,4.6308,4.6306,4.6297,4.6303,4.63,4.63,0.0,4.6295,4.6303,4.6303,0.0,0.0,0.0,0.0,0.0,4.63,4.63,4.6306,4.6301,4.6303,4.6147,4.5756,4.5275,4.468,4.3918,4.2945,4.2246,4.1894,4.1445,4.1172,0.0,0.0,0.0,0.0,0.0,0.0,0.0,0.0,0.0,0.0,0.0,0.0,0.0,0.0,0.0,0.0,0.0,0.0,0.0,0.0,0.0,0.0,0.0,0.0,0.0,0.0,0.0,0.0,4.4082,4.4609,4.5254,4.4551,4.4375,0.0,0.0,0.0,0.0,0.0,0.0,4.623,4.5683,4.5625,4.6289,4.6308,4.6308,4.6308,4.6308,4.6308,4.6308,4.6308,4.6307,4.6301,4.6523,4.6629,4.6612,4.6833,4.7303,4.7793,4.6289,4.5801,4.5937,4.5273,4.543,4.5996,4.5996,4.6406,4.6973,4.6973,4.6973,4.6933,4.6719,0.0,4.6308,4.6308,0.0,0.0,0.0,0.0,4.6308,4.6308,0.0,4.6308,4.6308,4.6305,4.629,4.6303,4.63,4.63,0.0,4.6303,4.6308,4.6308,0.0,0.0,0.0,0.0,4.6293,4.6293,4.6293,4.63,4.6308,4.6308,4.6308,4.6308,4.5712,4.5246,4.5012,4.3785,4.2969,4.2734,4.1933,4.1484,4.1426,0.0,0.0,0.0,0.0,0.0,0.0,0.0,0.0,0.0,0.0,0.0,0.0,0.0,0.0,0.0,0.0,0.0,0.0,0.0,0.0,0.0,0.0,0.0,0.0,0.0,0.0,0.0,0.0,0.0,4.623,4.5469,0.0,0.0,0.0,0.0,4.623,4.6211,4.6211,4.6308,4.6269,4.625,4.6308,4.6308,4.6308,4.6308,4.6308,4.6308,4.6308,4.6308,4.6295,4.6333,4.7159,4.7494,4.7479,4.8314,4.8708,4.8672,4.7812,4.7969,4.8691,4.8652,4.8672,4.8691,4.8691,4.873,4.8769,4.8769,4.8769,4.8633,4.7793,4.6973,4.6308,4.6308,4.6308,0.0,0.0,4.6308,4.6308,4.6308,4.6308,4.6308,4.6308,4.6308,4.6307,4.6306,4.63,4.63,0.0,4.6303,4.6308,4.6308,0.0,4.6293,4.6308,4.6308,4.6308,4.6308,4.6308,4.6308,4.6308,4.6308,4.6308,4.6308,4.6258,4.587,4.5051,4.4918,4.4492,4.3672,4.2793,4.2344,4.2324,4.1484,0.0,0.0,0.0,0.0,0.0,0.0,0.0,0.0,0.0,0.0,0.0,0.0,0.0,0.0,0.0,0.0,0.0,0.0,0.0,0.0,0.0,0.0,0.0,0.0,0.0,0.0,0.0,0.0,4.6308,4.6035,0.0,0.0,4.6016,4.5976,4.6289,4.6308,4.6308,4.6308,4.6308,4.6308,4.6308,4.6308,4.6308,4.6308,4.6308,4.6582,4.7148,4.7148,4.7439,4.7974,4.8241,4.8378,4.8412,4.8736,4.9165,4.9617,4.933,4.9094,4.8892,4.8853,4.8863,4.8886,4.886,4.8863,4.8887,4.8848,4.8867,4.8848,4.8535,4.8223,4.7969,4.7969,4.7578,4.7148,4.7148,4.6738,4.6308,4.6308,4.6308,4.6308,4.6308,4.6308,4.6308,4.6306,4.6305,4.6301,4.6303,4.6303,4.6308,4.6308,4.6307,4.6307,4.6308,4.6308,4.6308,4.6308,4.6308,4.6308,4.6308,4.6308,4.6308,4.6308,4.6307,4.6163,4.5851,4.5314,4.4858,4.4551,4.3691,4.2949,4.2344,4.1523,4.0662,0.0,0.0,0.0,0.0,0.0,0.0,0.0,0.0,0.0,0.0,0.0,0.0,0.0,0.0,0.0,0.0,0.0,0.0,0.0,0.0,0.0,0.0,0.0,0.0,0.0,0.0,4.6308,4.6308,4.6308,4.6308,4.6308,4.6308,4.6308,4.6308,4.6308,4.6308,4.6308,4.6308,4.6308,4.6306,4.6308,4.6445,4.6738,4.6738,4.7187,4.8047,4.8047,4.834,4.8906,4.9158,4.9274,4.9315,4.9628,5.0048,5.0535,5.0549,5.0214,4.9731,4.9692,4.9706,4.9736,4.969,4.9709,4.9738,4.9683,4.9507,4.9293,4.9293,4.9117,4.8864,4.8867,4.8456,4.8005,4.8027,4.7617,4.707,4.6816,4.6738,4.666,4.6367,4.6308,4.6308,4.6308,4.6308,4.6308,4.63,4.6306,4.6308,4.6308,4.6308,4.6308,4.6308,4.6308,4.6308,4.6308,4.6308,4.6308,4.6308,4.6308,4.6308,4.6308,4.6308,4.6307,4.6297,4.576,4.5436,4.541,4.459,4.3844,4.3181,4.1811,4.0496,3.9266,0.0,0.0,0.0,0.0,0.0,0.0,0.0,0.0,0.0,0.0,0.0,0.0,0.0,0.0,0.0,0.0,0.0,0.0,0.0,0.0,0.0,0.0,0.0,4.5039,4.5762,4.6308,4.6308,4.6308,4.6308,4.6308,4.6308,4.6308,4.6308,4.6308,4.6308,4.6308,4.6328,4.6345,4.6342,4.6364,4.6797,4.7637,4.7637,4.8086,4.8945,4.8945,4.8945,4.9004,4.9846,5.0191,5.0186,5.1031,5.1394,5.1394,5.1394,5.1394,5.1394,5.1394,5.1401,5.14,5.1408,5.1398,5.14,5.1406,5.0848,5.0141,5.0141,4.9575,4.888,4.8885,4.886,4.8841,4.8924,4.8867,4.8613,4.7832,4.7637,4.7422,4.6543,4.6348,4.6328,4.6308,4.6308,4.6308,4.6308,4.6308,4.6308,4.6308,4.6308,4.6308,4.6308,4.6308,0.0,4.6308,4.6308,4.6308,4.6308,4.6308,4.6308,4.6308,4.6308,4.6308,4.6308,4.6297,4.6276,4.6211,4.5449,4.4981,4.487,4.2376,4.0205,3.8437,0.0,0.0,0.0,0.0,0.0,0.0,0.0,0.0,0.0,0.0,0.0,0.0,0.0,0.0,0.0,0.0,0.0,0.0,0.0,0.0,0.0,0.0,4.5937,4.5937,4.6152,4.6308,4.6308,4.6308,4.6308,4.6308,4.6308,4.6308,4.6308,4.6308,4.6308,4.6308,4.6894,4.7246,4.7244,4.7851,4.8301,4.8535,4.8535,4.8984,4.9844,4.9797,5.01,5.0725,5.0952,5.106,5.1065,5.1302,5.1394,5.1394,5.1405,5.1391,5.1401,5.1391,5.1405,5.1386,5.1347,5.1366,5.1405,5.141,5.1245,5.1035,5.1035,5.0881,5.0693,5.0692,5.0245,4.9747,4.9761,4.9298,4.8753,4.8538,4.8472,4.8262,4.7441,4.7246,4.707,4.6445,4.6308,4.6308,4.6308,4.6308,4.6308,4.6308,4.6308,4.6307,4.6297,0.0,0.0,4.6308,4.6308,4.6308,4.6308,4.6308,4.6308,4.6308,4.6308,4.6308,4.6308,4.6297,4.6284,4.6273,4.6,4.5223,4.3837,4.1869,4.0289,0.0,0.0,0.0,0.0,0.0,0.0,0.0,0.0,0.0,0.0,0.0,0.0,0.0,0.0,0.0,0.0,0.0,0.0,0.0,0.0,0.0,0.0,4.6308,4.6308,4.6308,4.6308,4.6308,4.6308,4.6308,4.6308,4.6308,4.6307,4.644,4.6811,4.683,4.6987,4.734,4.7847,4.8123,4.8105,4.8613,4.9059,4.9391,4.9431,4.9863,5.0697,5.0664,5.0918,5.1396,5.14,5.1408,0.0,5.1408,5.1401,5.1401,5.1394,5.14,0.0,0.0,0.0,0.0,0.0,5.1369,5.1405,5.1372,5.1386,5.1394,5.1369,5.1349,5.1355,5.1394,5.1031,5.0606,5.0628,5.029,4.982,4.9444,4.9332,4.9124,4.83,4.8104,4.7965,4.748,4.7109,4.6836,4.6836,0.0,0.0,4.6308,4.6308,4.6307,4.6306,4.63,4.6306,0.0,4.6307,4.6308,4.6308,4.6261,4.6248,4.6248,4.6234,0.0,0.0,0.0,4.6229,4.6229,4.6153,0.0,0.0,0.0,4.1783,4.05,0.0,0.0,0.0,3.8266,3.7891,0.0,0.0,0.0,0.0,0.0,0.0,0.0,0.0,0.0,0.0,0.0,0.0,0.0,0.0,0.0,0.0,4.6308,4.6308,4.6308,4.6386,4.6406,4.6308,4.6308,4.6347,4.6445,4.6454,4.6807,4.7666,4.7744,4.806,4.8763,0.0,0.0,0.0,0.0,4.9517,5.0236,5.0409,5.0832,5.155,5.1629,5.1674,5.1687,5.1674,5.1687,5.1687,5.1674,5.1681,5.1661,5.1583,5.1486,5.1388,5.1388,5.138,5.1391,5.14,5.1394,0.0,0.0,0.0,0.0,5.1336,5.1317,5.131,5.1375,5.1356,5.1317,5.1369,5.1388,5.123,5.0443,5.0248,5.003,4.9153,4.8955,4.8945,4.8903,4.8281,4.7754,4.7754,4.7129,4.6582,4.6581,4.6425,4.6306,4.6306,4.6303,0.0,4.63,4.6285,4.6288,4.6284,0.0,0.0,4.6181,4.6134,4.6096,4.6096,4.6096,4.6088,4.6088,4.6026,4.5582,4.4692,4.4673,4.386,4.2138,4.2014,4.1494,4.0616,3.9114,3.8354,0.0,0.0,0.0,0.0,0.0,0.0,0.0,0.0,0.0,0.0,0.0,0.0,0.0,0.0,0.0,4.6308,4.6303,4.6297,4.6308,4.6908,4.709,4.6387,4.629,4.6583,4.7286,4.7361,4.7686,4.8502,4.856,4.8658,4.8873,4.9516,0.0,4.984,5.0546,5.0988,5.1147,5.1862,5.2291,5.2464,0.0,0.0,5.3423,5.3423,5.3416,5.3416,5.342,5.3413,5.3354,5.2653,5.1951,5.1316,5.131,5.1317,5.1323,5.1317,5.1343,5.1394,5.1388,5.1394,5.1394,5.1369,5.1343,5.1291,5.131,5.131,0.0,5.1317,5.1362,5.1362,5.1187,5.1141,5.0927,5.0054,4.9885,4.9738,4.9054,4.8769,4.8652,4.8652,4.8516,4.8397,4.8401,4.7227,4.6293,4.6297,4.6309,4.63,4.63,4.625,4.6211,4.623,4.6163,4.6124,4.6118,4.6106,4.6106,4.6106,4.6106,4.6042,4.5944,4.5988,4.5529,4.4548,4.4601,4.4065,4.2969,4.2816,4.2315,4.1437,4.0386,3.9538,0.0,0.0,0.0,0.0,0.0,0.0,0.0,0.0,0.0,0.0,0.0,4.5644,0.0,0.0,4.6308,4.6303,4.6293,4.6443,4.6885,4.7325,4.7432,4.7002,4.7318,4.7725,4.8154,4.8232,4.8584,4.938,4.9455,4.9653,5.0121,5.0523,5.0757,5.0754,5.1171,5.1601,5.2055,5.2473,5.2894,5.3319,5.3708,5.3888,5.3888,5.3908,5.3908,5.3908,5.3892,5.3892,5.3872,5.3424,5.2742,5.1943,5.1951,5.1686,5.1296,5.1296,5.1323,5.1349,5.1349,5.1356,5.1343,5.1343,5.1336,5.1317,5.1343,5.1336,5.1317,5.1343,5.1343,5.1343,5.1343,5.1349,5.1245,5.0849,5.0742,5.0633,5.0243,4.9807,4.9506,4.9531,4.9199,4.8904,4.8899,4.817,4.7455,4.7012,4.6557,4.6249,4.6249,4.6184,4.6144,4.6145,4.6084,4.605,4.606,4.5988,4.5949,4.5949,4.5949,4.5921,4.5858,4.5873,4.567,4.5148,4.5167,4.4935,4.4399,4.3906,4.3398,4.287,4.1973,4.09,0.0,0.0,0.0,0.0,0.0,0.0,0.0,0.0,4.5254,4.5254,4.58,4.6308,4.6308,4.6308,4.6363,4.6541,4.6554,4.6846,4.7705,4.7975,4.8092,4.8096,4.8509,4.8876,4.9048,4.9107,4.9478,5.0297,5.0355,5.0653,5.1355,5.1408,5.1406,5.1404,5.1405,5.1806,5.2669,5.2675,5.3159,5.4137,5.4134,5.4223,5.4381,5.4381,5.4381,5.4381,5.4215,5.4048,5.3892,5.3716,5.3132,5.2353,5.2353,5.1924,5.13,5.13,5.13,5.13,5.13,5.1289,5.1303,5.1303,5.1303,5.131,5.1362,5.1336,5.1317,5.1369,5.1343,5.1317,5.1317,5.1323,5.1335,5.1395,5.1362,5.1323,5.1396,5.0849,5.0376,5.0429,4.9863,4.9375,4.9371,4.9248,4.8833,4.7952,4.7187,4.6686,4.6694,4.662,4.6507,4.6352,4.6259,4.6162,4.5988,4.5858,4.58,4.58,4.58,4.5805,4.5815,4.58,4.5795,4.5757,4.5747,4.5703,4.5606,4.4877,4.4376,4.4109,4.3369,4.2126,4.6308,4.6875,4.7422,4.7324,4.7305,4.7285,0.0,0.0,4.6152,4.6152,4.6223,4.6295,4.6308,4.6301,4.656,4.7338,4.7455,4.7744,4.8541,4.9321,4.9813,4.9813,4.9224,4.9107,4.9887,4.9965,5.0313,5.1196,5.1245,5.1303,5.1386,5.1405,5.1391,5.1401,5.1396,5.179,5.2597,5.262,5.3403,5.4976,5.4968,5.5369,5.6124,5.6124,5.6124,5.6085,5.5298,5.4556,5.3833,5.3054,5.2236,5.1448,5.1456,5.1398,5.13,5.13,5.13,5.13,5.13,5.13,5.13,5.13,5.13,5.13,5.1308,5.1316,5.1291,5.1317,5.1343,5.1394,5.1394,5.1388,5.1388,5.1394,5.1382,5.1395,5.1394,5.133,5.1269,5.1269,5.1191,5.1109,5.1043,5.0445,4.9673,4.8806,4.8532,4.8423,4.8425,4.8319,4.7971,4.7248,4.7055,4.6651,4.5877,4.58,4.58,4.58,4.58,4.5805,4.5815,4.58,4.5735,4.562,4.5611,4.5606,4.5606,4.5378,4.4898,4.4185,4.3956,4.2985,4.8242,4.8808,4.9101,4.9062,4.9043,4.8808,4.7812,4.7321,4.6905,4.6397,4.629,4.629,4.6308,4.671,4.7174,0.0,4.7998,4.8584,4.9439,4.9868,5.0282,5.0809,5.0535,5.0457,5.0828,5.0867,5.1019,5.1377,5.1396,5.1401,5.1406,5.1401,5.1396,5.14,5.1406,5.182,5.2659,5.2654,5.324,5.4415,5.4885,5.5294,5.5654,5.6174,5.6417,5.6417,5.555,5.4974,5.4593,5.3716,5.284,5.206,5.206,5.1749,5.13,5.13,5.13,5.13,5.13,5.13,5.13,5.13,5.13,5.13,5.13,5.1308,5.1296,5.1296,5.1316,5.1342,5.1342,5.1342,5.1342,5.1342,5.1342,5.1355,5.1394,5.1804,5.1997,5.1441,5.1787,5.1966,5.1347,5.1035,5.0702,5.0251,4.9307,4.8632,4.8635,4.8564,4.8378,4.8031,4.794,4.755,4.6693,4.6568,4.6341,4.5819,4.58,4.5805,4.5815,4.5765,4.5703,4.5603,4.5601,4.5565,4.5493,4.5437,4.5201,4.4836,4.4779,4.4111,4.9316,4.9804,4.9938,5.0368,5.027,4.9782,4.8571,4.8094,4.7689,4.6839,4.6834,4.6912,4.6695,4.7366,4.8014,4.8248,4.8775,4.9458,5.034,5.0457,5.0692,5.1316,5.1405,5.1408,5.1408,5.1402,5.139,5.1401,5.141,5.1394,5.139,5.1375,5.1484,5.1747,5.1759,5.2273,5.3373,5.3179,5.357,5.4584,5.4966,5.5235,5.5475,5.6086,5.6407,5.6426,5.555,5.518,5.5139,5.427,5.353,5.2957,5.2957,5.243,5.1671,5.1671,5.1515,5.13,5.13,5.13,5.13,5.13,5.13,5.13,5.13,5.13,5.13,5.13,5.13,5.13,5.13,5.13,5.13,5.13,5.13,5.132,5.1359,5.1885,5.2138,5.144,5.204,5.2425,5.1658,5.1637,5.1651,5.1541,5.0277,4.9323,4.9323,4.9066,4.8877,4.8865,4.8631,4.825,4.7616,4.7511,4.7192,4.6554,4.6283,4.6153,4.6162,4.5866,4.5665,4.558,4.5552,4.5495,4.5354,4.5354,4.5335,4.5297,4.5297,4.4972,4.8457,4.8938,4.9325,5.0965,5.0731,5.0087,5.0048,4.9368,4.8538,4.7733,4.8174,4.8482,4.7701,4.8213,4.9032,4.9891,5.0048,5.036,5.1238,5.1355,5.1375,5.1394,5.14,5.1406,0.0,5.1394,5.139,5.1401,5.1398,5.1402,5.1401,5.1348,5.1717,5.2621,5.2654,5.3456,5.5109,5.4355,5.4761,5.6309,5.5562,5.5606,5.6358,5.6325,5.6345,5.6358,5.5472,5.5132,5.5119,5.4262,5.3872,5.3853,5.3853,5.3327,5.2567,5.2567,5.2041,5.13,5.13,5.13,5.13,5.13,5.13,5.13,5.13,5.13,5.13,5.13,5.13,5.13,5.13,5.13,5.13,5.13,5.13,5.13,5.13,5.1378,5.1419,5.1324,5.2016,5.2549,5.2385,5.2421,5.244,5.2369,5.1644,5.1125,5.1125,5.0386,4.9819,4.9776,4.9007,4.8476,4.8468,4.8401,4.8353,4.8314,4.7521,4.7062,4.7055,4.6175,4.5642,4.5507,4.5454,4.538,4.5297,4.5297,4.5297,4.5297,4.5297,4.5277,5.0254,5.0559,5.0692,5.1258,5.118,5.0809,5.0223,4.9872,4.9427,4.8577,4.861,4.8716,4.8443,4.9087,4.9755,5.0048,5.0594,5.1277,5.2136,5.1765,5.1598,5.2126,5.1697,0.0,0.0,0.0,0.0,5.1328,5.1322,5.132,5.1328,5.1852,5.2303,5.2617,5.3242,5.3827,5.4394,5.4132,5.4267,5.4804,5.5034,5.5591,5.6406,5.6333,5.6336,5.6359,5.5473,5.5141,5.5139,5.4262,5.3911,5.3911,5.3911,5.3716,5.3463,5.3463,5.2918,5.208,5.1495,5.13,5.13,5.13,5.13,5.13,5.13,5.13,5.13,5.13,5.13,5.13,5.13,5.13,5.13,5.13,5.13,5.1296,5.1302,5.1772,5.2175,5.2108,5.2865,5.3476,5.3294,5.3327,5.3149,5.2491,5.1715,5.1202,5.1202,5.095,5.0744,5.0719,5.0435,5.0002,4.942,4.9301,4.9021,4.843,4.8071,4.7902,4.7886,4.7518,4.727,4.7233,4.7162,4.7088,4.7044,4.7082,4.7063,4.6967,4.7006,4.7044,5.0718,5.0942,5.1004,5.1297,5.1375,5.1252,5.0663,5.0547,5.0309,4.9411,4.9506,4.9639,4.9326,4.9988,5.0568,5.0555,5.1034,5.1609,5.2155,5.1756,5.1582,5.2087,5.1613,5.1249,0.0,0.0,0.0,5.1324,5.1577,5.1733,5.1753,5.2569,5.3178,5.3525,5.4108,5.4596,5.4931,5.4935,5.4923,5.4903,5.5343,5.5867,5.6402,5.6328,5.6325,5.6338,5.6106,5.6018,5.6028,5.5491,5.5258,5.5219,5.4944,5.4632,5.4359,5.4359,5.3814,5.2976,5.243,5.2041,5.1826,5.2138,5.2236,5.2236,5.2236,5.2236,5.2236,5.2236,5.2236,5.2236,5.2236,5.2236,5.2236,5.2236,5.1986,5.1759,5.1757,5.1958,5.2207,5.2453,5.3279,5.3973,5.4148,5.421,5.3941,5.3044,5.2461,5.1905,5.128,5.1202,5.1202,5.1202,5.1139,5.0882,5.0313,5.0201,4.9926,4.932,4.8961,4.8739,4.8726,4.8314,4.8103,4.8099,4.8029,4.7991,4.795,4.7982,4.7963,4.7853,4.7924,4.7939,4.9946,5.0168,5.0351,5.1112,5.1346,5.1386,5.1317,5.1339,5.1137,5.0243,5.0789,5.1149,0.0,0.0,5.1405,5.1402,5.1382,5.1406,5.1465,5.1426,5.1384,0.0,0.0,0.0,0.0,0.0,0.0,5.1421,0.0,5.259,5.2655,5.3428,5.4278,5.5177,5.5245,5.5694,5.6586,5.6606,5.6563,5.6499,5.6429,5.6405,5.6399,5.632,5.6321,5.6399,5.7235,5.7636,5.767,5.7731,5.776,5.7693,5.6922,5.6093,5.5325,5.5325,5.4749,5.397,5.4028,5.3424,5.2801,5.3638,5.3911,5.3911,5.3911,5.3911,5.3911,5.3911,5.3911,5.3911,5.3911,5.3911,5.3892,5.3833,5.3208,5.2585,5.255,5.1927,5.1597,5.24,5.3312,5.4183,5.4946,5.513,5.4868,5.3993,5.3876,5.3233,5.1486,5.126,5.1241,5.1202,5.1139,5.1095,5.1095,5.1029,5.0971,5.0906,5.0124,4.9633,4.9565,4.8701,4.8241,4.824,4.8164,4.8126,4.8126,4.8149,4.813,4.8126,4.8127,4.8132,5.0848,5.1068,5.1125,5.132,5.1339,5.1316,5.131,5.132,5.1265,5.1073,5.1224,5.1328,0.0,0.0,0.0,5.1322,5.1327,0.0,5.2192,5.1698,0.0,5.2116,0.0,5.1208,5.1208,5.1944,0.0,0.0,5.2921,5.3418,5.3485,5.4292,5.4909,5.519,5.587,5.6367,5.6606,5.6549,5.6521,5.6504,5.6426,5.6406,5.6396,5.6328,5.6652,5.7274,5.7507,5.7967,5.8565,5.8585,5.8596,5.8576,5.8362,5.7799,5.706,5.706,5.6134,5.4963,5.5606,5.4846,5.3619,5.3833,5.3911,5.3911,5.3911,5.3911,5.3911,5.3911,5.3911,5.3911,5.3911,5.3911,5.3752,5.3078,5.2767,5.2423,5.1775,5.198,5.2503,5.3315,5.4702,5.5812,5.6008,5.6105,5.5833,5.4918,5.4772,5.4139,5.2394,5.2169,5.1905,5.126,5.1171,5.1139,5.1095,5.1029,5.0971,5.0906,5.0615,5.0411,5.0393,5.0106,4.9988,5.0045,4.9967,4.995,4.9933,4.9988,4.997,4.9856,4.9912,4.993,5.1185,5.1316,5.1319,5.1319,5.1275,5.1259,5.1261,5.1256,5.1287,5.1343,5.1371,5.1382,5.1359,5.1364,0.0,0.0,0.0,0.0,5.1913,5.1525,5.1382,0.0,5.15,0.0,5.2232,5.304,5.3849,0.0,5.4789,5.4859,5.4902,5.5745,5.6258,5.6301,5.6489,5.677,5.7118,5.7441,5.7415,5.7037,5.7356,5.7318,5.6982,5.7278,5.7658,5.8143,0.0,5.8972,5.9432,5.9456,5.9476,5.9437,5.904,5.8635,5.8237,5.8237,5.7391,5.631,5.6797,5.6115,5.4995,5.5033,5.5013,5.5004,5.5004,5.5013,5.5041,5.5015,5.4995,5.5004,5.4995,5.5006,5.4877,5.4384,5.4006,5.3603,5.3117,5.3108,5.3423,5.4253,5.5511,5.6446,5.6446,5.6474,5.6318,5.5784,5.5716,5.521,5.3828,5.3302,5.2736,5.1866,5.1769,5.1602,5.1178,5.1075,5.1005,5.0906,5.0791,5.0739,5.0683,5.0643,5.0622,5.07,5.0638,5.0621,5.0644,5.0683,5.0664,5.0587,5.0625,5.0644,5.122,5.121,5.119,5.119,5.119,5.1191,5.1194,5.1191,5.1226,5.1307,5.1355,5.1385,5.1328,5.1308,5.1308,5.1288,0.0,5.1206,5.1206,5.1206,5.12,5.1206,5.1311,5.1979,5.3565,5.4599,5.5855,5.7468,5.7113,5.677,5.6647,5.7332,5.7652,5.7572,5.7035,5.7098,5.7793,5.859,5.8612,5.7879,5.8562,5.852,5.7875,5.8511,5.8875,5.9011,0.0,0.0,6.0273,6.0339,6.0352,6.0287,5.9534,5.9176,5.906,5.906,5.8515,5.7767,5.7767,5.7242,5.6542,5.6504,5.6446,5.6407,5.6407,5.6437,5.6465,5.6427,5.6407,5.6398,5.6397,5.6397,5.6378,5.6264,5.5712,5.5174,5.5052,5.4523,5.4325,5.5205,5.5976,5.6503,5.6503,5.6503,5.6503,5.6503,5.6503,5.621,5.5385,5.4519,5.3643,5.2775,5.2677,5.2317,5.1447,5.1296,5.117,5.0941,5.0825,5.0757,5.0702,5.0643,5.0643,5.0702,5.0641,5.0641,5.0702,5.0702,5.0702,5.0702,5.0702,5.0702,5.1212,5.1205,5.1199,5.1139,5.1114,5.1134,5.1192,5.1205,5.1228,5.1369,5.1386,5.1402,5.1379,5.1338,5.1289,5.1227,5.1213,5.1197,5.121,5.119,5.119,0.0,5.183,5.2675,5.3685,0.0,0.0,0.0,0.0,0.0,5.8559,5.7994,5.7432,5.6806,5.7315,5.7656,5.7793,5.8548,5.885,5.8694,5.8832,5.8838,5.8698,5.881,5.9251,5.9885,0.0,0.0,6.1186,6.1186,6.1186,6.1167,6.1025,6.0553,5.9969,5.9969,5.9418,5.8682,5.8682,5.8114,5.7286,5.663,5.6397,5.6397,5.6397,5.6416,5.6397,5.6397,5.6397,5.6397,5.6386,5.6396,5.6231,5.5579,5.5292,5.4991,5.427,5.4567,5.5229,5.6118,5.6402,5.6503,5.6503,5.6503,5.6503,5.6503,5.6503,5.6444,5.6288,5.5443,5.4548,5.3682,5.3574,5.3213,5.2355,5.2156,5.1765,5.1044,5.0827,5.0701,5.0702,5.0683,5.0702,5.0702,5.0682,5.0682,5.0702,5.0702,5.0702,5.0702,5.0702,5.0702,5.1164,5.1145,5.1139,5.1106,5.1073,5.1073,5.1192,5.1199,5.124,5.1363,5.1031,5.0856,5.1318,5.0962,5.0761,5.1177,5.1226,5.1201,5.12,5.1189,5.12,5.121,5.1579,5.2708,0.0,0.0,0.0,0.0,0.0,0.0,5.9679,5.8841,5.7836,5.6641,5.7793,5.8426,5.8426,5.9607,5.9988,5.9571,6.0001,5.9976,5.9588,6.0009,6.0404,6.0778,6.0778,0.0,6.14,6.14,6.14,6.14,6.14,6.1147,6.0825,6.0825,6.0275,5.9529,5.9529,5.8953,5.8163,5.7767,5.7053,5.6345,5.6345,5.6375,5.6386,5.6353,5.6377,5.6387,5.6359,5.6359,5.6309,5.595,5.5896,5.5798,5.5343,5.558,5.6003,5.643,5.6492,5.6503,5.6503,5.6503,5.6503,5.6503,5.6503,5.6503,5.6503,5.6104,5.5482,5.4568,5.448,5.412,5.3263,5.2666,5.2161,5.1712,5.1128,5.0775,5.0701,5.0702,5.0702,5.0702,5.0702,5.0702,5.0702,5.0702,5.0702,5.0702,5.0702,5.0702,5.1063,5.0928,5.0807,5.0801,5.0613,5.0521,5.086,5.079,5.0743,5.1068,5.0441,5.0053,5.0728,5.0379,5.0214,0.0,5.1113,5.1199,5.121,5.1201,5.1229,0.0,5.1386,0.0,5.6085,0.0,0.0,0.0,0.0,0.0,0.0,5.9181,5.8084,5.6645,5.8159,5.9002,5.9002,6.0611,6.1084,6.0469,6.1103,6.1064,6.0488,6.1122,6.14,6.14,6.14,0.0,0.0,6.14,6.14,6.14,6.14,6.14,6.14,6.14,6.0973,6.037,6.037,5.9807,5.9088,5.9088,5.8053,5.6795,5.662,5.6625,5.6617,5.636,5.6339,5.6371,5.6324,5.638,5.6448,5.6504,5.6551,5.6591,5.6532,5.6499,5.6497,5.6488,5.6492,5.6503,5.6503,5.6503,5.6503,5.6503,5.6503,5.6503,5.6503,5.6503,5.623,5.5482,5.5404,5.5045,5.4129,5.337,5.2764,5.2341,5.1583,5.102,5.0757,5.0701,5.0701,5.0701,5.0702,5.0702,5.0702,5.0702,5.0702,5.0702,5.0702,5.0702,5.0956,5.0395,4.9824,4.9819,4.9234,4.888,4.9803,4.944,4.9176,5.0037,4.9575,4.9013,4.903,4.958,5.0035,5.0121,5.0722,5.1193,5.1206,5.1242,5.1287,5.1287,0.0,0.0,5.6145,0.0,0.0,0.0,0.0,0.0,0.0,5.8357,5.7504,5.6626,5.8159,5.9002,5.9002,6.0611,6.1361,6.1283,6.1361,6.1361,6.1283,6.1381,6.14,6.14,0.0,0.0,0.0,6.14,6.14,6.14,6.14,6.14,6.14,6.14,6.1361,6.1283,6.1283,6.072,5.9982,5.9982,5.9341,5.8428,5.7703,5.7489,5.732,5.6524,5.6308,5.6316,5.6379,5.6445,5.6503,5.6566,5.6602,5.661,5.6585,5.6536,5.6499,5.6504,5.6488,5.6503,5.6503,5.6503,5.6503,5.6503,5.6503,5.6503,5.6503,5.6503,5.6464,5.6386,5.6366,5.5969,5.4972,5.482,5.4058,5.2395,5.2108,5.1672,5.0902,5.0775,5.0701,5.0701,5.07,5.0701,5.0702,5.0702,5.0702,5.0702,5.0702,5.0702,4.9427,4.919,4.898,4.8938,4.8681,4.858,4.9066,4.8931,4.8833,4.9289,4.8708,4.8259,4.8725,4.9053,4.9439,4.9919,5.0703,5.1263,5.126,5.1277,5.1306,5.1306,5.1607,0.0,0.0,0.0,0.0,0.0,0.0,0.0,0.0,5.9014,5.7966,5.6645,5.8159,5.9002,5.9002,6.0611,6.14,6.14,6.14,6.14,6.14,6.14,6.14,6.14,0.0,0.0,0.0,6.14,6.14,6.14,6.14,6.14,6.14,6.14,6.14,6.14,6.14,6.1167,6.0875,6.0875,6.0662,6.0118,5.8739,5.7981,5.7528,5.7169,5.6729,5.6379,5.6386,5.6488,5.6577,5.6585,5.6605,5.661,5.6591,5.6556,5.6659,5.718,5.6866,5.6656,5.7135,5.6814,5.6503,5.6503,5.6503,5.6503,5.6503,5.6503,5.6503,5.6503,5.6503,5.6309,5.5811,5.5299,5.4459,5.316,5.2504,5.1783,5.0919,5.081,5.0775,5.0775,5.072,5.0683,5.0683,5.0702,5.0702,5.0702,5.0702,5.0702,4.8416,4.8255,4.8102,4.8056,4.7908,4.7866,4.823,4.8137,4.805,4.8414,4.7781,4.7356,4.7929,4.8436,4.8961,4.9514,5.0563,5.1307,5.1308,5.131,5.1295,5.1287,0.0,0.0,0.0,0.0,0.0,0.0,0.0,0.0,0.0,5.9767,5.8695,5.7007,5.8278,5.9002,5.9002,6.0611,6.14,6.14,6.14,6.14,6.14,6.14,6.14,6.14,0.0,0.0,0.0,6.14,6.14,6.14,6.14,6.14,6.14,6.14,6.14,6.14,6.14,6.14,6.14,6.14,6.14,6.1167,5.9943,5.8817,5.7917,5.7663,5.7026,5.6434,5.6458,5.6523,5.6602,5.6602,5.6602,5.6602,5.6605,5.6547,5.6751,5.7622,5.7303,5.7131,5.7953,5.7399,5.6853,5.6853,5.6639,5.6503,5.6503,5.6503,5.6503,5.6503,5.6503,5.6446,5.6267,5.5707,5.4848,5.3664,5.2949,5.207,5.0955,5.0844,5.081,5.0793,5.0758,5.0721,5.0702,5.0702,5.0702,5.0702,5.0702,5.0702,4.8432,4.7818,4.7204,4.7204,4.6608,4.6268,4.7194,4.6796,4.6463,4.734,4.6816,4.6211,4.6229,4.7588,4.8691,4.8704,5.0176,5.1303,5.1299,5.1297,5.1292,0.0,0.0,0.0,0.0,0.0,0.0,0.0,0.0,0.0,0.0,0.0,5.9513,5.783,5.8572,5.9002,5.9002,6.0611,6.14,6.14,6.14,6.14,6.14,6.14,0.0,0.0,0.0,0.0,0.0,6.14,6.14,6.14,6.14,6.14,6.14,6.14,6.14,6.14,6.14,6.14,6.14,6.14,6.14,6.14,6.1381,6.0157,5.8629,5.7809,5.707,5.6507,5.6571,5.6606,5.6606,5.6606,5.6606,5.6606,5.6606,5.6553,5.6751,5.7636,5.7797,5.8028,5.8849,5.8256,5.7691,5.7691,5.7009,5.6503,5.6503,5.6503,5.6503,5.6503,5.6503,5.6427,5.6226,5.6194,5.5423,5.3611,5.3478,5.2705,5.0983,5.0897,5.0863,5.0793,5.0793,5.0776,5.0683,5.0702,5.0702,5.0702,5.0702,5.0702,4.6712,4.6562,4.6443,4.6383,4.6221,4.6171,4.6489,4.6357,4.6221,4.6546,4.6395,4.6192,4.6138,4.7538,4.8669,4.865,5.0141,5.1303,0.0,0.0,0.0,5.1296,0.0,0.0,0.0,0.0,0.0,0.0,0.0,0.0,0.0,0.0,5.9775,5.8658,5.9409,5.9812,5.981,6.0857,6.14,6.14,6.14,6.14,6.14,6.14,0.0,0.0,0.0,0.0,0.0,6.14,6.14,6.14,6.14,6.14,6.14,6.14,6.14,6.14,6.14,6.14,6.14,6.14,6.14,6.14,6.14,6.0604,5.9413,5.8064,5.7081,5.6454,5.6566,5.6606,5.6606,5.6606,5.6606,5.6606,5.6606,5.6582,5.6982,5.8403,5.8214,5.8239,5.9648,5.8665,5.7691,5.7691,5.7009,5.6503,5.6503,5.6503,5.6503,5.6503,5.6503,5.6427,5.6226,5.6194,5.5442,5.3611,5.3498,5.2724,5.0983,5.0897,5.0899,5.0863,5.081,5.0793,5.0776,5.072,5.0702,5.0702,5.0702,5.0682,4.5972,4.6016,4.6085,4.6047,4.6066,4.6119,4.6176,4.6156,4.6117,4.6143,4.6162,4.6142,4.6068,4.749,4.8647,4.8616,5.0099,5.1276,0.0,0.0,0.0,0.0,0.0,0.0,0.0,0.0,0.0,0.0,0.0,0.0,0.0,0.0,6.0522,5.996,6.013,6.0227,6.0194,6.0993,6.1394,6.14,6.14,6.14,6.14,6.14,0.0,0.0,0.0,0.0,0.0,6.1394,6.1394,6.1394,6.1394,6.1394,6.1394,6.14,6.14,6.14,6.14,6.14,6.14,6.14,6.14,6.14,6.14,6.0551,5.9347,5.8072,5.7079,5.6425,5.656,5.6598,5.6606,5.6606,5.6606,5.6606,5.6606,5.6836,5.747,5.8832,5.8916,5.9174,6.0545,5.9347,5.8178,5.8178,5.7223,5.6503,5.6503,5.6503,5.6503,5.6503,5.6503,5.6437,5.6244,5.596,5.5152,5.3619,5.3236,5.2407,5.0964,5.0893,5.0897,5.0899,5.0844,5.0827,5.0793,5.072,5.0702,5.0702,5.0702,5.0643,0.0,4.6056,4.6113,4.6105,4.6104,4.6119,4.6189,4.615,0.0,4.6098,4.6091,4.6068,4.6017,4.7414,4.861,4.8593,5.0062,0.0,0.0,5.1303,0.0,0.0,0.0,0.0,0.0,0.0,0.0,0.0,0.0,0.0,0.0,0.0,0.0,6.1502,6.0776,6.0358,6.0281,6.1017,6.1389,6.14,6.14,6.14,6.14,6.14,0.0,0.0,0.0,0.0,0.0,6.1402,6.1396,6.1396,6.1396,6.1396,6.1415,6.1414,6.14,6.14,6.14,6.14,6.14,6.14,6.14,6.14,6.1336,6.0143,5.8678,5.7981,5.7125,5.6437,5.6577,5.6593,5.6606,5.6665,5.668,5.6699,5.6758,5.7353,5.8155,5.902,5.9786,6.0582,6.1451,6.0146,5.8996,5.8996,5.7574,5.6522,5.658,5.658,5.658,5.658,5.658,5.6504,5.6319,5.5569,5.4669,5.3654,5.2768,5.1886,5.0945,5.0906,5.0909,5.0899,5.0893,5.0858,5.0793,5.0757,5.0702,5.0702,5.0702,5.0623,4.5755,0.0,4.6158,4.6113,4.6138,4.6189,0.0,4.6154,4.6091,4.6093,4.6056,4.6008,4.6007,4.7414,4.8599,4.861,0.0,0.0,0.0,0.0,0.0,0.0,0.0,0.0,0.0,0.0,0.0,0.0,0.0,0.0,0.0,0.0,0.0,6.1582,6.1386,6.1241,6.1114,6.1305,6.1394,6.1402,6.1402,6.1402,6.1402,6.1447,0.0,0.0,0.0,0.0,6.1479,6.1491,6.1472,6.1472,6.1472,6.1472,6.1472,6.1479,6.1479,6.1479,6.1479,6.1479,6.1479,6.1479,6.1479,6.1355,6.0682,5.9744,5.8847,5.8726,5.7618,5.6495,5.6573,5.6554,5.6684,5.7367,5.7523,5.7701,5.837,5.8656,5.904,5.9857,6.0161,6.0582,6.1451,6.0146,5.8996,5.8996,5.7574,5.6717,5.734,5.7418,5.7418,5.7418,5.7418,5.7165,5.6513,5.5619,5.4669,5.3654,5.2768,5.1886,5.0945,5.0906,5.089,5.0909,5.089,5.0858,5.0793,5.0793,5.0758,5.0702,5.0643,5.0582,4.5789,4.6005,4.6095,4.6056,4.6075,4.6122,4.616,4.6095,4.6066,4.6095,4.6046,4.6122,4.6521,4.7697,4.8738,0.0,5.0354,0.0,0.0,0.0,0.0,0.0,0.0,0.0,0.0,0.0,0.0,0.0,0.0,0.0,0.0,0.0,0.0,0.0,6.1562,6.1514,6.1445,6.144,6.146,6.146,6.146,6.146,6.146,6.1472,0.0,0.0,0.0,0.0,6.1503,6.1495,6.1507,6.1507,6.1507,6.1507,6.1507,6.1503,6.1503,6.1503,6.1503,6.1503,6.1503,6.1503,6.1503,6.1417,6.0945,5.993,5.8874,5.851,5.7458,5.6485,5.656,5.6579,5.6764,5.7601,5.7804,5.8038,5.8903,5.9384,5.9786,6.0219,6.0621,6.106,6.151,6.0146,5.8996,5.8996,5.7574,5.6795,5.7594,5.7691,5.7847,5.8256,5.7944,5.736,5.6533,5.5259,5.4263,5.3689,5.2427,5.1446,5.0925,5.0906,5.0906,5.0906,5.0909,5.0844,5.0738,5.0793,5.072,5.0623,5.0585,5.0734,4.5899,4.5937,4.5975,4.6003,4.5994,4.6007,4.6066,4.6035,4.6014,4.6075,4.6035,4.6274,4.7132,4.8019,0.0,0.0,0.0,0.0,0.0,0.0,0.0,0.0,0.0,0.0,0.0,0.0,0.0,0.0,0.0,0.0,0.0,0.0,0.0,0.0,6.1542,6.1518,6.1519,6.1509,6.1498,6.1515,6.1515,6.1515,6.1515,6.1515,0.0,0.0,0.0,0.0,6.1515,6.1528,6.1519,6.1519,6.1519,6.1519,6.1519,6.1526,6.1515,6.1515,6.1515,6.1515,6.1515,6.1515,6.1515,6.1468,6.1208,6.0118,5.8788,5.7807,5.6985,5.6441,5.656,5.6587,5.6831,5.7765,5.7992,5.8258,5.926,6.0013,6.0504,6.0504,6.1099,6.1568,6.1412,6.0068,5.8957,5.8821,5.7496,5.6795,5.7594,5.7808,5.8178,5.8918,5.8334,5.7487,5.6495,5.4782,5.3701,5.3506,5.1936,5.0976,5.0906,5.0906,5.089,5.089,5.0897,5.0829,5.0701,5.0757,5.0683,5.0521,5.07,5.1058,4.5814,4.5827,4.5854,4.598,4.5994,4.5997,4.6014,4.6003,4.6003,4.6003,4.6005,4.6277,4.7148,4.8058,4.8954,0.0,0.0,0.0,0.0,0.0,0.0,0.0,0.0,0.0,0.0,0.0,0.0,0.0,0.0,0.0,0.0,0.0,0.0,0.0,0.0,6.1584,6.1588,6.1537,6.1507,6.1509,6.1509,6.1509,6.1509,6.1568,6.1549,0.0,0.0,6.1578,6.1578,6.1578,6.1578,6.1578,6.1578,6.1578,6.1578,6.1578,6.1578,6.1578,6.1578,6.1578,6.1578,6.1578,6.1578,6.1314,5.9839,5.9194,5.8671,5.7122,5.6582,5.6489,5.6513,5.653,5.692,5.8518,5.8869,5.9259,6.0876,6.1305,6.1402,6.1402,6.151,6.1373,6.0633,5.9659,5.8743,5.8003,5.7107,5.6795,5.7594,5.8334,5.8841,5.8996,5.888,5.815,5.6544,5.475,5.3402,5.264,5.1651,5.1023,5.0906,5.0906,5.0909,5.0897,5.0899,5.0829,5.0701,5.0644,5.0606,5.0602,5.1248,5.1584,4.58,4.58,4.5814,4.5887,4.5893,4.5905,4.5949,4.5956,4.5956,4.5991,4.6374,4.6968,4.7839,0.0,4.9672,5.052,0.0,0.0,0.0,0.0,0.0,0.0,0.0,0.0,0.0,0.0,0.0,0.0,0.0,0.0,0.0,0.0,0.0,0.0,0.0,6.1606,6.1588,6.1568,6.1558,6.1549,6.1549,6.1549,6.1549,6.1588,6.1578,6.1549,0.0,6.1607,6.1607,6.1607,6.1607,6.1607,6.1607,6.1607,6.1607,6.1607,6.1607,6.1607,6.1607,6.1607,6.1607,6.1607,6.1607,6.1361,6.0089,5.9366,5.8749,5.7542,5.6855,5.6514,5.6543,5.653,5.6937,5.8699,5.9053,5.9347,6.0614,6.0906,6.0906,6.0906,6.0516,6.0224,6.0282,5.9191,5.8159,5.7749,5.7009,5.6795,5.7594,5.8042,5.8665,5.96,5.929,5.8296,5.6553,5.5178,5.363,5.1813,5.1321,5.1062,5.1005,5.1005,5.0975,5.0893,5.0897,5.0829,5.0644,5.0644,5.0606,5.0581,5.1384,5.1973,4.52,4.5355,4.551,4.551,4.5664,4.5827,4.588,4.5899,4.5977,4.6251,4.684,4.7628,0.0,4.9654,0.0,0.0,0.0,0.0,0.0,0.0,0.0,0.0,0.0,0.0,0.0,0.0,0.0,0.0,0.0,0.0,0.0,0.0,0.0,0.0,0.0,6.1606,6.1588,6.1607,6.1607,6.1607,6.1607,6.1607,6.1607,6.1607,6.1607,6.1607,6.1607,6.1607,6.1607,6.1607,6.1607,6.1607,6.1607,6.1607,6.1607,6.1607,6.1607,6.1607,6.1607,6.1607,6.1568,6.1353,6.1303,6.1105,6.0046,5.9251,5.8554,5.7725,5.7005,5.6519,5.6563,5.6536,5.6893,5.8428,5.8738,5.8918,5.9815,5.999,5.999,5.999,5.9464,5.9152,5.96,5.8587,5.7633,5.7438,5.6892,5.6717,5.734,5.7769,5.852,5.9844,5.9357,5.8079,5.5956,5.4747,5.3261,5.1244,5.1101,5.1101,5.1101,5.1067,5.1005,5.0909,5.088,5.0775,5.0606,5.0645,5.0721,5.0828,5.1674,5.2497,4.3479,4.4078,4.4697,4.4697,4.5258,4.5814,4.5874,4.5906,4.6151,4.7028,4.7256,4.7803,0.0,5.0519,0.0,0.0,0.0,0.0,0.0,0.0,0.0,0.0,0.0,0.0,0.0,0.0,0.0,0.0,0.0,0.0,0.0,0.0,0.0,0.0,0.0,6.1606,6.1588,6.1607,6.1607,6.1607,6.1607,6.1607,6.1607,6.1607,6.1607,6.1607,6.1607,6.1607,6.1607,6.1607,6.1607,6.1607,6.1607,6.1607,6.1607,6.1607,6.1607,6.1607,6.1607,6.1607,6.1461,6.0659,6.0386,6.009,5.8476,5.7944,5.7704,5.684,5.655,5.6491,5.6503,5.6504,5.6749,5.7666,5.7844,5.8022,5.8899,5.9094,5.9094,5.9094,5.9035,5.8763,5.8022,5.7769,5.7438,5.6697,5.6541,5.6522,5.658,5.7946,5.8958,5.9075,5.8931,5.7476,5.4155,5.2414,5.1396,5.119,5.114,5.1101,5.1101,5.099,5.0909,5.0899,5.0775,5.0702,5.0683,5.0643,5.0987,5.1736,5.2535,5.3376,4.3305,4.3943,4.4601,4.4601,4.5233,4.586,4.5893,4.6319,4.6816,4.7158,4.8138,4.9301,0.0,0.0,0.0,0.0,0.0,0.0,0.0,0.0,0.0,0.0,0.0,0.0,0.0,0.0,0.0,0.0,0.0,0.0,0.0,0.0,0.0,0.0,0.0,6.1594,6.1609,6.1595,6.1334,6.0808,6.1334,6.1607,6.1607,6.1607,6.1607,6.1607,6.1607,6.1607,6.1607,6.1607,6.1276,6.073,6.0185,5.9971,5.9971,5.9971,5.9971,5.9971,5.9971,5.9971,5.993,5.9605,5.9499,5.928,5.8082,5.7776,5.7617,5.6738,5.6503,5.651,5.6511,5.6491,5.673,5.7588,5.7747,5.7788,5.812,5.8178,5.8178,5.8178,5.7788,5.7496,5.7672,5.7282,5.6853,5.6541,5.6503,5.6678,5.7186,5.779,5.8597,5.9627,5.8239,5.6511,5.4666,5.2472,5.1202,5.1202,5.1178,5.1121,5.1042,5.0995,5.0937,5.0899,5.081,5.0739,5.0702,5.0664,5.1086,5.1873,5.2675,5.3453,4.2899,4.3717,4.4568,4.4595,4.526,4.5906,4.5932,4.661,4.7308,4.7597,4.9062,5.0508,5.1152,0.0,0.0,0.0,0.0,0.0,0.0,0.0,0.0,0.0,0.0,0.0,0.0,0.0,0.0,0.0,0.0,0.0,0.0,0.0,0.0,0.0,0.0,0.0,6.1193,6.1456,6.1295,6.0711,6.1315,6.1315,6.0789,6.1062,6.1198,6.1198,6.1471,6.1432,6.1198,6.1198,6.0672,5.9834,5.923,5.8996,5.8996,5.8996,5.8996,5.8996,5.8996,5.8994,5.8948,5.8695,5.8613,5.845,5.7597,5.7343,5.7265,5.6666,5.6496,5.6496,5.6503,5.6503,5.6652,5.7256,5.7357,5.7321,5.7321,5.7321,5.7321,5.7321,5.6873,5.6658,5.7223,5.6853,5.6503,5.6503,5.6483,5.666,5.7225,5.775,5.8507,5.9626,5.7437,5.5539,5.4666,5.2511,5.1171,5.1127,5.1127,5.1114,5.1004,5.0981,5.0941,5.0899,5.108,5.1027,5.072,5.1278,5.178,5.2237,5.308,5.379,4.1996,4.322,4.452,4.457,4.5254,4.5919,4.5999,4.669,4.7556,4.8433,5.0001,5.12,5.1201,5.1249,0.0,0.0,0.0,0.0,0.0,0.0,0.0,0.0,0.0,0.0,0.0,0.0,0.0,0.0,0.0,0.0,0.0,0.0,0.0,0.0,0.0,0.0,6.0295,6.1144,6.1568,6.1568,6.1568,6.0672,5.9055,5.9912,6.0302,6.0341,6.1218,6.1081,6.0282,6.0282,5.9776,5.8996,5.8977,5.8977,5.8977,5.8977,5.8977,5.8977,5.8977,5.8975,5.8831,5.8059,5.7792,5.7633,5.6751,5.6504,5.6498,5.6496,5.6496,5.6508,5.6492,5.65,5.6496,5.6496,5.65,5.6503,5.6503,5.6503,5.6503,5.6503,5.6503,5.6503,5.6503,5.6503,5.6503,5.6503,5.6446,5.6388,5.6407,5.7873,5.8882,5.8814,5.6517,5.4647,5.3773,5.2149,5.1139,5.1004,5.1004,5.1004,5.1004,5.0925,5.0899,5.0899,5.1623,5.1587,5.0793,5.2543,5.3225,5.2912,5.3862,5.4566,4.1899,4.2866,4.3873,4.4504,4.5324,4.6143,4.6768,4.7539,4.8567,5.006,5.0802,5.1197,5.1201,0.0,0.0,0.0,0.0,0.0,0.0,0.0,0.0,0.0,0.0,0.0,0.0,0.0,0.0,0.0,0.0,0.0,0.0,0.0,0.0,0.0,0.0,0.0,5.9391,5.9632,5.9464,5.886,5.886,5.9542,6.0847,6.1101,6.0886,6.0302,6.0575,6.0185,5.9347,5.8724,5.8314,5.8022,5.7457,5.7243,5.7243,5.7243,5.7243,5.7243,5.7243,5.7239,5.7196,5.6969,5.6891,5.6848,5.6588,5.6496,5.6496,5.65,5.65,5.6488,5.6508,5.6503,5.651,5.65,5.6492,5.6503,5.6503,5.6503,5.6503,5.6503,5.6503,5.6503,5.6503,5.6503,5.6483,5.6446,5.6417,5.6592,5.7173,5.8175,5.8616,5.8014,5.6175,5.466,5.3837,5.2177,5.1156,5.1082,5.1063,5.1009,5.0858,5.0844,5.0793,5.0757,5.0971,5.099,5.0793,5.1702,5.2464,5.3056,5.37,5.4356,4.286,4.3724,4.4531,4.5084,4.5611,4.6321,4.7544,4.8463,0.0,0.0,5.1171,5.1194,5.1201,0.0,0.0,0.0,0.0,0.0,0.0,0.0,0.0,0.0,0.0,0.0,0.0,0.0,0.0,0.0,0.0,0.0,0.0,0.0,0.0,0.0,0.0,0.0,5.7967,5.8644,5.8741,5.8262,5.8262,5.9081,6.0582,6.0213,5.9756,5.9269,5.9269,5.8977,5.8412,5.7574,5.7223,5.7184,5.6678,5.6503,5.6503,5.6503,5.6508,5.6498,5.6498,5.6508,5.6503,5.6502,5.6501,5.6503,5.6508,5.6492,5.65,5.6511,5.6492,5.6508,5.6488,5.6503,5.6503,5.65,5.65,5.6492,5.6511,5.6503,5.6503,5.6503,5.6483,5.6455,5.6455,5.6465,5.6456,5.6417,5.6388,5.6647,5.7495,5.7722,5.7761,5.7599,5.5721,5.4291,5.3798,5.2166,5.112,5.1042,5.1009,5.0952,5.081,5.0793,5.0793,5.0775,5.1086,5.1241,5.1239,5.2239,5.2931,5.3369,5.3994,5.4439,4.4247,4.5131,4.5822,4.596,4.6119,0.0,4.8242,4.9334,5.0231,5.1027,0.0,5.1194,0.0,0.0,0.0,0.0,0.0,0.0,0.0,0.0,0.0,0.0,0.0,0.0,0.0,0.0,0.0,0.0,0.0,0.0,0.0,0.0,0.0,0.0,0.0,0.0,5.6163,5.7732,5.8605,0.0,5.8728,5.8786,5.8845,5.8145,5.7778,5.77,5.7633,5.7594,5.7524,5.6795,5.6503,5.6503,5.6503,5.6503,5.6503,5.6503,5.6498,5.6508,5.6504,5.6503,5.6508,5.6508,5.6491,5.6503,5.6503,5.6503,5.6503,5.6503,5.6511,5.6492,5.6508,5.6496,5.6496,5.6496,5.6496,5.6488,5.65,5.6492,5.6511,5.6483,5.6446,5.6388,5.6407,5.6407,5.6406,5.6386,5.6345,5.6582,5.7392,5.6777,5.6602,5.7412,5.5216,5.3696,5.3709,5.2098,5.1056,5.0921,5.0906,5.0913,5.0926,5.0849,5.0868,5.1015,5.1699,5.2049,5.2011,5.3569,5.412,5.3746,5.4515,5.4704,4.3416,4.4281,4.5126,4.5831,4.7035,4.8141,4.851,4.9804,5.0957,5.1088,5.1159,0.0,0.0,0.0,0.0,0.0,0.0,0.0,0.0,0.0,0.0,0.0,0.0,0.0,0.0,0.0,0.0,0.0,0.0,0.0,0.0,0.0,0.0,0.0,0.0,5.4359,5.4367,5.4785,5.5358,0.0,5.604,5.6407,5.7109,5.8272,5.8421,5.7739,5.7065,5.6764,5.6742,5.6569,5.6503,5.6503,5.6503,5.6503,5.6503,5.6503,5.6498,5.6504,5.6494,5.6502,5.6508,5.6497,5.6503,5.6503,5.6503,5.6503,5.6503,5.6503,5.65,5.6508,5.6496,5.6503,5.6498,5.6498,5.6498,5.6498,5.6491,5.6496,5.648,5.6433,5.6407,5.6407,5.6407,5.6397,5.6386,5.6333,5.6309,5.6382,5.6563,5.6427,5.6362,5.6562,5.4859,5.3708,5.3708,5.2103,5.1076,5.0986,5.0981,5.1257,5.1876,5.1192,5.1138,5.1833,5.1818,5.212,5.2837,5.3467,5.38,5.3865,5.4454,5.4686,4.3671,4.4372,4.4946,4.5783,0.0,4.8588,4.8565,4.9904,5.1127,5.1075,0.0,0.0,0.0,0.0,0.0,0.0,0.0,0.0,0.0,0.0,0.0,0.0,0.0,0.0,0.0,0.0,0.0,0.0,0.0,0.0,0.0,0.0,0.0,0.0,5.2923,5.3154,5.3169,5.3656,5.4121,5.4586,5.4619,5.5084,5.5962,5.7271,5.7616,5.7141,5.671,5.6508,5.6488,5.6492,5.6503,5.6503,5.6503,5.6488,5.6504,5.6504,5.6497,5.6504,5.6503,5.6493,5.6511,5.6497,5.6491,5.6503,5.6503,5.6503,5.6503,5.6503,5.6492,5.65,5.6488,5.6476,5.6464,5.6498,5.6504,5.6498,5.6464,5.6449,5.6433,5.6417,5.6368,5.6347,5.6356,5.6345,5.6345,5.6302,5.6309,5.6297,5.6291,5.6291,5.6291,5.6207,5.4692,5.367,5.3615,5.2039,5.1023,5.0956,5.1339,5.1715,5.2043,5.199,5.2164,5.2627,5.2471,5.2727,5.346,5.3636,5.3908,5.4325,5.4591,5.4692,4.3887,4.4519,4.4986,4.5802,4.7201,0.0,4.849,4.9744,5.0908,5.1009,0.0,0.0,0.0,0.0,0.0,0.0,0.0,0.0,0.0,0.0,0.0,0.0,0.0,0.0,0.0,0.0,0.0,0.0,0.0,0.0,0.0,0.0,5.1202,5.1202,5.1843,5.223,5.2278,5.3052,5.3514,5.3671,5.3893,5.4381,5.5103,5.5762,5.6238,5.6511,5.651,5.6503,5.6503,5.6508,5.65,5.65,5.6492,5.6498,5.6489,5.6508,5.6503,5.6508,5.6489,5.6497,5.6492,5.6492,5.6492,5.6492,5.6511,5.6503,5.6503,5.6503,5.6503,5.6511,5.648,5.6433,5.6414,5.6464,5.6491,5.6464,5.6441,5.6405,5.6407,5.6377,5.6345,5.6302,5.6314,5.6314,5.6314,5.6314,5.6314,5.6321,5.6304,5.6291,5.6232,5.6121,5.4643,5.3621,5.3514,5.1958,5.1048,5.1119,5.178,5.2215,5.2339,5.3012,5.3414,5.3547,5.3332,5.3522,5.4127,5.402,5.4258,5.4799,5.4755,5.4723,4.2471,4.3646,4.4986,4.5802,4.6735,4.7667,0.0,0.0,5.0258,0.0,0.0,0.0,0.0,0.0,0.0,0.0,0.0,0.0,0.0,0.0,0.0,0.0,0.0,0.0,0.0,0.0,0.0,0.0,0.0,0.0,0.0,5.1202,5.1202,5.1202,5.1299,5.1369,5.1361,5.151,5.1979,5.2775,5.3607,5.4068,5.4186,5.4279,5.5157,5.6577,5.653,5.6504,5.6497,5.6504,5.6498,5.6491,5.6496,5.6497,5.6501,5.6493,5.6503,5.6508,5.6497,5.6489,5.6508,5.6508,5.6508,5.6508,5.6492,5.6503,5.6503,5.6503,5.6503,5.6483,5.6426,5.6417,5.6398,5.6407,5.6407,5.6435,5.648,5.6444,5.6388,5.6319,5.6306,5.6314,5.6375,5.6386,5.6386,5.6386,5.6386,5.6364,5.6304,5.6246,5.617,5.6114,5.4564,5.3507,5.3498,5.1958,5.1281,5.197,5.1968,5.2608,5.4091,5.4101,5.4345,5.4919,5.4135,5.4147,5.5031,5.4771,5.4746,5.4871,5.4829,5.4786,4.1939,4.2916,4.4059,4.4892,4.5764,4.6649,4.7653,4.8518,4.9225,0.0,0.0,0.0,0.0,0.0,0.0,0.0,0.0,0.0,0.0,0.0,0.0,0.0,0.0,0.0,0.0,0.0,0.0,0.0,0.0,0.0,5.114,5.114,5.1134,5.1139,5.1139,5.1159,5.1202,5.1242,5.1476,5.1933,5.2345,5.28,5.3268,5.3268,5.4225,5.5864,5.5806,5.6054,5.6509,5.6511,5.6504,5.6504,5.6491,5.6469,5.6445,5.6482,5.6476,5.6439,5.6497,5.6511,5.651,5.6496,5.6496,5.6508,5.6492,5.6474,5.6446,5.6446,5.6437,5.6446,5.6407,5.6377,5.6347,5.6388,5.6367,5.6345,5.6388,5.6349,5.6338,5.6314,5.6302,5.6314,5.6386,5.6407,5.6398,5.6398,5.6367,5.6333,5.6304,5.6238,5.616,5.6065,5.4552,5.353,5.3445,5.2356,5.178,5.2006,5.2877,5.3586,5.4135,5.456,5.4619,5.4372,5.4531,5.474,5.5028,5.4901,5.4871,5.4901,5.4761,5.473,4.1706,4.229,4.2975,4.4114,4.4901,4.5717,0.0,0.0,0.0,0.0,0.0,0.0,0.0,0.0,0.0,0.0,0.0,0.0,0.0,0.0,0.0,0.0,0.0,0.0,0.0,0.0,0.0,0.0,0.0,0.0,5.1101,5.1101,5.1095,5.1102,5.1095,5.1127,5.1171,5.1238,5.1313,5.1379,5.1379,5.1723,5.237,5.2362,5.3201,5.4654,5.4821,5.5382,5.6202,5.621,5.6322,5.6517,5.6511,5.6471,5.6434,5.646,5.6445,5.6396,5.6464,5.6488,5.6491,5.648,5.648,5.6461,5.6474,5.6437,5.6398,5.6398,5.6407,5.6406,5.6375,5.6345,5.6314,5.6364,5.6348,5.6304,5.6309,5.6294,5.6314,5.6329,5.6341,5.6345,5.6407,5.6427,5.6417,5.6378,5.6328,5.629,5.6259,5.6209,5.6133,5.5995,5.4733,5.3765,5.343,5.2882,5.2425,5.2242,5.3609,5.4361,5.4249,5.4806,5.4657,5.3726,5.4429,5.4733,5.4598,5.4598,5.4663,5.4822,5.4661,5.4566,4.168,4.1728,4.2036,4.3936,4.4423,4.4968,0.0,0.0,0.0,0.0,0.0,0.0,0.0,0.0,0.0,0.0,0.0,0.0,0.0,0.0,0.0,0.0,0.0,0.0,0.0,0.0,0.0,0.0,0.0,0.0,5.1101,5.1101,5.1101,5.1101,5.1102,5.1095,5.1114,5.1171,5.1245,5.1304,5.1304,5.1365,5.1472,5.1462,5.1968,5.2878,5.3717,5.4556,5.5357,5.5357,5.5845,5.6582,5.6514,5.6497,5.6484,5.6434,5.6391,5.6407,5.6407,5.6446,5.6488,5.6437,5.6407,5.6405,5.6407,5.6397,5.6386,5.6386,5.6406,5.6386,5.6314,5.6302,5.6302,5.6304,5.6291,5.6291,5.6291,5.6291,5.6317,5.6375,5.6386,5.6427,5.6474,5.6483,5.6446,5.6319,5.6289,5.6244,5.6132,5.611,5.6084,5.6017,5.5188,5.4299,5.3469,5.3423,5.3333,5.3148,5.381,5.447,5.5115,5.499,5.4522,5.3726,5.3745,5.3764,5.3764,5.3764,5.4054,5.4629,5.4597,5.4182,4.0609,4.054,4.0768,4.203,4.2354,4.2886,4.4959,0.0,0.0,0.0,0.0,0.0,0.0,0.0,0.0,0.0,0.0,0.0,0.0,0.0,0.0,0.0,0.0,0.0,0.0,0.0,0.0,0.0,0.0,0.0,5.0956,5.0971,5.099,5.102,5.1034,5.1076,5.1152,5.118,5.1232,5.1297,5.1297,5.134,5.1402,5.1406,5.1577,5.1882,5.2195,5.3132,5.4517,5.5064,5.5474,5.581,5.6315,5.6464,5.6434,5.6411,5.6379,5.6349,5.6398,5.6426,5.6433,5.6407,5.6018,5.5677,5.6222,5.5986,5.5625,5.6189,5.6341,5.6329,5.6317,5.6297,5.6304,5.6291,5.6291,5.6304,5.6297,5.6309,5.6309,5.6333,5.6367,5.6388,5.6377,5.6368,5.6338,5.6244,5.6194,5.6141,5.6102,5.6059,5.6012,5.6014,5.5262,5.4641,5.4332,5.4312,5.4186,5.3848,5.4588,5.4784,5.4268,5.4153,5.3499,5.2134,5.1972,5.2178,5.2726,5.2786,5.3093,5.3644,5.3579,5.3494,3.9984,3.9857,4.0022,4.0986,4.1176,4.1644,4.3448,0.0,0.0,0.0,0.0,0.0,0.0,0.0,0.0,0.0,0.0,0.0,0.0,0.0,0.0,0.0,0.0,0.0,0.0,0.0,0.0,0.0,0.0,0.0,5.0906,5.0906,5.0921,5.1005,5.1005,5.105,5.1161,5.1171,5.1198,5.1263,5.1265,5.1303,5.1363,5.1338,5.1366,5.1394,5.1381,5.2197,5.36,5.4186,5.4584,5.4909,5.5741,5.6024,5.601,5.6269,5.6348,5.6317,5.6347,5.6378,5.6359,5.6027,5.554,5.5112,5.5411,5.5252,5.5124,5.5707,5.6071,5.6291,5.6291,5.6291,5.6291,5.6304,5.6304,5.6304,5.6333,5.6314,5.6302,5.6302,5.6336,5.6347,5.6283,5.6263,5.6244,5.6187,5.6132,5.6087,5.6056,5.6026,5.6012,5.6029,5.5528,5.51,5.4862,5.4757,5.4439,5.3843,5.4537,5.4568,5.3726,5.3629,5.2937,5.1556,5.1334,5.1355,5.1594,5.1718,5.2203,5.3061,5.2731,5.2555,0.0,0.0,0.0,4.0903,4.1095,0.0,4.2489,0.0,0.0,0.0,0.0,0.0,0.0,0.0,0.0,0.0,0.0,0.0,0.0,0.0,0.0,0.0,0.0,0.0,0.0,0.0,0.0,0.0,0.0,5.0906,5.0906,5.0906,5.0921,5.0986,5.1005,5.102,5.1101,5.1082,5.1078,5.117,5.1131,5.1161,5.1215,5.1161,5.1196,5.1328,5.1255,5.1736,5.2589,5.2667,5.3154,5.3945,5.4824,5.5134,5.5178,5.5976,5.6281,5.6302,5.6265,5.6302,5.62,5.5267,5.4937,5.4774,5.3953,5.4271,5.4932,5.499,5.5612,5.6253,5.6253,5.6253,5.6265,5.6232,5.6219,5.6239,5.6317,5.6267,5.6244,5.6283,5.6302,5.6271,5.6214,5.6194,5.6187,5.6117,5.6102,5.6091,5.601,5.5993,5.6029,5.6098,5.6029,5.5717,5.4997,5.4666,5.4091,5.3102,5.3561,5.3807,5.3613,5.3445,5.2987,5.2164,5.1989,5.1401,5.043,5.0665,5.1523,5.2941,5.2136,5.1363,3.9594,0.0,0.0,0.0,0.0,0.0,4.1263,4.1667,0.0,0.0,0.0,0.0,0.0,0.0,0.0,0.0,0.0,0.0,0.0,0.0,0.0,0.0,0.0,0.0,0.0,0.0,0.0,0.0,5.0577,5.0906,5.0906,5.0906,5.0906,5.0941,5.0941,5.0956,5.102,5.0395,5.0125,5.0188,4.9594,4.9333,4.9354,4.9379,4.9405,4.9441,4.9433,4.9575,4.9958,5.1851,5.2765,5.3031,5.3879,5.456,5.5111,5.5286,5.5765,5.6207,5.5573,5.5372,5.5248,5.4361,5.3642,5.3196,5.3584,5.3436,5.3378,5.466,5.5165,5.5359,5.5359,5.5359,5.5204,5.4575,5.442,5.4439,5.4494,5.4494,5.4855,5.6142,5.6345,5.629,5.6207,5.6193,5.6185,5.611,5.6094,5.6114,5.6149,5.6098,5.6082,5.6098,5.6029,5.5932,5.5785,5.4977,5.4341,5.3966,5.3374,5.2612,5.1706,5.2175,5.2008,5.1055,5.1476,5.1548,5.1271,5.1409,5.1638,5.184,5.1155,5.0717,3.9451,3.9391,3.9391,3.9391,0.0,0.0,4.0177,4.0578,4.1135,0.0,0.0,0.0,0.0,0.0,0.0,0.0,0.0,0.0,0.0,0.0,0.0,0.0,0.0,0.0,0.0,0.0,0.0,0.0,4.9591,4.9861,4.9861,4.9861,4.9861,4.9861,4.9861,4.9877,4.9911,4.9437,4.9218,4.9251,4.8768,4.8569,4.8604,4.8642,4.8663,4.8699,4.8671,4.8671,4.8811,5.0309,5.1154,5.1581,5.2785,5.3563,5.4003,5.4334,5.4776,5.5145,5.4621,5.4465,5.431,5.3436,5.3079,5.2943,5.2717,5.3071,5.3588,5.3888,5.4206,5.4497,5.4453,5.4453,5.433,5.3824,5.3689,5.372,5.3786,5.3783,5.4167,5.5544,5.5765,5.5857,5.6146,5.619,5.6194,5.6149,5.6149,5.6149,5.6149,5.6098,5.6082,5.6098,5.5995,5.5805,5.5416,5.4439,5.3577,5.2949,5.2303,5.1774,5.1318,5.1707,5.1799,5.1536,5.1852,5.2007,5.2007,5.1388,5.0869,5.0447,5.0146,4.9987,3.9373,3.9373,3.9373,3.9373,3.9301,0.0,3.9346,3.9879,4.0393,0.0,0.0,0.0,0.0,0.0,0.0,0.0,0.0,0.0,0.0,0.0,0.0,0.0,0.0,0.0,0.0,0.0,4.8305,4.8256,4.8353,4.8396,4.8396,4.8396,4.8377,4.8392,4.8392,4.8392,4.8392,4.8363,4.8338,4.8338,4.8257,4.8244,4.8301,4.8301,4.834,4.8402,4.8331,4.8351,4.8402,4.8428,4.9032,5.0046,5.1615,5.2281,5.2484,5.3261,5.3611,5.3689,5.3591,5.3553,5.3397,5.2542,5.2838,5.3219,5.1661,5.2822,5.4363,5.29,5.3133,5.3763,5.3605,5.3547,5.3533,5.3436,5.3417,5.3441,5.3505,5.346,5.367,5.4531,5.4796,5.512,5.5923,5.6063,5.6083,5.618,5.6199,5.6164,5.6114,5.6029,5.6012,5.6082,5.5865,5.5364,5.4458,5.3344,5.2202,5.1079,5.0818,5.1035,5.171,5.1559,5.1906,5.2858,5.2623,5.2475,5.2457,5.0878,4.978,4.9232,4.9267,4.9276,0.0,0.0,0.0,0.0,0.0,0.0,3.9156,3.9314,3.9657,0.0,0.0,0.0,0.0,0.0,0.0,0.0,0.0,0.0,0.0,0.0,0.0,0.0,0.0,0.0,0.0,0.0,4.7307,4.7347,4.7944,4.8318,4.8318,4.8318,4.835,4.8411,4.8392,4.8392,4.8392,4.7729,4.7361,4.7361,4.6726,4.6423,4.6423,4.6472,4.6519,4.6532,4.6502,4.6522,4.6581,4.727,4.8474,4.9925,5.0275,5.1225,5.2426,5.2581,5.3106,5.3591,5.2892,5.264,5.2523,5.1707,5.1556,5.1636,5.1306,5.156,5.2037,5.2394,5.3133,5.3627,5.2853,5.2659,5.2484,5.1843,5.1688,5.1688,5.17,5.1688,5.1928,5.2756,5.3469,5.42,5.5021,5.5156,5.5389,5.6088,5.6145,5.6114,5.6106,5.599,5.5921,5.594,5.5092,5.4446,5.4259,5.2488,5.1261,5.1014,5.0202,4.9984,5.0665,5.065,5.1276,5.2642,5.1992,5.1657,5.1711,5.0635,5.0023,4.991,4.9381,4.9116,0.0,0.0,0.0,3.9101,0.0,0.0,0.0,3.9129,3.9268,0.0,0.0,0.0,0.0,0.0,0.0,0.0,0.0,0.0,0.0,0.0,0.0,0.0,0.0,0.0,0.0,0.0,4.6352,4.6349,4.6725,4.6962,4.6962,4.6995,4.7024,4.7055,4.71,4.7096,4.7096,4.667,4.6438,4.6438,4.604,4.586,4.5906,4.5932,4.5968,4.5991,4.5994,4.6005,4.6035,4.6463,4.7414,4.8696,4.9551,5.0678,5.1804,5.1804,5.2076,5.2387,5.196,5.1804,5.1746,5.1342,5.15,5.1774,5.1327,5.123,5.1415,5.2271,5.2494,5.2386,5.187,5.1773,5.1688,5.1236,5.1171,5.1202,5.1202,5.1202,5.1307,5.1638,5.2052,5.277,5.4091,5.4627,5.5065,5.5491,5.5843,5.6046,5.6007,5.594,5.5673,5.5111,5.4498,5.3637,5.2539,5.1537,5.0654,4.9972,4.954,4.9786,5.0852,5.048,5.0817,5.1974,5.1175,5.0802,5.0908,5.0019,4.9645,4.9642,4.9303,4.9183,0.0,0.0,0.0,0.0,0.0,3.9101,0.0,0.0,0.0,0.0,0.0,0.0,0.0,0.0,0.0,0.0,0.0,0.0,0.0,0.0,0.0,0.0,0.0,0.0,0.0,0.0,4.5648,4.5545,4.5566,4.5568,4.5568,4.5618,4.5648,4.57,4.5757,4.5786,4.58,4.58,4.58,4.58,4.58,4.5827,4.5893,4.5893,4.5932,4.598,4.598,4.5983,4.5986,4.5986,4.651,4.7462,4.9027,5.0173,5.0969,5.1144,5.1202,5.1202,5.1202,5.1202,5.1194,5.1197,5.1677,5.2135,5.1434,5.1249,5.1442,5.2067,5.1745,5.119,5.1132,5.1159,5.119,5.1127,5.1159,5.1202,5.1159,5.1159,5.1127,5.099,5.0976,5.1508,5.3126,5.3945,5.4483,5.4812,5.5296,5.5672,5.5789,5.5613,5.5102,5.4168,5.3639,5.2615,5.084,5.0572,5.0059,4.898,4.9046,4.9769,5.1082,5.0636,5.0599,5.1138,5.0469,5.017,5.0328,4.9527,4.915,4.9197,4.9197,4.9211,0.0,0.0,0.0,0.0,3.9101,0.0,0.0,0.0,3.9101,0.0,0.0,0.0,0.0,0.0,0.0,0.0,0.0,0.0,0.0,0.0,0.0,0.0,0.0,0.0,0.0,0.0,0.0,4.536,4.5438,4.5495,4.5419,4.5438,4.5512,4.568,4.5715,4.5742,4.58,4.58,4.58,4.58,4.58,4.5814,4.5814,4.586,4.5906,4.5906,4.5905,4.5917,4.5917,4.5972,4.6507,4.74,4.8375,4.9279,5.0134,5.0911,5.1202,5.1202,5.1202,5.1206,5.1208,5.1189,5.1308,5.1423,5.1326,5.1287,5.1317,5.1346,5.1277,5.1208,5.1183,5.1202,5.1202,5.119,5.1202,5.1171,5.105,5.1017,5.1009,5.0937,5.0921,5.1231,5.2195,5.2465,5.3011,5.4501,5.4496,5.4594,5.5359,5.453,5.3812,5.3661,5.2065,5.0892,5.0642,4.9716,4.9071,4.8909,4.8909,4.9352,5.0209,5.0896,5.0933,5.0265,5.0209,5.0259,5.0411,4.959,4.9197,4.9197,4.9197,4.9211,0.0,0.0,0.0,0.0,0.0,0.0,3.9101,0.0,3.9101,0.0,0.0,0.0,0.0,0.0,0.0,0.0,0.0,0.0,0.0,0.0,0.0,0.0,0.0,0.0,0.0,0.0,0.0,0.0,0.0,4.5419,4.536,4.5381,4.5438,4.553,4.5632,4.5696,4.5742,4.5786,4.58,4.58,4.58,4.58,4.58,4.5827,4.586,4.5893,4.5899,4.5893,4.5886,4.5929,4.6162,4.6569,4.7497,4.8685,4.9998,5.0872,5.1202,5.1202,5.1202,5.1206,5.1189,5.121,5.1259,5.1287,5.1249,5.1249,5.124,5.12,5.1189,5.1208,5.1214,5.1202,5.1202,5.1202,5.1202,5.1159,5.1037,5.1004,5.0961,5.0858,5.0718,5.0702,5.0989,5.1644,5.2296,5.282,5.3152,5.3408,5.3582,5.3166,5.2598,5.1918,5.1117,5.0327,4.9683,4.9198,4.8909,4.8909,4.9373,4.9577,4.941,5.0209,5.0246,4.9429,4.9429,4.9517,4.9653,4.9332,4.9211,4.9276,4.9345,4.9377,3.9045,0.0,0.0,0.0,0.0,0.0,0.0,0.0,0.0,0.0,0.0,0.0,0.0,0.0,0.0,0.0,0.0,0.0,0.0,0.0,0.0,0.0,0.0,0.0,0.0,0.0,0.0,0.0,4.54,0.0,4.5338,4.536,4.5381,4.54,4.5547,4.5651,4.5668,4.5727,4.5771,4.5771,4.58,4.58,4.58,4.58,4.5833,4.586,4.586,4.5874,4.5861,4.5893,4.5893,4.6002,4.6918,4.8184,4.9625,5.0522,5.0989,5.1202,5.1202,5.1206,5.12,5.1211,5.1249,5.1258,5.1211,5.1201,5.119,5.1208,5.1197,5.1197,5.1202,5.1202,5.119,5.1159,5.1159,5.1114,5.0961,5.0966,5.0921,5.0682,5.0488,5.0298,5.0116,5.0856,5.1463,5.1461,5.1885,5.2197,5.221,5.1903,5.1374,5.0539,5.0263,4.9809,4.898,4.8909,4.8909,4.8909,4.9485,4.9559,4.8927,4.9466,4.9503,4.8909,4.8909,4.8962,4.9101,4.915,4.923,4.9289,4.944,4.9509,0.0,0.0,0.0,3.9007,0.0,0.0,0.0,0.0,3.9101,0.0,0.0,0.0,0.0,0.0,0.0,3.9101,0.0,0.0,0.0,0.0,0.0,0.0,0.0,0.0,0.0,0.0,0.0,4.5419,4.54,0.0,4.5398,4.5338,4.5339,4.54,4.5419,4.5457,4.5603,4.5668,4.5696,4.5696,4.5771,4.58,4.58,4.58,4.58,4.58,4.58,4.5814,4.5814,4.586,4.5906,4.5984,4.6862,4.7747,4.8671,4.9606,5.0484,5.1202,5.1202,5.1206,5.12,5.1269,5.1249,5.1211,5.12,5.1189,5.1208,5.1194,5.1202,5.1202,5.1202,5.1202,5.1171,5.1037,5.1004,5.0961,5.0844,5.0863,5.0775,5.0298,5.0275,5.0187,4.9865,4.9849,5.018,5.0995,5.0862,5.0986,5.1813,5.0897,5.017,5.0098,4.941,4.8927,4.8909,4.8909,4.8909,4.8909,4.8927,4.8927,4.8909,4.8927,4.8927,4.8909,4.8909,4.8962,4.9101,4.9101,4.9183,4.9289,4.944,4.9509,0.0,0.0,3.8881,3.8921,0.0,0.0,0.0,0.0,0.0,0.0,0.0,0.0,0.0,0.0,3.9073,3.9036,3.9073,0.0,0.0,0.0,0.0,0.0,0.0,0.0,0.0,0.0,0.0,4.512,4.5342,4.5457,0.0,4.5379,4.5379,4.54,4.54,4.5419,4.5476,4.5582,4.5665,4.57,4.5761,4.5805,4.58,4.58,4.58,4.58,4.58,4.58,4.58,4.5814,4.5827,4.5866,4.6216,4.7223,4.8612,4.9498,5.0384,5.1121,5.1132,5.1167,5.12,5.1229,5.121,5.12,5.1206,5.1194,5.1194,5.1202,5.1202,5.1171,5.1082,5.1095,5.1114,5.1029,5.1029,5.0971,5.0605,5.0548,5.043,5.0019,4.9738,4.957,4.9539,4.9315,4.9313,4.9875,4.9871,4.9827,4.993,4.952,4.9247,4.9317,4.9006,4.8839,4.8909,4.8909,4.8909,4.8909,4.8909,4.8909,4.8909,4.8909,4.8909,4.8909,4.8909,4.8909,4.8962,4.9068,4.915,4.9244,4.9327,4.9409,3.8773,3.8743,0.0,0.0,3.8713,0.0,3.8833,0.0,0.0,0.0,0.0,0.0,0.0,0.0,0.0,3.8892,3.896,3.9073,0.0,3.9101,0.0,0.0,0.0,0.0,0.0,0.0,4.4157,4.4954,4.5222,4.5342,0.0,0.0,4.5398,4.5398,4.538,4.5361,4.5361,4.5494,4.5582,4.5635,4.5715,4.5781,4.5805,4.5805,4.5786,4.58,4.58,4.58,4.58,4.58,4.5814,4.5847,4.586,4.6745,4.8147,4.9039,5.0119,5.114,5.1144,5.1167,5.1197,5.1208,5.1208,5.1206,5.1171,5.1171,5.1159,5.1134,5.1153,5.1134,5.1042,5.1056,5.1075,5.0986,5.1005,5.0906,5.049,5.035,5.0179,4.9711,4.9363,4.9164,4.9123,4.8925,4.8892,4.9193,4.9225,4.9127,4.8909,4.8822,4.8787,4.8785,4.8804,4.8857,4.8962,4.8909,4.8909,4.8909,4.8909,4.8909,4.8874,4.8874,4.9039,4.9405,4.9057,4.9039,4.9405,4.9145,4.9083,4.9183,4.9211,4.9327]},{"header":{"parameterUnit":"m.s-1","parameterCategory":1,"la1":30.6,"la2":29.2853,"lo1":-89.7004,"lo2":-87.6739,"dy":0.0162,"dx":0.0183,"nx":112,"ny":82,"refTime":"2023-10-25T12:00:00:Z","depth":0,"parameterNumber":3,"parameterNumberName":"V-component_of_WINDS"},"data":[0.0,0.0,0.0,0.0,0.0,0.0,0.0,0.0,0.0,0.0,0.0,0.0,0.0,0.0,0.0,0.0,0.0,0.0,0.0,0.0,0.0,0.0,0.0,0.0,0.0,0.0,0.0,0.0,0.0,0.0,0.0,0.0,0.0,0.0,0.0,0.0,0.0,0.0,0.0,0.0,0.0,0.0,0.0,0.0,0.0,0.0,0.0,0.0,0.0,0.0,0.0,0.0,0.0,0.0,0.0,0.0,0.0,0.0,0.0,0.0,0.0,0.0,0.0,0.0,0.0,0.0,0.0,0.0,0.0,0.0,0.0,0.0,0.0,0.0,0.0,0.0,0.0,0.0,0.0,0.0,0.0,0.0,0.0,0.0,0.0,0.0,0.0,0.0,0.0,0.0,0.0,-0.1432,-0.0717,-0.0987,-0.2784,-0.1433,-0.1163,-0.2771,0.0,0.0,0.0,0.0,0.0,0.0,0.0,0.0,0.0,0.0,0.0,0.0,0.0,0.0,0.0,0.0,0.0,0.0,0.0,0.0,0.0,0.0,0.0,0.0,0.0,0.0,0.0,0.0,0.0,0.0,0.0,0.0,0.0,0.0,0.0,0.0,0.0,0.0,0.0,0.0,0.0,0.0,0.0,0.0,0.0,0.0,0.0,0.0,0.0,0.0,0.0,0.0,0.0,0.0,0.0,0.0,0.0,0.0,0.0,0.0,0.0,0.0,0.0,0.0,0.0,0.0,0.0,0.0,0.0,0.0,0.0,0.0,0.0,0.0,0.0,0.0,0.0,0.0,0.0,0.0,0.0,0.0,0.0,0.0,0.0,0.0,0.0,0.0,0.0,0.0,0.0,0.0,0.0,0.0,0.0,0.0,0.0,0.0,0.0,0.0,0.0,0.0,0.0,0.0,-0.1436,-0.1435,-0.1256,-0.1615,-0.2784,-0.2603,-0.2599,-0.2861,0.0,0.0,0.0,0.0,0.0,0.0,0.0,0.0,0.0,0.0,0.0,0.0,0.0,0.0,0.0,0.0,0.0,0.0,0.0,0.0,0.0,0.0,0.0,0.0,0.0,0.0,0.0,0.0,0.0,0.0,0.0,0.0,0.0,0.0,0.0,0.0,0.0,0.0,0.0,0.0,0.0,0.0,0.0,0.0,0.0,0.0,0.0,0.0,0.0,0.0,0.0,0.0,0.0,0.0,0.0,0.0,0.0,0.0,0.0,0.0,0.0,0.0,0.0,0.0,0.0,0.0,0.0,0.0,0.0,0.0,0.0,0.0,0.0,0.0,0.0,0.0,0.0,0.0,0.0,0.0,0.0,0.0,0.0,0.0,0.0,0.0,0.0,0.0,0.0,0.0,0.0,0.0,0.0,0.0,0.0,0.0,0.0,0.0,0.0,0.0,0.0,0.0,0.0,-0.1436,-0.1436,-0.1436,-0.2334,-0.2964,-0.2875,-0.2875,-0.2869,-0.2857,-0.5144,0.0,0.0,0.0,0.0,0.0,0.0,0.0,0.0,0.0,0.0,0.0,0.0,0.0,0.0,0.0,0.0,0.0,0.0,0.0,0.0,0.0,0.0,0.0,0.0,0.0,0.0,0.0,0.0,0.0,0.0,0.0,0.0,0.0,0.0,0.0,0.0,0.0,0.0,0.0,0.0,0.0,0.0,0.0,0.0,0.0,0.0,0.0,0.0,0.0,0.0,0.0,0.0,0.0,0.0,0.0,0.0,0.0,0.0,0.0,0.0,0.0,0.0,0.0,0.0,0.0,0.0,0.0,0.0,0.0,0.0,0.0,0.0,0.0,0.0,0.0,0.0,0.0,0.0,0.0,0.0,0.0,0.0,0.0,0.0,0.0,0.0,0.0,0.0,0.0,0.0,0.0,0.0,0.0,0.0,0.0,0.0,0.0,0.0,0.0,0.0,0.0,0.0,-0.1429,-0.1427,-0.1435,-0.2694,-0.3325,-0.2604,-0.2784,-0.2868,-0.2943,-0.5552,0.0,0.0,0.0,0.0,0.0,0.0,0.0,0.0,0.0,0.0,0.0,0.0,0.0,0.0,0.0,0.0,0.0,0.0,0.0,0.0,0.0,0.0,0.0,0.0,0.0,0.0,0.0,0.0,0.0,0.0,0.0,0.0,0.0,0.0,0.0,0.0,0.0,0.0,0.0,0.0,0.0,0.0,0.0,0.0,0.0,0.0,0.0,0.0,0.0,0.0,0.0,0.0,0.0,0.0,0.0,0.0,0.0,0.0,0.0,0.0,0.0,0.0,0.0,0.0,0.0,0.0,0.0,0.0,0.0,0.0,0.0,0.0,0.0,0.0,0.0,0.0,0.0,0.0,0.0,0.0,0.0,0.0,0.0,0.0,0.0,0.0,0.0,0.0,0.0,0.0,0.0,0.0,0.0,0.0,0.0,0.0,0.0,0.0,0.0,0.0,0.0,0.0,-0.141,-0.1403,-0.1432,-0.1525,-0.1615,-0.1525,-0.2334,-0.2868,-0.2943,-0.5552,0.0,0.0,0.0,0.0,0.0,0.0,0.0,0.0,0.0,0.0,0.0,0.0,0.0,0.0,0.0,0.0,0.0,0.0,0.0,0.0,0.0,0.0,0.0,0.0,0.0,0.0,0.0,0.0,0.0,0.0,0.0,0.0,0.0,0.0,0.0,0.0,0.0,0.0,0.0,0.0,0.0,0.0,0.0,0.0,0.0,0.0,0.0,0.0,0.0,0.0,0.0,0.0,0.0,0.0,0.0,0.0,0.0,0.0,0.0,0.0,0.0,0.0,0.0,0.0,0.0,0.0,0.0,0.0,0.0,0.0,0.0,0.0,0.0,0.0,0.0,0.0,0.0,0.0,0.0,0.0,0.0,0.0,0.0,0.0,0.0,0.0,0.0,0.0,0.0,0.0,0.0,0.0,0.0,0.0,0.0,0.0,0.0,0.0,0.0,0.0,0.0,0.0,-0.1362,-0.1444,0.0,-0.1436,-0.1436,-0.1436,-0.1166,-0.1613,-0.2862,0.0,0.0,0.0,0.0,0.0,0.0,0.0,0.0,0.0,0.0,0.0,0.0,0.0,0.0,0.0,0.0,0.0,0.0,0.0,0.0,0.0,0.0,0.0,0.0,0.0,0.0,0.0,0.0,0.0,0.0,0.0,0.0,0.0,0.0,0.0,0.0,0.0,0.0,0.0,0.0,0.0,0.0,0.0,0.0,0.0,0.0,0.0,0.0,0.0,0.0,0.0,0.0,0.0,0.0,0.0,0.0,0.0,0.0,0.0,0.0,0.0,0.0,0.0,0.0,0.0,0.0,0.0,0.0,0.0,0.0,0.0,0.0,0.0,0.0,0.0,0.0,0.0,0.0,0.0,0.0,0.0,0.0,0.0,0.0,0.0,0.0,0.0,0.0,0.0,0.0,0.0,0.0,0.0,0.0,0.0,0.0,0.0,0.0,0.0,0.0,0.0,0.0,-0.1403,-0.1385,-0.1371,0.0,-0.1441,-0.1436,-0.1436,-0.0538,-0.0538,-0.1879,0.0,0.0,0.0,0.0,0.0,0.0,0.0,0.0,0.0,0.0,0.0,0.0,0.0,0.0,0.0,0.0,0.0,0.0,0.0,0.0,0.0,0.0,0.0,0.0,0.0,0.0,0.0,0.0,0.0,0.0,0.0,0.0,0.0,0.0,0.0,0.0,0.0,0.0,0.0,0.0,0.0,0.0,0.0,0.0,0.0,0.0,0.0,0.0,0.0,0.0,0.0,0.0,0.0,0.0,0.0,0.0,0.0,0.0,0.0,0.0,0.0,0.0,0.0,0.0,0.0,0.0,0.0,0.0,0.0,0.0,0.0,0.0,0.0,0.0,0.0,0.0,0.0,0.0,0.0,0.0,0.0,0.0,0.0,0.0,0.0,0.0,0.0,0.0,0.0,0.0,0.0,0.0,0.0,0.0,0.0,0.0,0.0,0.0,0.0,0.0,0.0,0.0,-0.1618,-0.1474,-0.1357,-0.1385,-0.1363,-0.1436,-0.1436,-0.0538,0.0,0.0,0.0,0.0,0.0,0.0,0.0,0.0,0.0,0.0,0.0,0.0,0.0,0.0,0.0,0.0,0.0,0.0,0.0,0.0,0.0,0.0,0.0,0.0,0.0,0.0,0.0,0.0,0.0,0.0,0.0,0.0,0.0,0.0,0.0,0.0,0.0,0.0,0.0,0.0,0.0,0.0,0.0,0.0,0.0,0.0,0.0,0.0,0.0,0.0,0.0,0.0,0.0,0.0,0.0,0.0,0.0,0.0,0.0,0.0,0.0,0.0,0.0,0.0,0.0,0.0,0.0,0.0,0.0,0.0,0.0,0.0,0.0,0.0,0.0,0.0,0.0,0.0,0.0,0.0,0.0,0.0,0.0,0.0,0.0,0.0,0.0,0.0,0.0,0.0,0.0,0.0,0.0,0.0,0.0,0.0,0.0,0.0,0.0,0.0,0.0,0.0,0.0,0.0,-0.156,-0.1543,-0.1526,-0.1419,-0.1392,-0.1376,-0.1376,-0.0543,0.0,0.0,0.0,0.0,0.0,0.0,0.0,0.0,0.0,0.0,0.0,0.0,0.0,0.0,0.0,0.0,0.0,0.0,0.0,0.0,0.0,0.0,0.0,0.0,0.0,0.0,0.0,0.0,0.0,0.0,0.0,0.0,0.0,0.0,0.0,0.0,0.0,0.0,0.0,0.0,0.0,0.0,0.0,0.0,0.0,0.0,0.0,0.0,0.0,0.0,0.0,0.0,0.0,0.0,0.0,0.0,0.0,0.0,0.0,0.0,0.0,0.0,0.0,0.0,0.0,0.0,0.0,0.0,0.0,0.0,0.0,0.0,0.0,0.0,0.0,0.0,0.0,0.0,0.0,0.0,0.0,0.0,0.0,0.0,0.0,0.0,0.0,0.0,0.0,0.0,0.0,0.0,0.0,0.0,0.0,0.0,0.0,0.0,0.0,0.0,0.0,0.0,0.0,0.0,-0.1592,-0.1579,-0.1564,-0.1449,-0.1517,-0.1494,-0.1389,-0.0549,0.0,0.0,0.0,0.0,0.0,0.0,0.0,0.0,0.0,0.0,0.0,0.0,0.0,0.0,0.0,0.0,0.0,0.0,0.0,0.0,0.0,0.0,0.0,0.0,0.0,0.0,0.0,0.0,0.0,0.0,0.0,0.0,0.0,0.0,0.0,0.0,0.0,0.0,0.0,0.0,0.0,0.0,0.0,0.0,0.0,0.0,0.0,0.0,0.0,0.0,0.0,0.0,0.0,0.0,0.0,0.0,0.0,0.0,0.0,0.0,0.0,0.0,0.0,0.0,0.0,0.0,0.0,0.0,0.0,0.0,0.0,0.0,0.0,0.0,0.0,0.0,0.0,0.0,0.0,0.0,0.0,0.0,0.0,0.0,0.0,0.0,0.0,0.0,0.0,0.0,0.0,0.0,0.0,0.0,0.0,0.0,0.0,0.0,0.0,0.0,0.0,0.0,0.0,0.0,-0.1617,-0.1593,-0.1576,-0.1576,-0.1645,-0.1518,-0.1394,-0.0556,0.0,0.0,0.0,0.0,0.0,0.0,0.0,0.0,0.0,0.0,0.0,0.0,0.0,0.0,0.0,0.0,0.0,0.0,0.0,0.0,0.0,0.0,0.0,0.0,0.0,0.0,0.0,0.0,0.0,0.0,0.0,0.0,0.0,0.0,0.0,0.0,0.0,0.0,0.0,0.0,0.0,0.0,0.0,0.0,0.0,0.0,0.0,0.0,0.0,0.0,0.0,0.0,0.0,0.0,0.0,0.0,0.0,0.0,0.0,0.0,0.0,0.0,-0.0188,0.0,0.0,0.0,0.0,0.0,0.0,0.0,0.0,0.0,0.0,0.0,0.0,0.0,0.0,0.0,0.0,0.0,0.0,0.0,0.0,0.0,0.0,0.0,0.0,0.0,0.0,0.0,0.0,0.0,0.0,0.0,0.0,0.0,0.0,0.0,0.0,0.0,0.0,0.0,0.0,0.0,-0.1617,-0.1611,-0.1607,-0.1607,-0.158,-0.1549,-0.1519,-0.056,0.0,0.0,0.0,0.0,0.0,0.0,0.0,0.0,0.0,0.0,0.0,0.0,0.0,0.0,0.0,0.0,0.0,0.0,0.0,0.0,0.0,0.0,0.0,0.0,0.0,0.0,0.0,0.0,0.0,0.0,0.0,0.0,0.0,0.0,0.0,0.0,0.0,0.0,0.0,0.0,0.0,0.0,0.0,0.0,0.0,0.0,0.0,0.0,0.0,0.0,0.0,0.0,0.0,0.0,0.0,0.0,0.0,0.0,0.0,0.0,0.0,0.0,0.0,0.0,0.0,0.0,0.0,0.0,0.0,0.0,0.0,0.0,0.0,0.0,0.0,0.0,0.0,0.0,0.0,0.0,0.0,0.0,0.0,0.0,0.0,0.0,0.0,0.0,0.0,0.0,0.0,0.0,0.0,0.0,0.0,0.0,0.0,0.0,0.0,0.0,0.0,0.0,0.0,0.0,-0.1617,-0.1617,-0.1617,-0.1617,-0.1603,-0.1581,-0.1648,-0.1045,-0.0651,-0.0638,-0.027,0.0,0.0,0.0,0.0,0.0,0.0,0.0,0.0,0.0,0.0,0.0,0.0,0.0,0.0,0.0,0.0,0.0,0.0,0.0,0.0,0.0,0.0,0.0,0.0,0.0,0.0,0.0,0.0,0.0,0.0,0.0,0.0,0.0,0.0,0.0,0.0,0.0,0.0,0.0,0.0,0.0,0.0,0.0,0.0,0.0,0.0,0.0,0.0,0.0,0.0,0.0,0.0,0.0,0.0,0.0,0.0,0.0,0.0,0.0,0.0,0.0,0.0,0.0,0.0,0.0,0.0,0.0,0.0,0.0,0.0,0.0,0.0,0.0,0.0,0.0,0.0,0.0,0.0,0.0,0.0,0.0,0.0,0.0,0.0,0.0,0.0,0.0,-0.1314,-0.1415,0.0,0.0,0.0,0.0,0.0,0.0,0.0,0.0,0.0,0.0,0.0,0.0,-0.1617,-0.1617,-0.1617,-0.1617,-0.1617,-0.1605,-0.1574,-0.1452,-0.1424,-0.139,-0.0546,0.0,0.0,0.0,0.0,0.0,0.0,0.0,0.0,0.0,0.0,0.0,0.0,0.0,0.0,0.0,0.0,0.0,0.0,0.0,0.0,0.0,0.0,0.0,0.0,0.0,0.0,0.0,0.0,0.0,0.0,0.0,0.0,0.0,0.0095,0.019,0.0,0.0,0.0,0.0,0.0,0.0,0.0,0.0,0.0,0.0,0.0,0.0,0.0,0.0,0.0,0.0,0.0,0.0,0.0,0.0,0.0,0.0,0.0,0.0,0.0,0.0,0.0,0.0,0.0,0.0,0.0,0.0,0.0,0.0,0.0,0.0,0.0,0.0,0.0,0.0,0.0,0.0,0.0,0.0,0.0,0.0,0.0,0.0,0.0,0.0,-0.0,-0.0202,-0.0202,-0.0505,0.0,-0.1617,-0.1617,-0.1617,0.0,0.0,0.0,0.0,0.0,0.0,0.0,0.0,-0.1617,-0.1617,-0.1617,-0.1617,-0.1617,-0.1605,-0.1574,-0.1568,-0.1541,-0.1391,-0.0553,0.0,0.0,0.0,0.0,0.0,0.0,0.0,0.0,0.0,0.0,0.0,0.0,0.0,0.0,0.0,0.0,0.0,0.0,0.0,0.0,0.0,0.0,0.0,0.0,0.0,0.0,0.0,0.0,0.0,0.0,0.0,0.0,-0.0284,0.0,0.0,0.0,0.0,0.0,0.0,0.0,0.0,0.0,0.0,0.0,0.0,0.0,0.0,0.0,0.0,0.0,0.0,0.0,0.0,0.0,0.0,0.0,0.0,-0.0707,-0.1819,-0.1819,-0.1113,0.0,0.0,0.0,0.0,0.0,0.0,0.0,0.0,0.0,0.0,0.0,0.0,0.0,0.0,0.0,0.0,0.0,0.0,0.0,0.0,0.0,0.0,0.0,0.0,0.0,0.0,-0.0505,-0.101,-0.1516,-0.1617,-0.1617,0.0,-0.1111,-0.0707,-0.0707,0.0,0.0,0.0,0.0,0.0,-0.1617,-0.1617,-0.1415,-0.0808,-0.0707,-0.0705,-0.0699,-0.1284,-0.156,-0.1534,-0.0562,0.0,0.0,0.0,0.0,0.0,0.0,0.0,0.0,0.0,0.0,0.0,0.0,0.0,0.0,0.0,0.0,0.0,0.0,0.0,0.0,0.0,0.0,0.0,0.0,0.0,0.0,0.0,0.0,0.0,0.0,0.0,0.0,0.0,0.0,0.0,0.0,0.0,0.0,0.0,0.0,0.0,0.0,0.0,0.0,0.0,0.0,0.0,0.0,0.0,0.0,0.0,0.0,0.0,0.0,-0.0303,-0.0808,-0.0203,-0.1017,-0.2851,-0.307,-0.1962,0.0,0.0,0.0,0.0,0.0,0.0,0.0,0.0,0.0,0.0,0.0,0.0,0.0,0.0,0.0,0.0,0.0,0.0,0.0,0.0,0.0,0.0,0.0,0.0,0.0,0.0,-0.0606,-0.1313,-0.1516,-0.1617,-0.1617,0.0,-0.0707,0.0,0.0,0.0,0.0,0.0,0.0,-0.1212,-0.1212,-0.1212,-0.0909,-0.0101,0.0,0.0,0.0,-0.0997,-0.158,-0.1572,-0.0573,0.0,0.0,0.0,0.0,0.0,0.0,0.0,0.0,0.0,0.0,0.0,0.0,0.0,0.0,0.0,0.0,0.0,0.0,0.0,0.0,0.0,0.0,0.0,0.0,0.0,0.0,0.0,0.0,0.0,0.0,0.0,0.0,0.0,0.0,0.0,0.0,0.0,0.0,0.0,0.0,0.0,0.0,0.0,0.0,0.0,0.0,0.0,0.0,0.0,0.0,0.0,0.0,0.0,0.0,-0.1111,-0.2935,-0.0926,-0.0725,-0.1969,-0.2849,-0.202,0.0,0.0,0.0,0.0,0.0,0.0,0.0,0.0,0.0,0.0,0.0,0.0,0.0,0.0,0.0,0.0,0.0,0.0,0.0,0.0,0.0,0.0,0.0,0.0,0.0,0.0,-0.0,-0.0404,-0.1415,-0.1617,-0.1617,0.0,-0.0707,0.0,0.0,0.0,-0.1212,-0.0202,-0.0101,-0.0101,-0.0101,-0.0101,-0.0101,-0.0,0.0,0.0,0.0,-0.1009,-0.1602,-0.1573,-0.0588,0.0,0.0,0.0,0.0,0.0,-0.0091,0.0,0.0,0.0,0.0,0.0,0.0,0.0,0.0,0.0,0.0,0.0,0.0,0.0,0.0,0.0,0.0,0.0,0.0,0.0,0.0,0.0,0.0,0.0,0.0,0.0,0.0,0.0,0.0,0.0,0.0,0.0,0.0,0.0,0.0,0.0,0.0,0.0,0.0,0.0,0.0,0.0,0.0,0.0,0.0,0.0,0.0,0.0,0.0,-0.0414,-0.1152,-0.0316,-0.0211,-0.0739,-0.1808,-0.1824,-0.1083,-0.0753,-0.0857,-0.1174,-0.1173,-0.064,-0.0107,-0.0853,-0.064,0.0,0.0,0.0,0.0,0.0,0.0,0.0,0.0,0.0,0.0,0.0,0.0,0.0,0.0,0.0,0.0,0.0,0.0,-0.0101,-0.0505,-0.0606,-0.0808,-0.1516,-0.0707,0.0,0.0,-0.0303,-0.0404,-0.0101,0.0,0.0,0.0,0.0,0.0,0.0,0.0,0.0,0.0,-0.0303,-0.0907,-0.1601,-0.1286,-0.0685,-0.0,0.0,0.0,0.0,0.0,-0.0444,0.0,0.0,0.0,0.0,0.0,0.0,0.0,0.0,0.0,0.0,0.0,0.0,0.0,0.0,0.0,0.0,0.0,0.0,0.0,0.0,0.0,0.0,0.0,0.0,0.0,0.0,0.0,0.0,0.0,0.0,0.0,0.0,0.0,0.0,0.0,0.0,0.0,0.0,0.0202,0.0505,0.0202,0.0,0.0,0.0,0.0,0.0,0.0,0.0,-0.0,-0.0429,-0.0538,-0.0323,-0.1408,-0.1748,-0.1765,-0.1324,-0.1425,-0.1845,-0.1844,-0.141,-0.0977,-0.1301,-0.1302,-0.0868,-0.065,-0.0648,-0.0645,-0.0645,-0.0643,-0.0533,-0.0107,-0.0317,-0.0524,-0.0105,0.0,0.0,0.0,0.0,0.0,0.0,0.0,0.0,0.0,0.0,-0.0202,-0.0909,-0.0505,0.0,0.0,0.0,0.0,0.0,0.0,0.0,0.0,0.0,0.0,0.0,0.0,0.0,0.0,0.0,-0.0303,-0.101,-0.1398,-0.1091,-0.0,0.0,0.0574,0.1885,0.1917,0.0972,-0.0942,0.0,0.0,0.0,0.0,0.0,0.0,0.0,0.0,0.0,0.0,0.0,0.0,0.0,0.0,0.0,0.0,0.0,0.0,0.0,0.0,0.0,0.0,0.0,0.0,0.0,0.0,0.0,0.0,0.0,0.0,0.0,0.0,0.0,0.0,0.0,0.0,0.0,0.0506,0.1517,0.0506,0.0,0.0,0.0,0.0,-0.0,-0.0,-0.0107,-0.0107,-0.1305,-0.1533,-0.0986,-0.1559,-0.1795,-0.1795,-0.1795,-0.1795,-0.1795,-0.1795,-0.2132,-0.2581,-0.1346,-0.1683,-0.2581,-0.202,-0.1776,-0.1861,-0.1861,-0.1839,-0.16,-0.0427,-0.0853,-0.1599,-0.0427,-0.0107,-0.0106,-0.0104,-0.0,0.0,0.0,0.0,0.0,0.0,0.0,0.0,0.0,0.0,0.0,0.0,0.0,-0.0,-0.0,-0.0,0.0,-0.0,0.0,0.0,0.0,0.0,0.0,0.0,0.0,0.0,0.0,-0.101,-0.1111,-0.0101,0.0099,0.1866,0.541,0.5673,0.3871,0.0168,0.0,0.0,0.0,0.0,0.0,0.0,0.0,0.0,0.0,0.0,0.0,0.0,0.0,0.0,0.0,0.0,0.0,0.0,0.0,0.0,0.0,0.0,0.0,0.0,0.0,0.0,0.0,0.0,0.0,0.0,0.0,0.0,0.0,0.0,0.0,0.0,0.0,0.0103,0.0412,0.0104,0.0,0.0,0.0,0.0,-0.0,-0.0869,-0.1312,-0.1328,-0.2113,-0.2341,-0.223,-0.2576,-0.2693,-0.2693,-0.2469,-0.2356,-0.2132,-0.2356,-0.2469,-0.2468,-0.2466,-0.2467,-0.2469,-0.1908,-0.2125,-0.2451,-0.2451,-0.2778,-0.299,-0.2657,-0.2194,-0.1955,-0.2499,-0.1937,-0.1277,-0.1271,-0.0635,0.0,0.0,0.0,0.0,0.0,0.0,0.0,0.0,0.0,0.0,0.0,0.0,-0.0303,-0.101,0.0,0.0,-0.0101,0.0,0.0,0.0,0.0,0.0,0.0,0.0,0.0,0.0,-0.101,-0.1515,-0.1212,0.2612,0.3658,0.1627,0.4308,0.5215,0.0,0.0,0.0,0.0,0.0,0.0,0.0,0.0,0.0,0.0,0.0,0.0,0.0,0.0,0.0,0.0,0.0,0.0,0.0,0.0,0.0,0.0,0.0,0.0,0.0,0.0,0.0,0.0,0.0,0.0,0.0,-0.0404,-0.0709,-0.0715,-0.0715,-0.0718,-0.062,-0.0626,-0.042,-0.0,0.0,-0.0535,-0.1509,-0.0539,-0.0218,-0.0774,-0.1991,-0.2446,-0.2244,-0.2581,-0.2807,0.0,-0.2807,-0.2919,-0.2919,-0.2693,-0.2581,0.0,0.0,0.0,0.0,0.0,-0.2805,-0.2469,-0.2355,-0.2468,-0.2693,-0.2805,-0.3141,-0.3366,-0.3369,-0.2898,-0.2431,-0.3097,-0.2856,-0.2502,-0.2591,-0.2046,-0.1286,-0.0211,-0.042,-0.0628,-0.0104,0.0,0.0,0.0,0.0,0.0,0.0,0.0,-0.0404,-0.1415,-0.1617,-0.1415,0.0,-0.0303,0.0,0.0,0.1615,0.2727,0.2727,0.1817,0.0,0.0,0.0,0.0403,0.0403,0.4241,0.0,0.0,0.0,0.5686,0.5692,0.0,0.0,0.0,0.318,0.2982,0.0,0.0,0.0,0.0,0.0,0.0,0.0,0.0,0.0,0.0,0.0,0.0,0.0,0.0,0.0,0.0,-0.0101,-0.0101,-0.0,-0.0101,-0.0202,-0.0202,-0.0202,-0.0202,-0.0203,-0.1014,-0.1635,-0.1665,-0.1667,-0.1573,-0.1596,0.0,0.0,0.0,0.0,-0.1189,-0.3403,-0.143,-0.0887,-0.18,-0.3045,-0.3274,-0.2709,-0.2934,-0.3048,-0.3048,-0.2934,-0.2822,-0.282,-0.2816,-0.2811,-0.2806,-0.2806,-0.258,-0.2356,-0.2581,-0.2693,0.0,0.0,0.0,0.0,-0.3027,-0.3026,-0.3138,-0.303,-0.3029,-0.3026,-0.2805,-0.3143,-0.347,-0.3527,-0.3514,-0.295,-0.0858,-0.0961,-0.1389,-0.0533,-0.0211,0.0,0.0,0.0,-0.0,-0.0203,-0.0203,-0.0505,-0.1415,-0.1516,0.0,-0.1617,-0.0606,0.0303,0.0707,0.0,0.0,0.6388,0.4645,0.3527,0.3527,0.3527,0.3627,0.3627,0.5448,0.6305,0.6182,0.5881,0.5774,0.5828,0.7597,0.8536,0.8541,0.7692,0.7195,0.0,0.0,0.0,0.0,0.0,0.0,0.0,0.0,0.0,0.0,0.0,0.0,0.0,0.0,0.0,0.0,-0.0707,-0.101,-0.0101,-0.0716,-0.1336,-0.1316,-0.1313,-0.1322,-0.1341,-0.1447,-0.1665,-0.18,-0.1802,-0.1805,-0.1813,-0.2703,0.0,-0.1523,-0.1434,-0.1669,-0.2121,-0.2718,-0.274,-0.1947,0.0,0.0,-0.3151,-0.3151,-0.3267,-0.3267,-0.3501,-0.3618,-0.3614,-0.3566,-0.3519,-0.3363,-0.3138,-0.3026,-0.2914,-0.3026,-0.2915,-0.2693,-0.2806,-0.2693,-0.2693,-0.2805,-0.2915,-0.3137,-0.3138,-0.3138,0.0,-0.3026,-0.2917,-0.2917,-0.2907,-0.3016,-0.3003,-0.2514,-0.1306,-0.0868,-0.2571,-0.1384,0.0,0.0,0.0,-0.0317,-0.1267,-0.134,-0.1212,-0.101,-0.1314,-0.1617,-0.1617,0.0101,0.2321,0.4859,0.4343,0.4543,0.6276,0.607,0.5763,0.5763,0.5763,0.5959,0.6253,0.6361,0.6399,0.636,0.6268,0.6291,0.623,0.755,0.8321,0.8619,0.84,0.7865,0.0,0.0,0.0,0.0,0.0,0.0,0.0,0.0,0.0,0.0,0.0,0.0,0.0,0.0,-0.0202,-0.0707,-0.1212,-0.1419,-0.0921,-0.1343,-0.1656,-0.1641,-0.1549,-0.1667,-0.1682,-0.1684,-0.1697,-0.1832,-0.2375,-0.2711,-0.2736,-0.2095,-0.1551,-0.0886,-0.1452,-0.2027,-0.2387,-0.3324,-0.3467,-0.2911,-0.3285,-0.3532,-0.3532,-0.3533,-0.3533,-0.3533,-0.3768,-0.3768,-0.3767,-0.3736,-0.3688,-0.3632,-0.3519,-0.3388,-0.3362,-0.3362,-0.3251,-0.3141,-0.3141,-0.3029,-0.2915,-0.2915,-0.3027,-0.3026,-0.2915,-0.3027,-0.3026,-0.2915,-0.2915,-0.2915,-0.2915,-0.3141,-0.3246,-0.2999,-0.2437,-0.1768,-0.1755,-0.1304,-0.0756,-0.0108,0.0,-0.0427,-0.1601,-0.1787,-0.1554,-0.1334,-0.0711,-0.0202,-0.0202,0.0806,0.2822,0.6075,0.5454,0.5247,0.6268,0.6361,0.6356,0.6356,0.6356,0.6556,0.6853,0.6753,0.652,0.6446,0.6448,0.6415,0.6438,0.6954,0.7848,0.9112,0.873,0.8321,0.0,0.0,0.0,0.0,0.0,0.0,0.0,0.0,0.0,0.0,-0.02,-0.0202,-0.0,-0.0202,-0.0607,-0.1422,-0.1626,-0.1636,-0.1666,-0.178,-0.1784,-0.168,-0.1588,-0.1707,-0.182,-0.1822,-0.1836,-0.1866,-0.2749,-0.332,-0.3366,-0.1346,-0.0224,-0.0449,-0.1458,-0.2262,-0.2991,-0.3222,-0.3601,-0.3904,-0.3667,-0.3792,-0.4041,-0.4041,-0.4041,-0.4041,-0.391,-0.3779,-0.3768,-0.3756,-0.3715,-0.3661,-0.3661,-0.3631,-0.3587,-0.3587,-0.3587,-0.3587,-0.3587,-0.3474,-0.325,-0.325,-0.325,-0.3138,-0.2917,-0.3027,-0.3026,-0.2805,-0.2915,-0.3026,-0.3026,-0.3251,-0.3365,-0.3031,-0.3254,-0.2914,-0.1009,-0.0999,-0.1209,-0.022,0.0,-0.0108,-0.0646,-0.0967,-0.1172,-0.1256,0.0,0.1121,0.1529,0.1934,0.3252,0.5999,0.6398,0.6385,0.6361,0.6445,0.6437,0.6437,0.6437,0.6539,0.6745,0.6845,0.6742,0.6736,0.6531,0.6423,0.641,0.6807,0.7925,0.9577,0.9021,0.8762,0.0,0.0,0.0,0.0,0.0,0.0,0.0,0.0,0.0,0.0,-0.0807,-0.1111,-0.0202,-0.0808,-0.1423,-0.155,-0.1554,-0.1667,-0.1801,-0.183,-0.174,-0.174,-0.1826,-0.1822,-0.1851,-0.1854,-0.1977,-0.2347,-0.2125,-0.2128,-0.2468,-0.1458,-0.1234,-0.2132,-0.2244,-0.2601,-0.3217,-0.2412,-0.2799,-0.4206,-0.3482,-0.3629,-0.4787,-0.4787,-0.4787,-0.4784,-0.4352,-0.4054,-0.3764,-0.371,-0.3653,-0.371,-0.3598,-0.3594,-0.3587,-0.3587,-0.3587,-0.3587,-0.3587,-0.3587,-0.3587,-0.3587,-0.3587,-0.3587,-0.3475,-0.3363,-0.3137,-0.3026,-0.2915,-0.2693,-0.2693,-0.2806,-0.2806,-0.2693,-0.2918,-0.3031,-0.2693,-0.1344,-0.0112,-0.0,0.0,0.0669,0.2675,0.2092,0.1192,0.0532,0.0529,0.1162,0.2962,0.3909,0.4725,0.5592,0.6195,0.6556,0.6448,0.6437,0.6437,0.6437,0.6437,0.6539,0.6745,0.6845,0.7141,0.7839,0.6918,0.641,0.641,0.8308,0.9339,0.9594,0.9544,0.9137,0.0,0.0,0.0,0.0,0.0,0.0,0.0,-0.0516,-0.0921,-0.0911,-0.1313,-0.1313,-0.0202,-0.0917,-0.175,0.0,-0.1676,-0.1697,-0.1834,-0.185,-0.1756,-0.1774,-0.1765,-0.1762,-0.1775,-0.1776,-0.1893,-0.2243,-0.2244,-0.2132,-0.202,-0.2132,-0.2244,-0.2581,-0.202,-0.1923,-0.2414,-0.1494,-0.151,-0.2495,-0.2876,-0.3261,-0.377,-0.4421,-0.4564,-0.4316,-0.4128,-0.3965,-0.3818,-0.3756,-0.3695,-0.364,-0.364,-0.3619,-0.3587,-0.3587,-0.3587,-0.3587,-0.3587,-0.3587,-0.3587,-0.3587,-0.3587,-0.3587,-0.3587,-0.3475,-0.3362,-0.3362,-0.3363,-0.3253,-0.3253,-0.3253,-0.3253,-0.3253,-0.3253,-0.3366,-0.3369,-0.2715,-0.1248,0.1572,0.1017,0.0794,0.3478,0.4241,0.399,0.2853,0.2584,0.2762,0.3614,0.4676,0.5512,0.5791,0.6205,0.6471,0.6251,0.6441,0.6513,0.6439,0.6437,0.6539,0.6745,0.6942,0.7341,0.7939,0.7836,0.7932,0.8226,0.9141,0.9608,0.9633,0.962,0.9477,0.0,-0.0217,-0.0545,-0.0549,-0.0548,-0.0543,-0.053,-0.1049,-0.1561,-0.1227,-0.1431,-0.1433,-0.0611,-0.124,-0.1782,-0.179,-0.181,-0.1835,-0.1758,-0.1762,-0.177,-0.1792,-0.1458,-0.1346,-0.1346,-0.157,-0.1907,-0.2132,-0.1908,-0.1795,-0.1907,-0.1794,-0.2023,-0.2259,-0.1355,-0.1141,-0.1631,-0.0696,-0.0701,-0.1668,-0.1919,-0.2532,-0.3514,-0.4291,-0.4439,-0.4193,-0.4128,-0.4101,-0.3856,-0.3676,-0.3626,-0.3703,-0.3703,-0.3666,-0.3613,-0.3613,-0.3602,-0.3587,-0.3587,-0.3587,-0.3587,-0.3587,-0.3587,-0.3587,-0.3587,-0.3587,-0.3587,-0.3587,-0.3587,-0.3587,-0.3587,-0.3587,-0.3587,-0.3587,-0.3587,-0.3589,-0.3591,-0.3628,-0.2276,0.2133,0.2272,0.2404,0.4519,0.5541,0.5771,0.4736,0.4399,0.4315,0.4315,0.5157,0.5785,0.5892,0.6187,0.6245,0.6269,0.6466,0.6632,0.6543,0.6505,0.6589,0.6796,0.7059,0.7335,0.773,0.8443,0.905,0.964,0.964,0.9636,0.9628,0.9628,0.9559,0.0,-0.0854,-0.1722,-0.178,-0.1772,-0.1749,-0.1748,-0.1616,-0.1271,-0.0312,-0.0946,-0.1799,-0.177,-0.1684,-0.1712,-0.1742,-0.1748,-0.1759,-0.1789,-0.1793,-0.1794,-0.1795,-0.0785,-0.0,0.0,-0.1121,-0.1907,-0.2132,-0.0897,-0.0673,-0.2132,-0.0,0.0451,-0.1263,-0.046,-0.035,-0.0962,0.0,-0.0717,-0.2951,-0.0727,-0.1456,-0.4807,-0.5176,-0.5177,-0.4807,-0.4853,-0.446,-0.3854,-0.3794,-0.3767,-0.3766,-0.3766,-0.3729,-0.3676,-0.3676,-0.3639,-0.3587,-0.3587,-0.3587,-0.3587,-0.3587,-0.3587,-0.3587,-0.3587,-0.3587,-0.3587,-0.3587,-0.3587,-0.3587,-0.3587,-0.3587,-0.3587,-0.3587,-0.3587,-0.3587,-0.3587,-0.3593,-0.2582,0.0672,0.398,0.6336,0.6548,0.6088,0.5743,0.5851,0.5656,0.5373,0.5373,0.5296,0.5456,0.6002,0.6017,0.6167,0.6381,0.6587,0.6796,0.679,0.6679,0.6719,0.7032,0.7107,0.7229,0.7208,0.8219,0.9027,0.9628,0.9628,0.9628,0.9628,0.9628,0.9624,0.0,-0.0883,-0.177,-0.179,-0.1787,-0.1774,-0.1754,-0.1742,-0.1618,-0.1272,-0.1485,-0.1808,-0.1797,-0.1821,-0.1737,-0.1748,-0.1767,-0.1791,-0.1821,-0.113,-0.0563,-0.0569,0.0451,0.0,0.0,0.0,0.0,0.0112,0.0784,0.0896,0.0112,0.0566,0.0456,-0.0115,0.0232,0.0235,0.0,0.0945,0.1066,0.0239,-0.072,-0.2427,-0.4935,-0.53,-0.5053,-0.4559,-0.4366,-0.4098,-0.3856,-0.3794,-0.377,-0.377,-0.377,-0.3756,-0.3739,-0.3739,-0.37,-0.3642,-0.3601,-0.3587,-0.3587,-0.3587,-0.3587,-0.3587,-0.3587,-0.3587,-0.3587,-0.3587,-0.3587,-0.3587,-0.3587,-0.3587,-0.3587,-0.3587,-0.3587,-0.3362,-0.2576,-0.2147,-0.1138,0.2047,0.4393,0.5975,0.619,0.5722,0.5352,0.5633,0.555,0.5382,0.5382,0.5355,0.5445,0.5667,0.5746,0.5918,0.6177,0.6491,0.6671,0.6806,0.697,0.7052,0.7157,0.7739,0.7804,0.7164,0.821,0.9046,0.9571,0.9579,0.9575,0.9556,0.9563,0.9571,-0.0664,-0.1223,-0.1781,-0.1791,-0.1794,-0.1342,0.0332,0.011,-0.0549,-0.0539,-0.0756,-0.0975,-0.0969,-0.1091,-0.1324,-0.1765,-0.1448,-0.1126,-0.1138,-0.0452,0.0113,0.0568,0.169,0.2462,0.0,0.0,0.0,0.1568,0.2139,0.2146,0.1581,0.1721,0.1625,0.1051,0.1181,0.1191,0.1079,0.1678,0.2038,0.2037,-0.0966,-0.2806,-0.3697,-0.4928,-0.5176,-0.4805,-0.4539,-0.4409,-0.4286,-0.4124,-0.4106,-0.4103,-0.3842,-0.382,-0.3801,-0.3801,-0.3763,-0.3704,-0.3666,-0.3639,-0.3624,-0.3646,-0.3653,-0.3653,-0.3653,-0.3653,-0.3653,-0.3653,-0.3653,-0.3653,-0.3653,-0.3653,-0.3653,-0.3653,-0.3293,-0.2826,-0.2034,-0.1247,0.0,0.2634,0.3842,0.4722,0.5572,0.5339,0.5075,0.5224,0.5167,0.5227,0.539,0.5382,0.5382,0.5382,0.5601,0.5797,0.5955,0.6386,0.6684,0.6931,0.7099,0.7393,0.7608,0.8193,0.8266,0.7941,0.8469,0.8895,0.9321,0.9762,0.9758,0.941,0.975,0.9971,-0.1853,-0.1642,-0.1428,-0.145,-0.1457,-0.0224,0.4151,0.359,0.1897,0.1755,0.1108,0.0558,0.0,0.0,-0.0336,-0.157,-0.0673,0.0112,0.0112,0.0112,0.0561,0.0,0.0,0.0,0.0,0.0,0.0,0.2133,0.0,0.3332,0.2069,0.3385,0.3558,0.2047,0.2291,0.231,0.1976,0.1977,0.2099,0.222,-0.1354,-0.2586,-0.1723,-0.4309,-0.5423,-0.5431,-0.5511,-0.5423,-0.5045,-0.4797,-0.4673,-0.4541,-0.4105,-0.3922,-0.399,-0.399,-0.3828,-0.3774,-0.3778,-0.3736,-0.3692,-0.3751,-0.377,-0.377,-0.377,-0.377,-0.377,-0.377,-0.377,-0.377,-0.377,-0.377,-0.3768,-0.3764,-0.2789,-0.1836,-0.172,-0.0793,0.0675,0.2517,0.2677,0.3195,0.4807,0.4944,0.48,0.4724,0.4714,0.4891,0.5298,0.5388,0.5386,0.5382,0.5601,0.5822,0.5822,0.6379,0.6824,0.7154,0.7379,0.775,0.8294,0.8478,0.8723,0.9159,0.8818,0.8703,0.892,1.0015,1.0011,0.892,1.012,1.0561,-0.1776,0.078,0.3575,0.3589,0.359,0.3363,0.2801,0.3589,0.381,0.1449,0.0782,0.0224,0.0,0.0,0.0,-0.0784,0.0336,0.0,0.1253,0.2031,0.0,0.3073,0.0,0.4931,0.4931,0.5231,0.0,0.0,0.4863,0.4791,0.3975,0.3916,0.3479,0.2651,0.2317,0.2092,0.1977,0.1234,0.0493,-0.0123,-0.2094,-0.3326,-0.4067,-0.4928,-0.5455,-0.5515,-0.5537,-0.5454,-0.5124,-0.5125,-0.4998,-0.4996,-0.4978,-0.4676,-0.4365,-0.4365,-0.4171,-0.3843,-0.3888,-0.3835,-0.3749,-0.3764,-0.377,-0.377,-0.377,-0.377,-0.377,-0.377,-0.377,-0.377,-0.377,-0.377,-0.3523,-0.2666,-0.2189,-0.1373,0.0452,0.1134,0.1948,0.3611,0.3945,0.4025,0.4531,0.4292,0.4272,0.4684,0.4551,0.4618,0.5045,0.5138,0.5227,0.5388,0.5491,0.5601,0.5822,0.6379,0.6824,0.7154,0.779,0.8323,0.8433,0.8948,0.9265,0.9388,0.9486,0.9258,0.8917,0.9265,0.9149,0.8903,0.9251,0.9367,0.0782,0.3363,0.5394,0.5394,0.505,0.4372,0.3585,0.3921,0.4036,0.2915,0.1906,0.0673,-0.0896,-0.056,0.0,0.0,0.0,0.0,0.2494,0.3151,0.3818,0.0,0.4959,0.0,0.549,0.5458,0.5422,0.0,0.5638,0.5524,0.5286,0.4387,0.3811,0.3444,0.2466,0.1734,0.1122,-0.0125,-0.0877,-0.1245,-0.2755,-0.3757,-0.436,-0.5263,-0.5806,-0.5855,0.0,-0.5808,-0.5723,-0.5463,-0.5465,-0.5461,-0.5295,-0.5001,-0.4839,-0.4839,-0.4643,-0.4432,-0.447,-0.4416,-0.4208,-0.3969,-0.3968,-0.4088,-0.4088,-0.3968,-0.3849,-0.4209,-0.4208,-0.4088,-0.4208,-0.4329,-0.3958,-0.2731,-0.2004,-0.1053,0.0927,0.1971,0.28,0.3913,0.4125,0.4195,0.4195,0.4073,0.4062,0.439,0.4263,0.4224,0.4591,0.478,0.4962,0.5223,0.5213,0.531,0.5605,0.6158,0.6715,0.7154,0.7931,0.8377,0.8709,0.9158,0.9382,0.9282,0.9614,0.9496,0.893,0.8937,0.8933,0.892,0.8927,0.893,0.4369,0.5495,0.5493,0.5493,0.4704,0.4254,0.5268,0.4479,0.3807,0.4714,0.3366,0.1458,-0.0112,-0.0112,-0.0112,-0.0336,0.0,0.3805,0.3805,0.3805,0.4142,0.5156,0.528,0.5463,0.5512,0.5378,0.5378,0.5534,0.5751,0.5842,0.5704,0.4638,0.4031,0.3773,0.249,0.1121,-0.0126,-0.1662,-0.2175,-0.1895,-0.3582,-0.422,-0.392,-0.5505,-0.6188,-0.6202,0.0,0.0,-0.6335,-0.6076,-0.5944,-0.5805,-0.547,-0.5307,-0.5297,-0.5297,-0.5248,-0.5054,-0.5054,-0.5008,-0.4947,-0.4199,-0.4195,-0.4439,-0.4439,-0.4318,-0.4196,-0.4689,-0.4687,-0.4562,-0.481,-0.481,-0.4313,-0.3072,-0.1824,-0.0481,0.0841,0.2261,0.3442,0.3739,0.3914,0.3951,0.3951,0.3951,0.3951,0.3951,0.3951,0.3931,0.4237,0.453,0.4693,0.4965,0.4956,0.5038,0.5294,0.5958,0.651,0.7046,0.7709,0.8266,0.8826,0.9158,0.9158,0.894,0.9386,0.9386,0.894,0.894,0.894,0.894,0.894,0.894,0.5835,0.6061,0.5947,0.6279,0.6163,0.5826,0.5833,0.5721,0.4933,0.2805,0.2468,0.157,-0.1682,-0.1008,0.0112,0.0559,0.3132,0.5043,0.4706,0.4704,0.4704,0.0,0.4991,0.5188,0.5288,0.0,0.0,0.0,0.0,0.0,0.448,0.4182,0.3513,0.2356,0.1,0.0126,-0.0126,-0.23,-0.3342,-0.3333,-0.4501,-0.5148,-0.5394,-0.5663,-0.5966,-0.6294,0.0,0.0,-0.6431,-0.6431,-0.6431,-0.6429,-0.6279,-0.6097,-0.5642,-0.5642,-0.546,-0.5134,-0.5134,-0.534,-0.539,-0.483,-0.481,-0.481,-0.481,-0.4812,-0.481,-0.481,-0.481,-0.481,-0.4933,-0.4067,-0.2947,-0.1698,-0.0362,0.096,0.2251,0.2979,0.3378,0.3555,0.3697,0.3951,0.3951,0.3951,0.3951,0.3951,0.3951,0.3947,0.3936,0.4242,0.4413,0.4697,0.4805,0.489,0.5041,0.5827,0.6471,0.672,0.7823,0.8484,0.8598,0.8823,0.894,0.894,0.9051,0.9051,0.894,0.894,0.894,0.894,0.894,0.894,0.6396,0.6393,0.6279,0.6388,0.6497,0.6497,0.6172,0.5947,0.4596,0.0672,0.0668,0.0555,-0.2241,-0.1223,0.0332,0.1228,0.2909,0.4367,0.4817,0.4929,0.4817,0.4706,0.4739,0.4843,0.0,0.0,0.0,0.0,0.0,0.0,0.4697,0.4115,0.3284,0.2102,-0.0126,-0.1147,-0.1147,-0.3776,-0.4985,-0.4819,-0.5513,-0.5775,-0.5738,-0.6043,-0.6215,-0.6388,-0.6388,0.0,-0.6453,-0.6453,-0.6453,-0.6453,-0.6453,-0.6427,-0.6125,-0.6125,-0.5937,-0.5732,-0.5732,-0.5806,-0.5857,-0.569,-0.5368,-0.5177,-0.5177,-0.5056,-0.4933,-0.5302,-0.4808,-0.419,-0.4312,-0.3447,-0.2089,-0.0855,0.0488,0.1583,0.2295,0.267,0.318,0.3575,0.3826,0.3951,0.3951,0.3951,0.3951,0.3951,0.3951,0.3951,0.3951,0.4046,0.4245,0.4414,0.4527,0.4616,0.4777,0.5652,0.6289,0.6579,0.7527,0.8156,0.8484,0.8598,0.8712,0.8712,0.8826,0.894,0.894,0.894,0.894,0.894,0.894,0.894,0.6723,0.6705,0.6576,0.6463,0.6551,0.6651,0.647,0.5562,0.3437,-0.078,-0.088,-0.0764,-0.2326,-0.1099,0.0219,0.0,0.2008,0.3356,0.4255,0.4592,0.4707,0.0,0.4496,0.0,0.4784,0.0,0.0,0.0,0.0,0.0,0.0,0.4009,0.3044,0.1978,-0.0761,-0.2189,-0.2189,-0.5036,-0.6285,-0.5956,-0.6287,-0.6283,-0.5958,-0.6289,-0.6453,-0.6453,-0.6453,0.0,0.0,-0.6453,-0.6453,-0.6453,-0.6453,-0.6453,-0.6453,-0.6453,-0.6408,-0.6345,-0.6345,-0.6286,-0.621,-0.621,-0.5974,-0.5594,-0.5577,-0.5328,-0.5202,-0.5427,-0.4558,-0.3571,-0.3692,-0.2708,-0.1355,0.0123,0.1111,0.1853,0.1851,0.222,0.2714,0.3579,0.3826,0.3951,0.3951,0.3951,0.3951,0.3951,0.3951,0.3951,0.3951,0.3951,0.3932,0.4245,0.4239,0.4332,0.4736,0.5492,0.6012,0.6427,0.7249,0.7853,0.8266,0.8484,0.8484,0.8484,0.8712,0.8826,0.894,0.894,0.894,0.894,0.894,0.894,0.6935,0.6858,0.6559,0.6891,0.67,0.6544,0.6999,0.4543,0.1502,-0.0437,-0.119,-0.1712,-0.2248,-0.0974,-0.0655,-0.2736,0.0221,0.2795,0.2908,0.3583,0.4036,0.4036,0.0,0.0,0.4542,0.0,0.0,0.0,0.0,0.0,0.0,0.3058,0.2511,0.1977,-0.0761,-0.2189,-0.2189,-0.5036,-0.6449,-0.6441,-0.6449,-0.6449,-0.6441,-0.6451,-0.6453,-0.6453,0.0,0.0,0.0,-0.6453,-0.6453,-0.6453,-0.6453,-0.6453,-0.6453,-0.6453,-0.6449,-0.6441,-0.6441,-0.6382,-0.6304,-0.6304,-0.6237,-0.6141,-0.5938,-0.5916,-0.5646,-0.4449,-0.3937,-0.3815,-0.3448,-0.2094,-0.037,0.1358,0.1482,0.1112,0.1358,0.1727,0.222,0.2961,0.3579,0.3951,0.3951,0.3951,0.3951,0.3951,0.3951,0.3951,0.3951,0.3951,0.3948,0.3943,0.3942,0.4282,0.5172,0.552,0.604,0.6782,0.7439,0.7722,0.7721,0.8156,0.8484,0.8484,0.8371,0.8484,0.894,0.894,0.894,0.894,0.894,0.894,0.6727,0.6585,0.6231,0.6551,0.6409,0.5965,0.5157,0.3314,0.1172,-0.086,-0.1488,-0.1474,-0.0744,-0.0963,-0.1187,-0.0545,-0.0,0.0783,0.2238,0.3361,0.4038,0.4038,0.3948,0.0,0.0,0.0,0.0,0.0,0.0,0.0,0.0,0.3222,0.2658,0.1978,-0.0761,-0.2189,-0.2189,-0.5036,-0.6453,-0.6453,-0.6453,-0.6453,-0.6453,-0.6453,-0.6453,-0.6453,0.0,0.0,0.0,-0.6453,-0.6453,-0.6453,-0.6453,-0.6453,-0.6453,-0.6453,-0.6453,-0.6453,-0.6453,-0.6429,-0.6398,-0.6398,-0.6376,-0.6319,-0.6174,-0.6094,-0.592,-0.5379,-0.434,-0.3448,-0.3325,-0.1356,0.0741,0.1358,0.1359,0.1112,0.1111,0.1728,0.2598,0.3122,0.3478,0.3713,0.387,0.3973,0.3951,0.3951,0.3951,0.3951,0.3951,0.3951,0.3951,0.3951,0.3951,0.4185,0.5006,0.5446,0.5964,0.6645,0.7146,0.7508,0.761,0.7934,0.8156,0.8156,0.8488,0.8709,0.8709,0.8826,0.894,0.894,0.894,0.894,0.6482,0.6353,0.6013,0.622,0.5989,0.5348,0.3796,0.2523,0.1258,-0.0634,-0.1043,-0.0827,0.0314,-0.0423,-0.0641,0.1297,0.0552,0.0336,0.2016,0.3138,0.3924,0.4036,0.0,0.0,0.0,0.0,0.0,0.0,0.0,0.0,0.0,0.3394,0.2948,0.224,-0.0636,-0.2189,-0.2189,-0.5036,-0.6453,-0.6453,-0.6453,-0.6453,-0.6453,-0.6453,-0.6453,-0.6453,0.0,0.0,0.0,-0.6453,-0.6453,-0.6453,-0.6453,-0.6453,-0.6453,-0.6453,-0.6453,-0.6453,-0.6453,-0.6453,-0.6453,-0.6453,-0.6453,-0.6429,-0.63,-0.6182,-0.596,-0.5552,-0.3738,-0.1847,-0.1725,-0.0123,0.1482,0.1482,0.1482,0.1482,0.1359,0.1975,0.2726,0.3272,0.3379,0.3619,0.3925,0.4014,0.3976,0.3976,0.3961,0.3951,0.3951,0.3951,0.3951,0.3951,0.3951,0.4195,0.517,0.5487,0.6007,0.6708,0.7206,0.7434,0.7502,0.7712,0.7934,0.8045,0.838,0.8602,0.8598,0.8712,0.8826,0.894,0.894,0.894,0.6054,0.6083,0.5796,0.5796,0.5516,0.4863,0.3507,0.235,0.142,0.062,0.0204,0.0101,0.0403,0.0935,0.1381,0.1594,0.1971,0.2128,0.224,0.3025,0.3699,0.0,0.0,0.0,0.0,0.0,0.0,0.0,0.0,0.0,0.0,0.0,0.3379,0.2651,-0.0511,-0.2189,-0.2189,-0.5036,-0.6453,-0.6453,-0.6453,-0.6453,-0.6453,-0.6453,0.0,0.0,0.0,0.0,0.0,-0.6453,-0.6453,-0.6453,-0.6453,-0.6453,-0.6453,-0.6453,-0.6453,-0.6453,-0.6453,-0.6453,-0.6453,-0.6453,-0.6453,-0.6453,-0.6451,-0.6323,-0.5904,-0.455,-0.1494,0.1356,0.1852,0.1977,0.1977,0.1977,0.1977,0.1977,0.1977,0.2346,0.2726,0.3021,0.3282,0.3676,0.3986,0.4074,0.4034,0.4034,0.3986,0.3951,0.3951,0.3951,0.3951,0.3951,0.3951,0.4441,0.5786,0.5906,0.6315,0.7415,0.7516,0.7407,0.7165,0.7493,0.7715,0.8045,0.8045,0.8269,0.8937,0.8598,0.8598,0.894,0.894,0.894,0.5632,0.5408,0.4881,0.508,0.4756,0.4039,0.2945,0.2531,0.2119,0.1219,0.1012,0.131,0.2216,0.2387,0.2444,0.2443,0.3067,0.325,0.0,0.0,0.0,0.3362,0.0,0.0,0.0,0.0,0.0,0.0,0.0,0.0,0.0,0.0,0.2871,0.128,-0.0778,-0.2481,-0.3658,-0.5592,-0.6453,-0.6453,-0.6453,-0.6453,-0.6453,-0.6453,0.0,0.0,0.0,0.0,0.0,-0.6453,-0.6453,-0.6453,-0.6453,-0.6453,-0.6453,-0.6453,-0.6453,-0.6453,-0.6453,-0.6453,-0.6453,-0.6453,-0.6453,-0.6453,-0.6453,-0.637,-0.6114,-0.5463,-0.3491,-0.1109,0.1358,0.1977,0.1977,0.1977,0.1977,0.1977,0.1977,0.2099,0.2363,0.2933,0.3178,0.3435,0.404,0.4102,0.4034,0.4034,0.3986,0.3951,0.3951,0.3951,0.3951,0.3951,0.3951,0.4441,0.5786,0.5906,0.6317,0.7415,0.7519,0.741,0.7165,0.7493,0.7607,0.7715,0.7934,0.8045,0.8269,0.8374,0.8598,0.894,0.894,0.9051,0.5238,0.4836,0.4336,0.4535,0.4334,0.3731,0.2622,0.2621,0.2619,0.2116,0.2116,0.2519,0.3626,0.3738,0.3722,0.3613,0.3943,0.3923,0.0,0.0,0.0,0.0,0.0,0.0,0.0,0.0,0.0,0.0,0.0,0.0,0.0,0.0,0.2775,0.0262,-0.0918,-0.2366,-0.4077,-0.5604,-0.6317,-0.6453,-0.6453,-0.6453,-0.6453,-0.6453,0.0,0.0,0.0,0.0,0.0,-0.6317,-0.6317,-0.6317,-0.6317,-0.6317,-0.6317,-0.6453,-0.6453,-0.6453,-0.6453,-0.6453,-0.6453,-0.6453,-0.6453,-0.6453,-0.6453,-0.6498,-0.6369,-0.5976,-0.4618,-0.2587,0.0494,0.1606,0.1977,0.1977,0.1977,0.1977,0.1977,0.2109,0.2384,0.2955,0.3217,0.349,0.4101,0.415,0.4068,0.4068,0.4001,0.3951,0.3951,0.3951,0.3951,0.3951,0.3951,0.4318,0.5416,0.5512,0.5918,0.7059,0.7127,0.7132,0.7163,0.7379,0.7493,0.7607,0.7712,0.7823,0.8045,0.8374,0.8598,0.894,0.894,0.9158,0.0,0.4638,0.4034,0.4338,0.4135,0.3731,0.2724,0.2722,0.0,0.3224,0.3324,0.3626,0.4634,0.4983,0.5002,0.4786,0.46,0.0,0.0,0.325,0.0,0.0,0.0,0.0,0.0,0.0,0.0,0.0,0.0,0.0,0.0,0.0,0.0,-0.0403,-0.0796,-0.1976,-0.3951,-0.5338,-0.6182,-0.6453,-0.6453,-0.6453,-0.6453,-0.6453,0.0,0.0,0.0,0.0,0.0,-0.6048,-0.5912,-0.5912,-0.5912,-0.5912,-0.5914,-0.6319,-0.6453,-0.6453,-0.6453,-0.6453,-0.6453,-0.6453,-0.6453,-0.6453,-0.6311,-0.6454,-0.6556,-0.6094,-0.4998,-0.3452,-0.0741,0.0988,0.1977,0.1979,0.2103,0.2104,0.2106,0.2379,0.2793,0.3093,0.3395,0.3838,0.4297,0.4206,0.4125,0.4125,0.4026,0.3952,0.3956,0.3956,0.3956,0.3956,0.3956,0.4199,0.4803,0.4862,0.5264,0.6469,0.6479,0.6601,0.716,0.7154,0.7268,0.7607,0.7379,0.7487,0.8045,0.8266,0.8598,0.894,0.894,0.9268,0.5415,0.0,0.3734,0.4034,0.3732,0.3331,0.0,0.3531,0.383,0.4033,0.4232,0.4531,0.4734,0.4983,0.5108,0.5002,0.0,0.0,0.0,0.0,0.0,0.0,0.0,0.0,0.0,0.0,0.0,0.0,0.0,0.0,0.0,0.0,0.0,-0.0,-0.0268,-0.1871,-0.5347,-0.6038,-0.6317,-0.6048,-0.6048,-0.6048,-0.6048,-0.5781,0.0,0.0,0.0,0.0,-0.5649,-0.5515,-0.5513,-0.5513,-0.5513,-0.5513,-0.5513,-0.5649,-0.5649,-0.5649,-0.5649,-0.5649,-0.5649,-0.5649,-0.5649,-0.5503,-0.4376,-0.5096,-0.6445,-0.6821,-0.6183,-0.457,-0.0987,0.0987,0.1979,0.2003,0.2512,0.2898,0.2804,0.2946,0.3094,0.353,0.368,0.3838,0.4297,0.4206,0.4125,0.4125,0.4026,0.3966,0.401,0.4015,0.4015,0.4015,0.4015,0.3997,0.4076,0.4499,0.5264,0.6469,0.6479,0.6601,0.716,0.7154,0.7265,0.7268,0.7265,0.7487,0.8045,0.8045,0.838,0.894,0.9158,0.9489,0.5622,0.4937,0.4236,0.4435,0.4234,0.3934,0.3937,0.4236,0.4537,0.4438,0.4738,0.4949,0.489,0.4908,0.4908,0.0,0.4627,0.0,0.0,0.0,0.0,0.0,0.0,0.0,0.0,0.0,0.0,0.0,0.0,0.0,0.0,0.0,0.0,0.0,-0.0134,-0.1879,-0.5376,-0.5646,-0.5647,-0.5647,-0.5647,-0.5647,-0.5647,-0.5513,0.0,0.0,0.0,0.0,-0.5381,-0.5245,-0.5111,-0.5111,-0.5111,-0.5111,-0.5111,-0.5381,-0.5381,-0.5381,-0.5381,-0.5381,-0.5381,-0.5381,-0.5381,-0.5238,-0.4529,-0.3928,-0.3601,-0.4348,-0.4774,-0.4198,-0.0494,0.1605,0.2851,0.2515,0.2777,0.3169,0.3087,0.3242,0.3395,0.3683,0.384,0.4002,0.4301,0.4206,0.4125,0.4125,0.4026,0.3971,0.4027,0.4034,0.4045,0.4074,0.4052,0.4011,0.4077,0.4349,0.4986,0.5998,0.6205,0.6659,0.7157,0.7154,0.7154,0.7154,0.7268,0.7712,0.8263,0.8045,0.8488,0.9268,0.9261,0.9632,0.5839,0.5539,0.5035,0.514,0.5037,0.4734,0.4537,0.4839,0.5039,0.464,0.4839,0.517,0.5058,0.4835,0.0,0.0,0.0,0.0,0.0,0.0,0.0,0.0,0.0,0.0,0.0,0.0,0.0,0.0,0.0,0.0,0.0,0.0,0.0,0.0,-0.0269,-0.1745,-0.4707,-0.4841,-0.4975,-0.5247,-0.5247,-0.5247,-0.5247,-0.5247,0.0,0.0,0.0,0.0,-0.5247,-0.4842,-0.4707,-0.4707,-0.4707,-0.4707,-0.4707,-0.5112,-0.5247,-0.5247,-0.5247,-0.5247,-0.5247,-0.5247,-0.5247,-0.5108,-0.4683,-0.2625,-0.0385,-0.0757,-0.1741,-0.2218,0.0494,0.2471,0.3725,0.3154,0.3293,0.3436,0.3365,0.3539,0.3833,0.3833,0.4005,0.4305,0.4294,0.42,0.4123,0.4113,0.4021,0.3971,0.4027,0.4042,0.4068,0.412,0.4079,0.4146,0.4322,0.4432,0.4698,0.5506,0.6032,0.6485,0.7154,0.7154,0.7265,0.7265,0.7493,0.7937,0.8484,0.8266,0.8709,0.9706,0.9282,0.9809,0.6337,0.6237,0.6037,0.534,0.5037,0.4834,0.5039,0.514,0.514,0.514,0.4937,0.4966,0.5268,0.4839,0.4498,0.0,0.0,0.0,0.0,0.0,0.0,0.0,0.0,0.0,0.0,0.0,0.0,0.0,0.0,0.0,0.0,0.0,0.0,0.0,0.0,-0.1478,-0.4307,-0.4978,-0.5111,-0.4841,-0.4841,-0.4841,-0.4841,-0.4575,-0.4574,0.0,0.0,-0.4441,-0.4441,-0.4441,-0.4441,-0.4441,-0.4441,-0.4441,-0.4441,-0.4441,-0.4441,-0.4441,-0.4441,-0.4441,-0.4441,-0.4441,-0.4441,-0.4019,-0.1698,-0.0775,-0.0256,0.1745,0.2099,0.1973,0.185,0.2839,0.3855,0.3964,0.3987,0.4014,0.4123,0.4152,0.4159,0.4159,0.4301,0.4292,0.424,0.4172,0.4108,0.4056,0.3993,0.3971,0.4027,0.4079,0.4115,0.4125,0.4376,0.4449,0.445,0.5031,0.5377,0.5533,0.5771,0.6265,0.7154,0.7154,0.7268,0.7493,0.7607,0.7937,0.8484,0.8702,0.9037,0.9493,0.9962,1.0378,0.6437,0.6437,0.6337,0.5939,0.5737,0.5636,0.5438,0.5541,0.5541,0.524,0.4976,0.4937,0.5239,0.0,0.4127,0.4309,0.0,0.0,0.0,0.0,0.0,0.0,0.0,0.0,0.0,0.0,0.0,0.0,0.0,0.0,0.0,0.0,0.0,0.0,0.0,-0.1344,-0.4307,-0.4575,-0.471,-0.4574,-0.4574,-0.4574,-0.4574,-0.4307,-0.4441,-0.4574,0.0,-0.4308,-0.4308,-0.4308,-0.4308,-0.4308,-0.4308,-0.4308,-0.4308,-0.4308,-0.4308,-0.4308,-0.4308,-0.4308,-0.4308,-0.4308,-0.4308,-0.3887,-0.1836,-0.1036,-0.0385,0.1381,0.211,0.2344,0.2098,0.2839,0.3607,0.359,0.3871,0.415,0.4239,0.4259,0.4259,0.4259,0.4232,0.4211,0.4215,0.4139,0.4067,0.4038,0.3986,0.3971,0.4027,0.4059,0.4102,0.4168,0.4406,0.4588,0.4575,0.507,0.5637,0.5903,0.6074,0.627,0.6715,0.6715,0.6937,0.7379,0.7493,0.7937,0.8702,0.8702,0.9037,0.9603,0.9872,1.022,0.6352,0.6374,0.6396,0.6396,0.6418,0.6237,0.5837,0.5839,0.5849,0.5372,0.5026,0.5006,0.0,0.4563,0.0,0.0,0.0,0.0,0.0,0.0,0.0,0.0,0.0,0.0,0.0,0.0,0.0,0.0,0.0,0.0,0.0,0.0,0.0,0.0,0.0,-0.1344,-0.4307,-0.4308,-0.4308,-0.4308,-0.4308,-0.4308,-0.4308,-0.4308,-0.4308,-0.4308,-0.4308,-0.4308,-0.4308,-0.4308,-0.4308,-0.4308,-0.4308,-0.4308,-0.4308,-0.4308,-0.4308,-0.4308,-0.4308,-0.4308,-0.4305,-0.4021,-0.3884,-0.3604,-0.1966,-0.0905,-0.0128,0.1008,0.1742,0.2221,0.2099,0.2716,0.3355,0.319,0.3593,0.412,0.4183,0.4195,0.4195,0.4195,0.4158,0.4136,0.4168,0.4097,0.403,0.4016,0.3978,0.3966,0.401,0.404,0.422,0.4316,0.4802,0.5081,0.5142,0.5272,0.5598,0.6065,0.6274,0.6274,0.6274,0.6383,0.6715,0.7268,0.7604,0.8156,0.8923,0.8816,0.9058,0.9765,0.9811,1.0086,0.6111,0.6195,0.6282,0.6282,0.6361,0.6337,0.6039,0.5942,0.5871,0.5462,0.5175,0.5024,0.0,0.4753,0.0,0.0,0.0,0.0,0.0,0.0,0.0,0.0,0.0,0.0,0.0,0.0,0.0,0.0,0.0,0.0,0.0,0.0,0.0,0.0,0.0,-0.1344,-0.4307,-0.4308,-0.4308,-0.4308,-0.4308,-0.4308,-0.4308,-0.4308,-0.4308,-0.4308,-0.4308,-0.4308,-0.4308,-0.4308,-0.4308,-0.4308,-0.4308,-0.4308,-0.4308,-0.4308,-0.4308,-0.4308,-0.4308,-0.4308,-0.4163,-0.3179,-0.2768,-0.2361,-0.0,0.0759,0.1133,0.2482,0.284,0.2837,0.259,0.2961,0.3471,0.3527,0.3791,0.4057,0.4119,0.4132,0.4132,0.4132,0.4128,0.4109,0.4057,0.404,0.4016,0.3965,0.3954,0.3952,0.3956,0.4306,0.464,0.4649,0.5415,0.6041,0.6051,0.5625,0.5402,0.5493,0.594,0.6274,0.6274,0.6826,0.7268,0.7607,0.8156,0.8598,0.8937,0.9158,0.945,0.9589,1.0093,1.0375,0.6086,0.6176,0.6268,0.6268,0.6257,0.6139,0.6042,0.6098,0.606,0.5686,0.5378,0.4964,0.0,0.0,0.0,0.0,0.0,0.0,0.0,0.0,0.0,0.0,0.0,0.0,0.0,0.0,0.0,0.0,0.0,0.0,0.0,0.0,0.0,0.0,0.0,-0.0941,-0.2959,-0.3902,-0.4289,-0.4252,-0.4289,-0.4308,-0.4308,-0.4308,-0.4308,-0.4308,-0.4308,-0.4308,-0.4308,-0.4308,-0.4285,-0.4247,-0.4209,-0.4194,-0.4194,-0.4194,-0.4194,-0.4194,-0.4194,-0.4194,-0.3928,-0.2733,-0.2468,-0.207,0.0634,0.1387,0.1509,0.2974,0.3332,0.3209,0.2838,0.3208,0.347,0.3522,0.3785,0.4041,0.4064,0.4068,0.4068,0.4068,0.4041,0.4021,0.4033,0.4006,0.3976,0.3954,0.3951,0.3963,0.425,0.4548,0.474,0.5086,0.548,0.569,0.5866,0.5631,0.5382,0.5382,0.5605,0.5938,0.6267,0.6487,0.6932,0.7607,0.7934,0.8377,0.8598,0.8933,0.9123,0.938,0.9882,1.039,0.6029,0.6241,0.6363,0.6168,0.6059,0.5942,0.5741,0.5826,0.5913,0.5634,0.5373,0.4863,0.425,0.0,0.0,0.0,0.0,0.0,0.0,0.0,0.0,0.0,0.0,0.0,0.0,0.0,0.0,0.0,0.0,0.0,0.0,0.0,0.0,0.0,0.0,0.0,-0.2137,-0.3624,-0.4286,-0.4245,-0.4288,-0.4288,-0.4251,-0.427,-0.4279,-0.4279,-0.4298,-0.4296,-0.4279,-0.4279,-0.4243,-0.4184,-0.4142,-0.4125,-0.4125,-0.4125,-0.4125,-0.4125,-0.4125,-0.3867,-0.3347,-0.205,-0.1535,-0.0893,0.1508,0.2128,0.2125,0.3218,0.3455,0.3455,0.3332,0.3332,0.3465,0.3502,0.3759,0.4008,0.4008,0.4008,0.4008,0.4008,0.3977,0.3962,0.4001,0.3976,0.3951,0.3951,0.395,0.4211,0.4504,0.4799,0.5119,0.5741,0.5657,0.5593,0.5866,0.5635,0.5491,0.5712,0.5712,0.5824,0.6262,0.6599,0.7046,0.7607,0.7976,0.831,0.8374,0.8466,0.8897,0.9564,0.9838,1.0699,0.5996,0.6267,0.6554,0.6066,0.5958,0.5842,0.5343,0.532,0.5313,0.5197,0.5035,0.4817,0.4592,0.4258,0.0,0.0,0.0,0.0,0.0,0.0,0.0,0.0,0.0,0.0,0.0,0.0,0.0,0.0,0.0,0.0,0.0,0.0,0.0,0.0,0.0,0.0,-0.2106,-0.3606,-0.4305,-0.4305,-0.4305,-0.4243,-0.413,-0.4189,-0.4217,-0.4219,-0.4281,-0.4271,-0.4215,-0.4215,-0.418,-0.4125,-0.4124,-0.4124,-0.4124,-0.4124,-0.4124,-0.4124,-0.4124,-0.322,-0.2054,-0.0887,0.0252,0.1635,0.2726,0.2961,0.3085,0.3455,0.3455,0.358,0.3826,0.3703,0.3455,0.3455,0.3703,0.3951,0.3951,0.3951,0.3951,0.3951,0.3951,0.3951,0.3951,0.3951,0.3951,0.3951,0.4195,0.4438,0.4439,0.519,0.5929,0.6571,0.619,0.5864,0.6127,0.5711,0.5601,0.6262,0.6262,0.6262,0.6262,0.7157,0.7607,0.7607,0.8292,0.8517,0.8045,0.797,0.8787,1.0405,1.0226,1.1101,0.5702,0.5834,0.5971,0.5662,0.5565,0.5461,0.5328,0.5627,0.5748,0.5593,0.5452,0.5043,0.4592,0.0,0.0,0.0,0.0,0.0,0.0,0.0,0.0,0.0,0.0,0.0,0.0,0.0,0.0,0.0,0.0,0.0,0.0,0.0,0.0,0.0,0.0,0.0,-0.0648,-0.2995,-0.4158,-0.4116,-0.4116,-0.4164,-0.4255,-0.4273,-0.4258,-0.4217,-0.4236,-0.4209,-0.415,-0.4106,-0.4078,-0.4057,-0.4018,-0.4003,-0.4003,-0.4003,-0.4003,-0.4003,-0.4003,-0.3125,-0.1872,-0.0621,0.0621,0.1737,0.3213,0.3455,0.3455,0.3703,0.3703,0.3579,0.358,0.3332,0.3209,0.3703,0.3826,0.3951,0.3951,0.3951,0.3951,0.3951,0.3951,0.3951,0.3951,0.3951,0.395,0.4195,0.4316,0.4578,0.5128,0.573,0.6032,0.597,0.5904,0.5745,0.554,0.5254,0.5264,0.5933,0.5931,0.6376,0.7487,0.7712,0.8045,0.8266,0.8644,0.8533,0.8045,0.9233,0.9842,1.0073,1.1047,1.2175,0.5738,0.5756,0.5764,0.5436,0.5298,0.5278,0.5417,0.5629,0.0,0.0,0.5491,0.5268,0.4592,0.0,0.0,0.0,0.0,0.0,0.0,0.0,0.0,0.0,0.0,0.0,0.0,0.0,0.0,0.0,0.0,0.0,0.0,0.0,0.0,0.0,0.0,0.0,0.0379,-0.1792,-0.3207,-0.3691,-0.3691,-0.3743,-0.3838,-0.4079,-0.4179,-0.4145,-0.4145,-0.4124,-0.4085,-0.4026,-0.4001,-0.3999,-0.3963,-0.3951,-0.3951,-0.3951,-0.358,-0.3085,-0.3085,-0.1973,-0.0247,0.0493,0.1603,0.259,0.358,0.3826,0.3703,0.3828,0.3826,0.358,0.3579,0.3332,0.3332,0.3703,0.3703,0.3826,0.3828,0.3951,0.3951,0.3951,0.395,0.4071,0.4071,0.4196,0.4319,0.4564,0.4685,0.5081,0.5663,0.594,0.5944,0.58,0.5734,0.5706,0.5536,0.5368,0.5599,0.6267,0.6376,0.6821,0.7934,0.8045,0.8045,0.8156,0.8434,0.8575,0.8345,0.9446,1.0409,1.1101,1.2094,1.3195,0.5825,0.5841,0.5829,0.5338,0.5153,0.0,0.5497,0.5403,0.5279,0.5363,0.0,0.5268,0.0,0.0,0.0,0.0,0.0,0.0,0.0,0.0,0.0,0.0,0.0,0.0,0.0,0.0,0.0,0.0,0.0,0.0,0.0,0.0,0.0,0.0,0.0,0.0,0.098,-0.0504,-0.1791,0.0,-0.3078,-0.3081,-0.3084,-0.3684,-0.3914,-0.3908,-0.403,-0.4027,-0.3896,-0.3971,-0.3951,-0.3951,-0.3951,-0.3951,-0.3951,-0.3951,-0.3085,-0.1973,-0.2097,-0.0247,0.1973,0.1973,0.2837,0.3951,0.3951,0.3951,0.3951,0.3951,0.3828,0.3826,0.358,0.3455,0.3455,0.3455,0.3455,0.3579,0.3703,0.3826,0.3828,0.395,0.4195,0.4438,0.4439,0.4687,0.4935,0.4933,0.5177,0.5573,0.5906,0.5967,0.5949,0.5908,0.5682,0.5762,0.6001,0.5821,0.6156,0.7043,0.7154,0.7382,0.7952,0.794,0.7943,0.7624,0.8188,0.8593,0.882,0.9325,1.0642,1.2903,1.3214,1.4147,0.5235,0.5241,0.5241,0.4918,0.5047,0.5166,0.5206,0.5235,0.5468,0.5708,0.5603,0.0,0.0,0.0,0.0,0.0,0.0,0.0,0.0,0.0,0.0,0.0,0.0,0.0,0.0,0.0,0.0,0.0,0.0,0.0,0.0,0.0,0.0,0.0,0.0,0.2849,0.2255,0.0,-0.1208,0.0,-0.2447,-0.2956,-0.2993,-0.3181,-0.3317,-0.3279,-0.374,-0.3845,-0.3595,-0.3832,-0.3951,-0.3951,-0.3951,-0.3951,-0.3951,-0.3951,-0.3085,-0.2097,-0.2343,-0.0493,0.1973,0.1726,0.259,0.3951,0.3951,0.3951,0.3951,0.3951,0.3703,0.358,0.3455,0.3332,0.3085,0.3085,0.3085,0.3085,0.3208,0.3455,0.3702,0.3822,0.4192,0.4439,0.4687,0.481,0.4933,0.53,0.5546,0.5802,0.5945,0.5931,0.58,0.5571,0.5524,0.5645,0.5645,0.5591,0.5819,0.6712,0.6599,0.6748,0.7406,0.7765,0.7985,0.8094,0.9137,0.966,0.9317,1.1487,1.2421,1.2312,1.3703,1.4525,0.5072,0.4958,0.4922,0.4812,0.0,0.5214,0.5426,0.5576,0.5712,0.6158,0.0,0.0,0.0,0.0,0.0,0.0,0.0,0.0,0.0,0.0,0.0,0.0,0.0,0.0,0.0,0.0,0.0,0.0,0.0,0.0,0.0,0.0,0.0,0.0,0.463,0.395,0.3136,0.1288,0.0,-0.0595,-0.1788,-0.2405,-0.2443,-0.2876,-0.302,-0.312,-0.3469,-0.358,-0.3579,-0.3826,-0.3951,-0.3951,-0.3951,-0.3579,-0.2961,-0.2961,-0.1726,-0.0123,-0.0247,0.1109,0.2838,0.2714,0.3208,0.3951,0.3951,0.3951,0.3951,0.3951,0.3826,0.3703,0.3579,0.3454,0.333,0.3085,0.2961,0.3085,0.333,0.3576,0.3822,0.4316,0.4684,0.493,0.5054,0.5177,0.5177,0.5421,0.5546,0.5669,0.5916,0.5916,0.5916,0.6156,0.599,0.5996,0.6464,0.6159,0.6265,0.6935,0.6873,0.7153,0.801,0.8351,0.8495,0.8571,0.937,1.013,1.0755,1.226,1.3067,1.3168,1.4118,1.4655,0.4903,0.4876,0.4728,0.4814,0.4961,0.0,0.5739,0.5778,0.5913,0.6376,0.0,0.0,0.0,0.0,0.0,0.0,0.0,0.0,0.0,0.0,0.0,0.0,0.0,0.0,0.0,0.0,0.0,0.0,0.0,0.0,0.0,0.0,0.5382,0.5382,0.5449,0.4914,0.3885,0.278,0.1518,0.0234,-0.1176,-0.1899,-0.1924,-0.2557,-0.2824,-0.2838,-0.3209,-0.3332,-0.3332,-0.358,-0.3703,-0.3703,-0.3826,-0.3085,-0.1973,-0.1973,-0.0247,0.1973,0.1973,0.2714,0.3826,0.3826,0.3826,0.3826,0.3828,0.3951,0.3951,0.3951,0.3951,0.3828,0.3702,0.3822,0.3821,0.333,0.3208,0.333,0.3699,0.3944,0.4192,0.4808,0.5177,0.5421,0.5298,0.5298,0.5298,0.5298,0.5298,0.5423,0.5794,0.5916,0.6283,0.6891,0.6588,0.6584,0.7402,0.6956,0.6834,0.7184,0.7392,0.792,0.8876,0.9109,0.9418,0.9562,0.9764,1.0646,1.2124,1.2596,1.3277,1.4172,1.4416,1.4535,0.4558,0.4587,0.4728,0.4814,0.4912,0.501,0.0,0.0,0.5393,0.0,0.0,0.0,0.0,0.0,0.0,0.0,0.0,0.0,0.0,0.0,0.0,0.0,0.0,0.0,0.0,0.0,0.0,0.0,0.0,0.0,0.0,0.5382,0.5382,0.5382,0.5392,0.5286,0.5172,0.3941,0.2724,0.1382,-0.0819,-0.1888,-0.1892,-0.2014,-0.2047,-0.2223,-0.2839,-0.2961,-0.2714,-0.2961,-0.3085,-0.3208,-0.3455,-0.2714,-0.1603,-0.1849,-0.0247,0.1973,0.1726,0.2466,0.358,0.358,0.358,0.358,0.3826,0.3951,0.3951,0.3951,0.3951,0.395,0.4193,0.4316,0.4315,0.4192,0.4192,0.407,0.3702,0.3947,0.4438,0.4803,0.5174,0.5298,0.5056,0.4933,0.4933,0.4933,0.4933,0.5179,0.5794,0.616,0.6648,0.7263,0.7062,0.7163,0.7519,0.6956,0.6865,0.7304,0.8115,0.8804,0.9173,0.9905,1.081,1.1799,1.2001,1.2128,1.22,1.3402,1.3904,1.3808,1.4052,1.4296,0.5242,0.546,0.5605,0.5711,0.5822,0.5831,0.5324,0.5314,0.55,0.0,0.0,0.0,0.0,0.0,0.0,0.0,0.0,0.0,0.0,0.0,0.0,0.0,0.0,0.0,0.0,0.0,0.0,0.0,0.0,0.0,0.594,0.594,0.5826,0.5601,0.5601,0.5603,0.5382,0.3583,0.1685,-0.0227,-0.1371,-0.1844,-0.186,-0.186,-0.1894,-0.1951,-0.2437,-0.257,-0.2467,-0.2838,-0.2961,-0.2961,-0.3208,-0.1972,-0.0123,-0.0493,0.0986,0.3081,0.2714,0.2838,0.3209,0.3455,0.3455,0.358,0.3826,0.4073,0.4195,0.4195,0.4318,0.4442,0.4687,0.4808,0.493,0.4685,0.4931,0.5177,0.4685,0.4682,0.4805,0.5298,0.5421,0.5298,0.4933,0.4687,0.4562,0.4562,0.4931,0.53,0.5794,0.6407,0.6896,0.763,0.7303,0.7285,0.7749,0.7358,0.7392,0.8121,0.8612,0.9569,1.0768,1.1224,1.1984,1.2803,1.2464,1.2512,1.3084,1.3688,1.3808,1.3688,1.4162,1.4282,0.5954,0.6415,0.6711,0.6495,0.651,0.6323,0.0,0.0,0.0,0.0,0.0,0.0,0.0,0.0,0.0,0.0,0.0,0.0,0.0,0.0,0.0,0.0,0.0,0.0,0.0,0.0,0.0,0.0,0.0,0.0,0.6274,0.6274,0.6161,0.5935,0.5822,0.5712,0.5491,0.3358,0.1232,-0.0897,-0.0897,-0.1242,-0.1829,-0.1485,-0.1509,-0.1909,-0.2154,-0.2297,-0.2331,-0.2577,-0.2705,-0.2715,-0.2838,-0.1232,0.1108,0.0739,0.2094,0.4067,0.3948,0.3579,0.3208,0.3702,0.3702,0.3701,0.4073,0.4318,0.4562,0.4562,0.4687,0.4935,0.5056,0.5177,0.5298,0.5179,0.555,0.5794,0.5546,0.5297,0.5298,0.5548,0.5425,0.5177,0.4687,0.4441,0.4316,0.4561,0.4928,0.5544,0.6037,0.6653,0.7266,0.7994,0.757,0.7437,0.7985,0.755,0.7835,0.8742,0.9212,1.0321,1.2027,1.2401,1.287,1.3395,1.2816,1.2888,1.3613,1.3613,1.3756,1.3923,1.4391,1.4366,0.6136,0.7077,0.7696,0.6762,0.654,0.632,0.0,0.0,0.0,0.0,0.0,0.0,0.0,0.0,0.0,0.0,0.0,0.0,0.0,0.0,0.0,0.0,0.0,0.0,0.0,0.0,0.0,0.0,0.0,0.0,0.6274,0.6274,0.6274,0.6274,0.5935,0.5822,0.5824,0.4252,0.291,0.1567,0.1567,0.0448,-0.1797,-0.0561,-0.068,-0.1847,-0.1876,-0.1905,-0.1933,-0.1933,-0.195,-0.2099,-0.2344,-0.0863,0.1479,0.1108,0.2462,0.4439,0.4687,0.4195,0.3579,0.4566,0.4439,0.3944,0.4687,0.481,0.4933,0.4933,0.4935,0.4933,0.5298,0.5421,0.5421,0.5794,0.5916,0.5916,0.5916,0.5916,0.5671,0.5056,0.4933,0.4689,0.4073,0.395,0.4195,0.4803,0.4925,0.5416,0.6644,0.7138,0.7633,0.8247,0.8248,0.8115,0.7991,0.7627,0.7971,0.8894,0.9973,1.1082,1.2093,1.3075,1.3594,1.3395,1.34,1.3405,1.3405,1.3405,1.3853,1.451,1.4629,1.4518,0.7986,0.8709,0.8945,0.8647,0.8521,0.8142,0.6519,0.0,0.0,0.0,0.0,0.0,0.0,0.0,0.0,0.0,0.0,0.0,0.0,0.0,0.0,0.0,0.0,0.0,0.0,0.0,0.0,0.0,0.0,0.0,0.6935,0.6824,0.6826,0.6604,0.6492,0.5819,0.47,0.414,0.3134,0.1791,0.1791,0.0896,-0.0673,-0.0224,-0.0675,-0.1812,-0.1823,-0.1855,-0.1904,-0.1923,-0.1937,-0.1827,-0.1229,0.0246,0.1847,0.2463,0.3448,0.4682,0.4562,0.4193,0.3822,0.4439,0.4409,0.426,0.4795,0.5021,0.5111,0.5163,0.5425,0.5548,0.5671,0.5669,0.5794,0.5916,0.5916,0.5794,0.5669,0.5546,0.5546,0.53,0.4931,0.4685,0.4808,0.4684,0.4805,0.5416,0.5906,0.6396,0.6888,0.738,0.7872,0.7997,0.8013,0.7801,0.7757,0.7754,0.834,0.998,1.0487,1.1395,1.2903,1.3377,1.3339,1.2999,1.332,1.3616,1.3759,1.3529,1.3978,1.5003,1.5237,1.4961,0.9139,0.9845,1.0071,0.9745,0.9791,0.9328,0.7563,0.0,0.0,0.0,0.0,0.0,0.0,0.0,0.0,0.0,0.0,0.0,0.0,0.0,0.0,0.0,0.0,0.0,0.0,0.0,0.0,0.0,0.0,0.0,0.7154,0.7154,0.7043,0.6715,0.6715,0.6042,0.4814,0.4702,0.3917,0.2574,0.2911,0.2128,0.0672,0.1008,0.0336,-0.1121,-0.0785,-0.1025,-0.1872,-0.1892,-0.1668,-0.1198,-0.0365,0.11,0.269,0.3318,0.4187,0.5051,0.493,0.4561,0.4312,0.4779,0.4737,0.4701,0.5092,0.532,0.5429,0.5487,0.577,0.5916,0.5916,0.5916,0.5916,0.5794,0.5794,0.5794,0.53,0.5298,0.5421,0.5421,0.5053,0.493,0.5419,0.5418,0.5416,0.6154,0.6644,0.7011,0.7255,0.7625,0.7872,0.775,0.7804,0.7621,0.7345,0.7817,0.8744,1.0222,1.0848,1.1848,1.3395,1.362,1.3567,1.3213,1.3755,1.4122,1.443,1.3979,1.4355,1.534,1.5495,1.5194,0.0,0.0,0.0,1.0009,0.9961,0.0,0.8838,0.0,0.0,0.0,0.0,0.0,0.0,0.0,0.0,0.0,0.0,0.0,0.0,0.0,0.0,0.0,0.0,0.0,0.0,0.0,0.0,0.0,0.0,0.7154,0.7154,0.7154,0.7043,0.6712,0.6715,0.6604,0.6274,0.5933,0.5256,0.4027,0.4923,0.4139,0.19,0.3017,0.2347,0.0112,0.123,0.0451,-0.1722,-0.1724,-0.1044,-0.0,0.012,0.1564,0.3858,0.3914,0.4553,0.5421,0.579,0.5421,0.504,0.5565,0.5532,0.5395,0.5552,0.5704,0.5774,0.578,0.5845,0.5912,0.5912,0.5912,0.579,0.5538,0.5661,0.5663,0.5051,0.517,0.5416,0.5419,0.5421,0.5542,0.5908,0.5906,0.6154,0.6766,0.6888,0.7136,0.7747,0.7869,0.775,0.7385,0.775,0.7583,0.6753,0.817,0.9173,0.9722,1.1141,1.2299,1.3367,1.3946,1.4074,1.3977,1.454,1.5104,1.5418,1.4768,1.4896,1.5682,1.5443,1.5093,1.1073,0.0,0.0,0.0,0.0,0.0,1.0097,1.0003,0.0,0.0,0.0,0.0,0.0,0.0,0.0,0.0,0.0,0.0,0.0,0.0,0.0,0.0,0.0,0.0,0.0,0.0,0.0,0.0,0.7108,0.7154,0.7154,0.7154,0.7154,0.7046,0.7046,0.6935,0.6604,0.6411,0.6044,0.5496,0.5541,0.4642,0.3127,0.3345,0.2589,0.1079,0.1402,0.119,0.0545,0.0679,0.0921,0.1273,0.2235,0.3098,0.3975,0.4958,0.5492,0.5784,0.5841,0.5698,0.5563,0.5594,0.552,0.5474,0.5514,0.5616,0.561,0.5745,0.5798,0.5818,0.5818,0.5818,0.5802,0.5616,0.56,0.5602,0.5247,0.5247,0.5161,0.5035,0.5177,0.5544,0.6156,0.6278,0.6526,0.7138,0.7261,0.7263,0.7143,0.7385,0.7508,0.7385,0.775,0.7736,0.722,0.8339,0.9216,0.988,1.098,1.2267,1.3492,1.3858,1.4179,1.4399,1.5126,1.5637,1.5675,1.535,1.5541,1.6345,1.5518,1.5143,1.178,1.2043,1.2043,1.2043,0.0,0.0,1.1237,1.1253,1.1215,0.0,0.0,0.0,0.0,0.0,0.0,0.0,0.0,0.0,0.0,0.0,0.0,0.0,0.0,0.0,0.0,0.0,0.0,0.0,0.697,0.7008,0.7008,0.7008,0.7008,0.7008,0.7008,0.6899,0.6793,0.6508,0.637,0.6266,0.588,0.5212,0.4466,0.4256,0.351,0.2233,0.2764,0.2764,0.2345,0.2857,0.2793,0.2478,0.3344,0.398,0.4606,0.5471,0.5757,0.5796,0.5741,0.5725,0.5708,0.5616,0.5462,0.5448,0.5541,0.5344,0.5278,0.5426,0.5578,0.5608,0.5843,0.5843,0.571,0.5657,0.5643,0.5528,0.5061,0.5297,0.5574,0.5348,0.5492,0.5748,0.6521,0.665,0.6775,0.7143,0.7143,0.7143,0.7143,0.7385,0.7508,0.7385,0.7994,0.8216,0.8035,0.8988,1.0051,1.1013,1.1955,1.2909,1.4111,1.4461,1.4853,1.5266,1.5977,1.6398,1.6398,1.5956,1.5917,1.6148,1.5212,1.4926,1.2037,1.2037,1.2037,1.2037,1.2203,0.0,1.2123,1.2383,1.2639,0.0,0.0,0.0,0.0,0.0,0.0,0.0,0.0,0.0,0.0,0.0,0.0,0.0,0.0,0.0,0.0,0.0,0.6574,0.6782,0.6796,0.6909,0.6909,0.6909,0.6907,0.6801,0.6801,0.6801,0.6801,0.6582,0.6471,0.6471,0.6032,0.5817,0.5503,0.5503,0.4761,0.3597,0.4654,0.4443,0.3597,0.4663,0.4505,0.3609,0.3836,0.4574,0.5516,0.5598,0.5635,0.5643,0.5633,0.5629,0.5612,0.5522,0.5321,0.5242,0.5316,0.5086,0.4756,0.5094,0.5116,0.5295,0.5871,0.5864,0.5627,0.5616,0.5614,0.5381,0.4916,0.5383,0.5996,0.5852,0.5759,0.6037,0.6743,0.6884,0.6886,0.6898,0.69,0.7021,0.7263,0.775,0.7872,0.7508,0.8474,0.9017,0.8991,1.0128,1.1334,1.2381,1.3261,1.4034,1.495,1.5395,1.5869,1.616,1.6718,1.705,1.7044,1.6531,1.6054,1.5523,1.4945,1.4713,0.0,0.0,0.0,0.0,0.0,0.0,1.2534,1.249,1.2504,0.0,0.0,0.0,0.0,0.0,0.0,0.0,0.0,0.0,0.0,0.0,0.0,0.0,0.0,0.0,0.0,0.0,0.707,0.6654,0.7165,0.7437,0.7437,0.7437,0.7226,0.6804,0.6801,0.6801,0.6801,0.6602,0.6551,0.6551,0.6152,0.5906,0.5906,0.55,0.5095,0.4788,0.4888,0.4685,0.4485,0.4864,0.4988,0.4807,0.4841,0.5158,0.551,0.5527,0.5582,0.5633,0.5559,0.5533,0.552,0.5435,0.5191,0.4972,0.494,0.4738,0.4667,0.5045,0.5116,0.5282,0.5555,0.5535,0.5516,0.5449,0.5433,0.5433,0.532,0.5433,0.5572,0.5545,0.5856,0.6175,0.639,0.6406,0.6433,0.6514,0.7018,0.7263,0.7013,0.7744,0.8233,0.8236,0.9343,0.9968,0.9689,1.1396,1.2543,1.2483,1.3451,1.4451,1.5248,1.5365,1.5922,1.6851,1.6768,1.666,1.6428,1.633,1.6254,1.6096,1.557,1.5369,0.0,0.0,0.0,1.2705,0.0,0.0,0.0,1.2619,1.257,0.0,0.0,0.0,0.0,0.0,0.0,0.0,0.0,0.0,0.0,0.0,0.0,0.0,0.0,0.0,0.0,0.0,0.7238,0.7134,0.7505,0.7753,0.7753,0.7548,0.7238,0.7032,0.6724,0.6619,0.6619,0.6559,0.6526,0.6526,0.6266,0.6139,0.5942,0.5741,0.5441,0.524,0.5037,0.4937,0.4839,0.4883,0.4983,0.5118,0.5208,0.5326,0.5445,0.5445,0.5473,0.5506,0.5461,0.5445,0.5439,0.517,0.4959,0.4757,0.4716,0.4482,0.4385,0.4688,0.4823,0.4929,0.5566,0.5556,0.5433,0.5611,0.5491,0.5382,0.5382,0.5382,0.5506,0.5883,0.6046,0.6129,0.5924,0.6224,0.6517,0.6568,0.7228,0.7627,0.7622,0.8236,0.8818,0.9346,1.0224,1.1157,1.1888,1.273,1.3573,1.4211,1.444,1.4984,1.6034,1.5916,1.6145,1.6887,1.6628,1.6384,1.6051,1.6011,1.5772,1.5652,1.5427,1.5154,0.0,0.0,0.0,0.0,0.0,1.2705,0.0,0.0,0.0,0.0,0.0,0.0,0.0,0.0,0.0,0.0,0.0,0.0,0.0,0.0,0.0,0.0,0.0,0.0,0.0,0.0,0.7434,0.7928,0.8035,0.8137,0.8137,0.7736,0.7434,0.7238,0.6736,0.6537,0.6437,0.6437,0.6437,0.6437,0.6437,0.6237,0.6042,0.6042,0.5741,0.534,0.534,0.5138,0.4935,0.4935,0.4991,0.5093,0.5153,0.5273,0.5357,0.5375,0.5382,0.5382,0.5382,0.5382,0.5268,0.5043,0.4748,0.4447,0.4387,0.4258,0.4049,0.4555,0.4641,0.4704,0.5487,0.5603,0.5493,0.5712,0.5603,0.5382,0.5603,0.5603,0.5712,0.6374,0.6485,0.6324,0.5936,0.6504,0.6931,0.6973,0.7771,0.8569,0.8836,0.9306,0.9964,1.0898,1.1524,1.251,1.386,1.4025,1.4473,1.5797,1.5464,1.5573,1.6598,1.6453,1.6441,1.6616,1.6398,1.618,1.5748,1.5497,1.5261,1.5041,1.5041,1.4928,0.0,0.0,0.0,0.0,1.2705,0.0,0.0,0.0,1.2705,0.0,0.0,0.0,0.0,0.0,0.0,0.0,0.0,0.0,0.0,0.0,0.0,0.0,0.0,0.0,0.0,0.0,0.0,0.9229,0.873,0.8432,0.8726,0.8627,0.823,0.7235,0.7138,0.6836,0.6437,0.6437,0.6437,0.6437,0.6437,0.6337,0.6337,0.6139,0.5942,0.5942,0.5636,0.5536,0.5536,0.5238,0.5196,0.5296,0.5191,0.5179,0.5269,0.5351,0.5382,0.5382,0.5382,0.5156,0.4931,0.4929,0.4489,0.4047,0.4039,0.4036,0.4151,0.4718,0.4825,0.4931,0.538,0.5382,0.5382,0.5493,0.5382,0.5491,0.6042,0.6151,0.6376,0.6932,0.7043,0.7086,0.7103,0.714,0.7332,0.7538,0.8997,1.0242,1.051,1.184,1.2795,1.3007,1.3586,1.4113,1.4282,1.5081,1.5708,1.5891,1.5891,1.5917,1.6314,1.6537,1.6549,1.6332,1.6314,1.5967,1.5412,1.5161,1.5041,1.5041,1.5041,1.4928,0.0,0.0,0.0,0.0,0.0,0.0,1.2705,0.0,1.2705,0.0,0.0,0.0,0.0,0.0,0.0,0.0,0.0,0.0,0.0,0.0,0.0,0.0,0.0,0.0,0.0,0.0,0.0,0.0,0.0,0.8931,0.9229,0.8924,0.8627,0.8131,0.7534,0.7135,0.6836,0.6537,0.6437,0.6437,0.6437,0.6437,0.6437,0.6237,0.6139,0.6042,0.5839,0.5737,0.5634,0.5436,0.5464,0.5512,0.5307,0.5224,0.5255,0.5347,0.5382,0.5382,0.5382,0.5156,0.4929,0.4706,0.4372,0.4036,0.4258,0.4258,0.437,0.4817,0.4929,0.4931,0.527,0.5382,0.5382,0.5382,0.5382,0.5603,0.6154,0.6262,0.6596,0.7487,0.826,0.8826,0.922,0.8527,0.8166,0.8839,1.0091,1.1109,1.1879,1.2641,1.3236,1.3911,1.4176,1.4669,1.519,1.563,1.5891,1.5891,1.6042,1.6109,1.6054,1.6314,1.6326,1.606,1.606,1.5851,1.5418,1.52,1.4928,1.4713,1.4617,1.4509,1.2875,0.0,0.0,0.0,0.0,0.0,0.0,0.0,0.0,0.0,0.0,0.0,0.0,0.0,0.0,0.0,0.0,0.0,0.0,0.0,0.0,0.0,0.0,0.0,0.0,0.0,0.0,0.0,0.9031,0.0,0.943,0.9229,0.8924,0.8825,0.8031,0.7537,0.7437,0.6936,0.6637,0.6637,0.6437,0.6437,0.6437,0.6437,0.6339,0.6139,0.6139,0.6039,0.5834,0.5737,0.5737,0.5648,0.5553,0.549,0.5435,0.531,0.5359,0.5382,0.5382,0.5156,0.4817,0.448,0.4258,0.4147,0.448,0.4592,0.4704,0.4931,0.5043,0.5043,0.5382,0.5382,0.5493,0.5603,0.5603,0.5824,0.6596,0.671,0.7043,0.8481,0.9357,1.0233,1.0996,1.0231,0.9771,1.0587,1.1503,1.2411,1.326,1.3665,1.4127,1.485,1.4889,1.511,1.5797,1.5891,1.5891,1.5891,1.6079,1.6103,1.5897,1.6072,1.6085,1.5891,1.5891,1.5791,1.5482,1.5261,1.4934,1.46,1.4293,1.4196,0.0,0.0,0.0,1.3052,0.0,0.0,0.0,0.0,1.2705,0.0,0.0,0.0,0.0,0.0,0.0,1.2705,0.0,0.0,0.0,0.0,0.0,0.0,0.0,0.0,0.0,0.0,0.0,0.8726,0.8825,0.0,0.9236,0.943,0.9327,0.8825,0.8726,0.8528,0.7939,0.7437,0.7135,0.7135,0.6637,0.6437,0.6437,0.6437,0.6437,0.6437,0.6437,0.6337,0.6337,0.6139,0.5942,0.5952,0.5858,0.5863,0.5868,0.5433,0.5306,0.5382,0.5382,0.5156,0.4817,0.426,0.4258,0.448,0.4817,0.4929,0.4931,0.5268,0.5382,0.5382,0.5382,0.5382,0.5491,0.6154,0.6262,0.6596,0.7712,0.7715,0.8156,1.0233,1.0343,1.0668,1.2087,1.2313,1.2279,1.2478,1.3628,1.45,1.4735,1.5561,1.618,1.6278,1.6054,1.5897,1.5891,1.5891,1.5891,1.5891,1.5897,1.5897,1.5891,1.5897,1.5897,1.5891,1.5891,1.5791,1.5482,1.5482,1.5154,1.46,1.4293,1.4196,0.0,0.0,1.3483,1.3307,0.0,0.0,0.0,0.0,0.0,0.0,0.0,0.0,0.0,0.0,1.279,1.2966,1.279,0.0,0.0,0.0,0.0,0.0,0.0,0.0,0.0,0.0,0.0,0.9797,0.9019,0.863,0.0,0.9232,0.9232,0.9031,0.8928,0.8726,0.8531,0.7832,0.7335,0.7238,0.6839,0.6539,0.6437,0.6437,0.6437,0.6437,0.6437,0.6437,0.6437,0.6337,0.6237,0.6242,0.5982,0.6112,0.6184,0.5858,0.5852,0.5938,0.5487,0.5152,0.4817,0.4707,0.4706,0.4817,0.5156,0.5268,0.5268,0.5382,0.5382,0.5491,0.5933,0.5822,0.5824,0.6379,0.6379,0.6824,0.8468,0.8799,0.9347,1.1433,1.2516,1.3166,1.3506,1.4374,1.4724,1.3832,1.4065,1.4641,1.5384,1.5971,1.6239,1.6024,1.616,1.6105,1.5891,1.5891,1.5891,1.5891,1.5891,1.5891,1.5891,1.5891,1.5891,1.5891,1.5891,1.5891,1.5791,1.5589,1.5261,1.4821,1.4611,1.4401,1.373,1.3815,0.0,0.0,1.3899,0.0,1.3561,0.0,0.0,0.0,0.0,0.0,0.0,0.0,0.0,1.3392,1.313,1.279,0.0,1.2705,0.0,0.0,0.0,0.0,0.0,0.0,0.9992,1.0275,0.9509,0.9019,0.0,0.0,0.9236,0.9236,0.913,0.9126,0.9126,0.8329,0.7832,0.7637,0.7138,0.6842,0.6539,0.6539,0.6537,0.6437,0.6437,0.6437,0.6437,0.6437,0.6337,0.6239,0.6139,0.6154,0.6125,0.5913,0.5932,0.594,0.5375,0.5152,0.5043,0.4931,0.4931,0.5156,0.5491,0.5491,0.5603,0.5826,0.5828,0.5826,0.6267,0.6156,0.6158,0.6712,0.6715,0.7154,0.9016,0.9559,1.0323,1.2625,1.3922,1.468,1.5018,1.5779,1.6004,1.4922,1.4815,1.5137,1.5891,1.6217,1.6324,1.6205,1.6211,1.6111,1.5791,1.5891,1.5891,1.5891,1.5891,1.5891,1.5998,1.5998,1.5934,1.5815,1.594,1.5934,1.5815,1.5731,1.5476,1.5154,1.4928,1.4611]}]]